Time,TemperatureF,DewpointF,PressureIn,WindDirection,WindDirectionDegrees,WindSpeedMPH,WindSpeedGustMPH,Humidity,HourlyPrecipIn,Conditions,Clouds,dailyrainin,SolarRadiationWatts/m^2,SoftwareType,DateUTC
2013-03-19 00:00:00,69.3,62.5,29.93,West,273,2.0,7.0,79,0.00,,---,0.00,0.00,VWS V14.00,2013-03-19 04:00:00,
2013-03-19 00:01:00,69.3,62.5,29.93,West,276,7.0,8.0,79,0.00,,---,0.00,0.00,VWS V14.00,2013-03-19 04:01:00,
2013-03-19 00:02:00,69.3,62.5,29.93,West,270,3.0,8.0,79,0.00,,---,0.00,0.00,VWS V14.00,2013-03-19 04:02:00,
2013-03-19 00:03:00,69.3,62.5,29.93,West,267,5.0,8.0,79,0.00,,---,0.00,0.00,VWS V14.00,2013-03-19 04:03:00,
2013-03-19 00:04:00,69.2,62.4,29.93,West,270,5.0,8.0,79,0.00,,---,0.00,0.00,VWS V14.00,2013-03-19 04:04:00,
2013-03-19 00:05:00,69.2,62.4,29.93,West,263,3.0,8.0,79,0.00,,---,0.00,0.00,VWS V14.00,2013-03-19 04:05:00,
2013-03-19 00:06:00,69.2,62.4,29.93,WSW,256,7.0,8.0,79,0.00,,---,0.00,0.00,VWS V14.00,2013-03-19 04:06:00,
2013-03-19 00:07:00,69.2,62.4,29.93,WSW,257,4.0,9.0,79,0.00,,---,0.00,0.00,VWS V14.00,2013-03-19 04:07:00,
2013-03-19 00:08:00,69.2,62.4,29.93,WSW,254,4.0,9.0,79,0.00,,---,0.00,0.00,VWS V14.00,2013-03-19 04:08:00,
2013-03-19 00:09:00,69.2,62.4,29.93,West,264,6.0,9.0,79,0.00,,---,0.00,0.00,VWS V14.00,2013-03-19 04:09:00,
2013-03-19 00:10:00,69.2,62.4,29.93,West,262,5.0,9.0,79,0.00,,---,0.00,0.00,VWS V14.00,2013-03-19 04:10:00,
2013-03-19 00:11:00,69.2,62.4,29.93,West,262,3.0,9.0,79,0.00,,---,0.00,0.00,VWS V14.00,2013-03-19 04:11:00,
2013-03-19 00:12:00,69.1,62.3,29.93,West,262,3.0,9.0,79,0.00,,---,0.00,0.00,VWS V14.00,2013-03-19 04:12:00,
2013-03-19 00:13:00,69.1,62.3,29.93,West,274,5.0,9.0,79,0.00,,---,0.00,0.00,VWS V14.00,2013-03-19 04:13:00,
2013-03-19 00:14:00,69.1,62.3,29.93,West,273,3.0,9.0,79,0.00,,---,0.00,0.00,VWS V14.00,2013-03-19 04:14:00,
2013-03-19 00:15:00,69.0,62.6,29.93,West,272,2.0,9.0,80,0.00,,---,0.00,0.00,VWS V14.00,2013-03-19 04:15:00,
2013-03-19 00:16:00,69.0,62.6,29.93,West,273,3.0,9.0,80,0.00,,---,0.00,0.00,VWS V14.00,2013-03-19 04:16:00,
2013-03-19 00:17:00,69.0,62.6,29.94,West,273,5.0,9.0,80,0.00,,---,0.00,0.00,VWS V14.00,2013-03-19 04:17:00,
2013-03-19 00:18:00,69.0,62.6,29.94,West,273,2.0,9.0,80,0.00,,---,0.00,0.00,VWS V14.00,2013-03-19 04:18:00,
2013-03-19 00:19:00,68.9,62.5,29.94,West,273,5.0,9.0,80,0.00,,---,0.00,0.00,VWS V14.00,2013-03-19 04:19:00,
2013-03-19 00:20:00,68.9,62.5,29.94,WNW,289,4.0,9.0,80,0.00,,---,0.00,0.00,VWS V14.00,2013-03-19 04:20:00,
2013-03-19 00:21:00,68.9,62.5,29.94,WNW,287,2.0,9.0,80,0.00,,---,0.00,0.00,VWS V14.00,2013-03-19 04:21:00,
2013-03-19 00:22:00,68.8,62.4,29.94,WNW,287,3.0,9.0,80,0.00,,---,0.00,0.00,VWS V14.00,2013-03-19 04:22:00,
2013-03-19 00:23:00,68.8,62.4,29.94,WNW,288,4.0,9.0,80,0.00,,---,0.00,0.00,VWS V14.00,2013-03-19 04:23:00,
2013-03-19 00:24:00,68.8,62.4,29.94,WNW,288,3.0,9.0,80,0.00,,---,0.00,0.00,VWS V14.00,2013-03-19 04:24:00,
2013-03-19 00:25:00,68.8,62.4,29.94,WNW,288,4.0,9.0,80,0.00,,---,0.00,0.00,VWS V14.00,2013-03-19 04:25:00,
2013-03-19 00:26:00,68.7,62.3,29.94,WNW,290,4.0,9.0,80,0.00,,---,0.00,0.00,VWS V14.00,2013-03-19 04:26:00,
2013-03-19 00:27:00,68.7,62.3,29.94,WNW,291,4.0,9.0,80,0.00,,---,0.00,0.00,VWS V14.00,2013-03-19 04:27:00,
2013-03-19 00:28:00,68.7,62.3,29.94,WNW,291,3.0,9.0,80,0.00,,---,0.00,0.00,VWS V14.00,2013-03-19 04:28:00,
2013-03-19 00:29:00,68.6,62.2,29.94,WNW,295,3.0,9.0,80,0.00,,---,0.00,0.00,VWS V14.00,2013-03-19 04:29:00,
2013-03-19 00:30:00,68.6,62.2,29.94,WNW,294,3.0,9.0,80,0.00,,---,0.00,0.00,VWS V14.00,2013-03-19 04:30:00,
2013-03-19 00:31:00,68.6,62.2,29.94,WNW,291,3.0,7.0,80,0.00,,---,0.00,0.00,VWS V14.00,2013-03-19 04:31:00,
2013-03-19 00:32:00,68.6,62.5,29.94,WNW,291,4.0,7.0,81,0.00,,---,0.00,0.00,VWS V14.00,2013-03-19 04:32:00,
2013-03-19 00:33:00,68.6,62.5,29.94,WNW,291,3.0,7.0,81,0.00,,---,0.00,0.00,VWS V14.00,2013-03-19 04:33:00,
2013-03-19 00:34:00,68.5,62.5,29.94,WNW,291,3.0,7.0,81,0.00,,---,0.00,0.00,VWS V14.00,2013-03-19 04:34:00,
2013-03-19 00:35:00,68.5,62.5,29.94,WNW,291,3.0,7.0,81,0.00,,---,0.00,0.00,VWS V14.00,2013-03-19 04:35:00,
2013-03-19 00:36:00,68.5,62.5,29.94,WNW,291,2.0,7.0,81,0.00,,---,0.00,0.00,VWS V14.00,2013-03-19 04:36:00,
2013-03-19 00:37:00,68.4,62.3,29.94,WNW,291,2.0,7.0,81,0.00,,---,0.00,0.00,VWS V14.00,2013-03-19 04:37:00,
2013-03-19 00:38:00,68.4,62.3,29.95,WNW,291,2.0,7.0,81,0.00,,---,0.00,0.00,VWS V14.00,2013-03-19 04:38:00,
2013-03-19 00:39:00,68.4,62.3,29.94,WNW,291,2.0,7.0,81,0.00,,---,0.00,0.00,VWS V14.00,2013-03-19 04:39:00,
2013-03-19 00:40:00,68.3,62.2,29.94,WNW,291,2.0,7.0,81,0.00,,---,0.00,0.00,VWS V14.00,2013-03-19 04:40:00,
2013-03-19 00:41:00,68.3,62.2,29.94,WNW,290,3.0,7.0,81,0.00,,---,0.00,0.00,VWS V14.00,2013-03-19 04:41:00,
2013-03-19 00:42:00,68.3,62.2,29.95,WNW,290,4.0,7.0,81,0.00,,---,0.00,0.00,VWS V14.00,2013-03-19 04:42:00,
2013-03-19 00:43:00,68.3,62.2,29.95,WNW,290,3.0,7.0,81,0.00,,---,0.00,0.00,VWS V14.00,2013-03-19 04:43:00,
2013-03-19 00:44:00,68.3,62.2,29.95,WNW,290,2.0,7.0,81,0.00,,---,0.00,0.00,VWS V14.00,2013-03-19 04:44:00,
2013-03-19 00:45:00,68.3,62.2,29.95,WNW,290,4.0,7.0,81,0.00,,---,0.00,0.00,VWS V14.00,2013-03-19 04:45:00,
2013-03-19 00:46:00,68.2,62.2,29.95,WNW,289,3.0,7.0,81,0.00,,---,0.00,0.00,VWS V14.00,2013-03-19 04:46:00,
2013-03-19 00:47:00,68.2,62.2,29.95,WNW,289,3.0,7.0,81,0.00,,---,0.00,0.00,VWS V14.00,2013-03-19 04:47:00,
2013-03-19 00:48:00,68.2,62.2,29.95,WNW,289,2.0,7.0,81,0.00,,---,0.00,0.00,VWS V14.00,2013-03-19 04:48:00,
2013-03-19 00:49:00,68.1,62.1,29.95,WNW,289,4.0,7.0,81,0.00,,---,0.00,0.00,VWS V14.00,2013-03-19 04:49:00,
2013-03-19 00:50:00,68.1,62.4,29.95,WNW,289,3.0,7.0,82,0.00,,---,0.00,0.00,VWS V14.00,2013-03-19 04:50:00,
2013-03-19 00:51:00,68.1,62.4,29.95,WNW,291,4.0,7.0,82,0.00,,---,0.00,0.00,VWS V14.00,2013-03-19 04:51:00,
2013-03-19 00:52:00,68.1,62.4,29.95,WNW,291,4.0,7.0,82,0.00,,---,0.00,0.00,VWS V14.00,2013-03-19 04:52:00,
2013-03-19 00:53:00,68.1,62.4,29.96,NW,306,5.0,7.0,82,0.00,,---,0.00,0.00,VWS V14.00,2013-03-19 04:53:00,
2013-03-19 00:54:00,68.0,62.3,29.96,NW,306,6.0,7.0,82,0.00,,---,0.00,0.00,VWS V14.00,2013-03-19 04:54:00,
2013-03-19 00:55:00,68.0,62.3,29.97,NW,310,7.0,9.0,82,0.00,,---,0.00,0.00,VWS V14.00,2013-03-19 04:55:00,
2013-03-19 00:56:00,68.0,62.3,29.97,NW,318,9.0,12.0,82,0.00,,---,0.00,0.00,VWS V14.00,2013-03-19 04:56:00,
2013-03-19 00:57:00,67.9,62.2,29.97,NW,319,10.0,12.0,82,0.00,,---,0.00,0.00,VWS V14.00,2013-03-19 04:57:00,
2013-03-19 00:58:00,67.9,62.2,29.97,NW,326,14.0,14.0,82,0.00,,---,0.00,0.00,VWS V14.00,2013-03-19 04:58:00,
2013-03-19 00:59:00,67.9,62.2,29.98,NW,308,8.0,16.0,82,0.00,,---,0.00,0.00,VWS V14.00,2013-03-19 04:59:00,
2013-03-19 01:00:00,67.8,62.1,29.98,NW,308,10.0,16.0,82,0.00,,---,0.00,0.00,VWS V14.00,2013-03-19 05:00:00,
2013-03-19 01:01:00,67.8,62.1,29.98,NW,322,12.0,15.0,82,0.00,,---,0.00,0.00,VWS V14.00,2013-03-19 05:01:00,
2013-03-19 01:02:00,67.8,62.1,29.98,NNW,329,11.0,15.0,82,0.00,,---,0.00,0.00,VWS V14.00,2013-03-19 05:02:00,
2013-03-19 01:03:00,67.8,62.1,29.99,NW,319,12.0,15.0,82,0.00,,---,0.00,0.00,VWS V14.00,2013-03-19 05:03:00,
2013-03-19 01:04:00,67.7,62.0,29.98,NW,306,9.0,17.0,82,0.00,,---,0.00,0.00,VWS V14.00,2013-03-19 05:04:00,
2013-03-19 01:05:00,67.8,62.1,29.99,NW,321,8.0,17.0,82,0.00,,---,0.00,0.00,VWS V14.00,2013-03-19 05:05:00,
2013-03-19 01:06:00,67.8,62.1,29.99,WNW,295,9.0,17.0,82,0.00,,---,0.00,0.00,VWS V14.00,2013-03-19 05:06:00,
2013-03-19 01:07:00,67.8,62.1,29.98,WNW,297,5.0,17.0,82,0.00,,---,0.00,0.00,VWS V14.00,2013-03-19 05:07:00,
2013-03-19 01:08:00,67.8,61.8,29.98,NW,319,6.0,17.0,81,0.00,,---,0.00,0.00,VWS V14.00,2013-03-19 05:08:00,
2013-03-19 01:09:00,67.9,62.2,29.98,NW,315,9.0,17.0,82,0.00,,---,0.00,0.00,VWS V14.00,2013-03-19 05:09:00,
2013-03-19 01:10:00,67.8,61.8,29.98,NNW,330,9.0,17.0,81,0.00,,---,0.00,0.00,VWS V14.00,2013-03-19 05:10:00,
2013-03-19 01:11:00,67.9,61.9,29.98,NW,326,13.0,17.0,81,0.00,,---,0.00,0.00,VWS V14.00,2013-03-19 05:11:00,
2013-03-19 01:12:00,67.9,61.9,29.98,NW,322,10.0,17.0,81,0.00,,---,0.00,0.00,VWS V14.00,2013-03-19 05:12:00,
2013-03-19 01:13:00,67.9,61.9,29.98,NW,311,8.0,17.0,81,0.00,,---,0.00,0.00,VWS V14.00,2013-03-19 05:13:00,
2013-03-19 01:14:00,67.9,61.9,29.98,NNW,333,9.0,17.0,81,0.00,,---,0.00,0.00,VWS V14.00,2013-03-19 05:14:00,
2013-03-19 01:15:00,67.9,61.9,29.98,NW,324,13.0,17.0,81,0.00,,---,0.00,0.00,VWS V14.00,2013-03-19 05:15:00,
2013-03-19 01:16:00,67.9,61.9,29.98,NW,324,13.0,17.0,81,0.00,,---,0.00,0.00,VWS V14.00,2013-03-19 05:16:00,
2013-03-19 01:17:00,67.9,61.9,29.98,NNW,328,13.0,18.0,81,0.00,,---,0.00,0.00,VWS V14.00,2013-03-19 05:17:00,
2013-03-19 01:18:00,67.9,61.9,29.98,NW,318,12.0,18.0,81,0.00,,---,0.00,0.00,VWS V14.00,2013-03-19 05:18:00,
2013-03-19 01:19:00,67.9,61.9,29.98,NW,310,8.0,18.0,81,0.00,,---,0.00,0.00,VWS V14.00,2013-03-19 05:19:00,
2013-03-19 01:20:00,67.9,61.9,29.98,NW,310,6.0,18.0,81,0.00,,---,0.00,0.00,VWS V14.00,2013-03-19 05:20:00,
2013-03-19 01:21:00,67.9,61.9,29.98,NW,319,13.0,18.0,81,0.00,,---,0.00,0.00,VWS V14.00,2013-03-19 05:21:00,
2013-03-19 01:22:00,67.9,61.9,29.98,WNW,303,7.0,18.0,81,0.00,,---,0.00,0.00,VWS V14.00,2013-03-19 05:22:00,
2013-03-19 01:23:00,67.9,61.9,29.98,NW,315,8.0,18.0,81,0.00,,---,0.00,0.00,VWS V14.00,2013-03-19 05:23:00,
2013-03-19 01:24:00,67.8,61.8,29.98,WNW,300,8.0,18.0,81,0.00,,---,0.00,0.00,VWS V14.00,2013-03-19 05:24:00,
2013-03-19 01:25:00,67.8,61.8,29.98,NW,315,5.0,18.0,81,0.00,,---,0.00,0.00,VWS V14.00,2013-03-19 05:25:00,
2013-03-19 01:26:00,67.8,61.8,29.98,NW,317,12.0,18.0,81,0.00,,---,0.00,0.00,VWS V14.00,2013-03-19 05:26:00,
2013-03-19 01:27:00,67.8,61.8,29.98,WNW,295,8.0,18.0,81,0.00,,---,0.00,0.00,VWS V14.00,2013-03-19 05:27:00,
2013-03-19 01:28:00,67.8,61.8,29.98,NNW,341,8.0,18.0,81,0.00,,---,0.00,0.00,VWS V14.00,2013-03-19 05:28:00,
2013-03-19 01:29:00,67.8,61.8,29.99,NW,312,5.0,18.0,81,0.00,,---,0.00,0.00,VWS V14.00,2013-03-19 05:29:00,
2013-03-19 01:30:00,67.7,61.7,29.98,NW,310,4.0,18.0,81,0.00,,---,0.00,0.00,VWS V14.00,2013-03-19 05:30:00,
2013-03-19 01:31:00,67.7,61.7,29.98,NW,312,9.0,10.0,81,0.00,,---,0.00,0.00,VWS V14.00,2013-03-19 05:31:00,
2013-03-19 01:32:00,67.7,61.7,29.99,WNW,291,4.0,11.0,81,0.00,,---,0.00,0.00,VWS V14.00,2013-03-19 05:32:00,
2013-03-19 01:33:00,67.7,61.7,29.98,NW,319,5.0,11.0,81,0.00,,---,0.00,0.00,VWS V14.00,2013-03-19 05:33:00,
2013-03-19 01:34:00,67.7,61.7,29.98,NW,324,3.0,11.0,81,0.00,,---,0.00,0.00,VWS V14.00,2013-03-19 05:34:00,
2013-03-19 01:35:00,67.7,61.7,29.98,NW,324,4.0,11.0,81,0.00,,---,0.00,0.00,VWS V14.00,2013-03-19 05:35:00,
2013-03-19 01:36:00,67.7,61.7,29.98,NW,320,9.0,11.0,81,0.00,,---,0.00,0.00,VWS V14.00,2013-03-19 05:36:00,
2013-03-19 01:37:00,67.7,61.7,29.98,NW,314,7.0,11.0,81,0.00,,---,0.00,0.00,VWS V14.00,2013-03-19 05:37:00,
2013-03-19 01:38:00,67.6,61.6,29.99,WNW,291,3.0,11.0,81,0.00,,---,0.00,0.00,VWS V14.00,2013-03-19 05:38:00,
2013-03-19 01:39:00,67.7,61.7,29.99,NW,318,5.0,11.0,81,0.00,,---,0.00,0.00,VWS V14.00,2013-03-19 05:39:00,
2013-03-19 01:40:00,67.7,61.7,29.99,NW,317,5.0,11.0,81,0.00,,---,0.00,0.00,VWS V14.00,2013-03-19 05:40:00,
2013-03-19 01:41:00,67.6,61.6,29.99,NW,319,8.0,11.0,81,0.00,,---,0.00,0.00,VWS V14.00,2013-03-19 05:41:00,
2013-03-19 01:42:00,67.6,61.6,29.99,NW,316,9.0,11.0,81,0.00,,---,0.00,0.00,VWS V14.00,2013-03-19 05:42:00,
2013-03-19 01:43:00,67.7,61.7,29.99,WNW,287,11.0,11.0,81,0.00,,---,0.00,0.00,VWS V14.00,2013-03-19 05:43:00,
2013-03-19 01:44:00,67.6,61.6,29.99,North,355,14.0,19.0,81,0.00,,---,0.00,0.00,VWS V14.00,2013-03-19 05:44:00,
2013-03-19 01:45:00,67.5,61.1,29.99,NNW,347,20.0,21.0,80,0.00,,---,0.00,0.00,VWS V14.00,2013-03-19 05:45:00,
2013-03-19 01:46:00,67.4,60.0,29.99,North,349,13.0,21.0,77,0.00,,---,0.00,0.00,VWS V14.00,2013-03-19 05:46:00,
2013-03-19 01:47:00,67.3,59.5,29.99,NNW,345,17.0,21.0,76,0.00,,---,0.00,0.00,VWS V14.00,2013-03-19 05:47:00,
2013-03-19 01:48:00,67.1,58.5,29.99,NNW,347,17.0,25.0,74,0.00,,---,0.00,0.00,VWS V14.00,2013-03-19 05:48:00,
2013-03-19 01:49:00,67.0,58.5,29.99,North,349,17.0,25.0,74,0.00,,---,0.00,0.00,VWS V14.00,2013-03-19 05:49:00,
2013-03-19 01:50:00,66.8,57.9,29.99,North,359,18.0,25.0,73,0.00,,---,0.00,0.00,VWS V14.00,2013-03-19 05:50:00,
2013-03-19 01:51:00,66.8,57.9,29.99,NNW,343,16.0,25.0,73,0.00,,---,0.00,0.00,VWS V14.00,2013-03-19 05:51:00,
2013-03-19 01:52:00,66.7,57.8,29.99,NNW,333,28.0,28.0,73,0.00,,---,0.00,0.00,VWS V14.00,2013-03-19 05:52:00,
2013-03-19 01:53:00,66.5,57.6,29.99,North,2,22.0,28.0,73,0.00,,---,0.00,0.00,VWS V14.00,2013-03-19 05:53:00,
2013-03-19 01:54:00,66.5,57.2,29.99,North,1,16.0,28.0,72,0.00,,---,0.00,0.00,VWS V14.00,2013-03-19 05:54:00,
2013-03-19 01:55:00,66.4,57.1,29.99,NNW,344,14.0,28.0,72,0.00,,---,0.00,0.00,VWS V14.00,2013-03-19 05:55:00,
2013-03-19 01:56:00,66.3,57.0,29.99,North,358,19.0,28.0,72,0.00,,---,0.00,0.00,VWS V14.00,2013-03-19 05:56:00,
2013-03-19 01:57:00,66.2,56.5,29.99,NNW,338,15.0,28.0,71,0.00,,---,0.00,0.00,VWS V14.00,2013-03-19 05:57:00,
2013-03-19 01:58:00,66.2,56.9,29.99,NNW,334,10.0,28.0,72,0.00,,---,0.00,0.00,VWS V14.00,2013-03-19 05:58:00,
2013-03-19 01:59:00,66.1,56.8,29.99,NNW,337,17.0,28.0,72,0.00,,---,0.00,0.00,VWS V14.00,2013-03-19 05:59:00,
2013-03-19 02:00:00,66.0,56.3,29.99,NNW,335,15.0,28.0,71,0.00,,---,0.00,0.00,VWS V14.00,2013-03-19 06:00:00,
2013-03-19 02:01:00,66.0,56.7,29.99,NNW,341,11.0,17.0,72,0.00,,---,0.00,0.00,VWS V14.00,2013-03-19 06:01:00,
2013-03-19 02:02:00,65.9,57.0,29.99,NNW,343,13.0,17.0,73,0.00,,---,0.00,0.00,VWS V14.00,2013-03-19 06:02:00,
2013-03-19 02:03:00,65.9,56.6,29.99,North,358,9.0,17.0,72,0.00,,---,0.00,0.00,VWS V14.00,2013-03-19 06:03:00,
2013-03-19 02:04:00,65.8,56.9,29.99,North,353,8.0,17.0,73,0.00,,---,0.00,0.00,VWS V14.00,2013-03-19 06:04:00,
2013-03-19 02:05:00,65.8,56.9,29.99,NNW,347,9.0,17.0,73,0.00,,---,0.00,0.00,VWS V14.00,2013-03-19 06:05:00,
2013-03-19 02:06:00,65.7,56.8,29.99,NNW,337,12.0,17.0,73,0.00,,---,0.00,0.00,VWS V14.00,2013-03-19 06:06:00,
2013-03-19 02:07:00,65.7,56.4,29.99,NNW,348,17.0,17.0,72,0.00,,---,0.00,0.00,VWS V14.00,2013-03-19 06:07:00,
2013-03-19 02:08:00,65.6,56.0,29.99,NNW,328,11.0,17.0,71,0.00,,---,0.00,0.00,VWS V14.00,2013-03-19 06:08:00,
2013-03-19 02:09:00,65.6,56.3,29.99,NNW,334,12.0,17.0,72,0.00,,---,0.00,0.00,VWS V14.00,2013-03-19 06:09:00,
2013-03-19 02:10:00,65.6,56.3,29.99,NNW,332,12.0,17.0,72,0.00,,---,0.00,0.00,VWS V14.00,2013-03-19 06:10:00,
2013-03-19 02:11:00,65.5,56.2,29.99,NNW,338,13.0,17.0,72,0.00,,---,0.00,0.00,VWS V14.00,2013-03-19 06:11:00,
2013-03-19 02:12:00,65.5,56.2,29.99,NNW,332,9.0,17.0,72,0.00,,---,0.00,0.00,VWS V14.00,2013-03-19 06:12:00,
2013-03-19 02:13:00,65.4,56.2,29.99,NNW,345,14.0,17.0,72,0.00,,---,0.00,0.00,VWS V14.00,2013-03-19 06:13:00,
2013-03-19 02:14:00,65.4,56.2,29.99,NNW,343,13.0,18.0,72,0.00,,---,0.00,0.00,VWS V14.00,2013-03-19 06:14:00,
2013-03-19 02:15:00,65.4,56.2,29.99,NNW,342,8.0,18.0,72,0.00,,---,0.00,0.00,VWS V14.00,2013-03-19 06:15:00,
2013-03-19 02:16:00,65.4,56.2,29.99,NNW,343,10.0,18.0,72,0.00,,---,0.00,0.00,VWS V14.00,2013-03-19 06:16:00,
2013-03-19 02:17:00,65.4,56.2,29.99,NNW,337,10.0,18.0,72,0.00,,---,0.00,0.00,VWS V14.00,2013-03-19 06:17:00,
2013-03-19 02:18:00,65.4,56.2,29.99,NNW,332,10.0,18.0,72,0.00,,---,0.00,0.00,VWS V14.00,2013-03-19 06:18:00,
2013-03-19 02:19:00,65.3,56.0,29.99,NNW,339,6.0,18.0,72,0.00,,---,0.00,0.00,VWS V14.00,2013-03-19 06:19:00,
2013-03-19 02:20:00,65.3,56.0,29.99,NNW,341,10.0,18.0,72,0.00,,---,0.00,0.00,VWS V14.00,2013-03-19 06:20:00,
2013-03-19 02:21:00,65.3,56.0,29.99,NW,318,12.0,18.0,72,0.00,,---,0.00,0.00,VWS V14.00,2013-03-19 06:21:00,
2013-03-19 02:22:00,65.3,56.0,29.98,NW,318,12.0,18.0,72,0.00,,---,0.00,0.00,VWS V14.00,2013-03-19 06:22:00,
2013-03-19 02:23:00,65.2,56.0,29.98,North,351,8.0,18.0,72,0.00,,---,0.00,0.00,VWS V14.00,2013-03-19 06:23:00,
2013-03-19 02:24:00,65.2,56.0,29.99,NNE,16,10.0,18.0,72,0.00,,---,0.00,0.00,VWS V14.00,2013-03-19 06:24:00,
2013-03-19 02:25:00,65.2,56.0,29.98,North,2,10.0,18.0,72,0.00,,---,0.00,0.00,VWS V14.00,2013-03-19 06:25:00,
2013-03-19 02:26:00,65.2,56.3,29.98,North,353,8.0,18.0,73,0.00,,---,0.00,0.00,VWS V14.00,2013-03-19 06:26:00,
2013-03-19 02:27:00,65.1,56.2,29.98,North,351,7.0,18.0,73,0.00,,---,0.00,0.00,VWS V14.00,2013-03-19 06:27:00,
2013-03-19 02:28:00,65.1,55.9,29.98,North,354,9.0,18.0,72,0.00,,---,0.00,0.00,VWS V14.00,2013-03-19 06:28:00,
2013-03-19 02:29:00,65.0,55.8,29.98,North,350,7.0,18.0,72,0.00,,---,0.00,0.00,VWS V14.00,2013-03-19 06:29:00,
2013-03-19 02:30:00,65.0,55.8,29.98,NNW,347,6.0,18.0,72,0.00,,---,0.00,0.00,VWS V14.00,2013-03-19 06:30:00,
2013-03-19 02:31:00,65.0,56.2,29.98,NNW,339,7.0,10.0,73,0.00,,---,0.00,0.00,VWS V14.00,2013-03-19 06:31:00,
2013-03-19 02:32:00,65.0,56.2,29.98,NNW,343,7.0,10.0,73,0.00,,---,0.00,0.00,VWS V14.00,2013-03-19 06:32:00,
2013-03-19 02:33:00,65.0,56.2,29.98,NNW,347,6.0,10.0,73,0.00,,---,0.00,0.00,VWS V14.00,2013-03-19 06:33:00,
2013-03-19 02:34:00,65.0,56.2,29.98,NNW,345,7.0,10.0,73,0.00,,---,0.00,0.00,VWS V14.00,2013-03-19 06:34:00,
2013-03-19 02:35:00,65.0,56.2,29.98,NNW,343,7.0,10.0,73,0.00,,---,0.00,0.00,VWS V14.00,2013-03-19 06:35:00,
2013-03-19 02:36:00,64.9,56.0,29.98,NNE,19,7.0,10.0,73,0.00,,---,0.00,0.00,VWS V14.00,2013-03-19 06:36:00,
2013-03-19 02:37:00,64.9,56.0,29.98,North,353,5.0,10.0,73,0.00,,---,0.00,0.00,VWS V14.00,2013-03-19 06:37:00,
2013-03-19 02:38:00,64.9,56.0,29.98,North,354,6.0,10.0,73,0.00,,---,0.00,0.00,VWS V14.00,2013-03-19 06:38:00,
2013-03-19 02:39:00,64.8,56.0,29.98,NNW,347,7.0,10.0,73,0.00,,---,0.00,0.00,VWS V14.00,2013-03-19 06:39:00,
2013-03-19 02:40:00,64.8,55.6,29.98,NNW,345,5.0,10.0,72,0.00,,---,0.00,0.00,VWS V14.00,2013-03-19 06:40:00,
2013-03-19 02:41:00,64.8,56.0,29.98,North,359,6.0,10.0,73,0.00,,---,0.00,0.00,VWS V14.00,2013-03-19 06:41:00,
2013-03-19 02:42:00,64.8,56.0,29.98,NNE,23,6.0,10.0,73,0.00,,---,0.00,0.00,VWS V14.00,2013-03-19 06:42:00,
2013-03-19 02:43:00,64.7,55.9,29.98,NNE,22,5.0,10.0,73,0.00,,---,0.00,0.00,VWS V14.00,2013-03-19 06:43:00,
2013-03-19 02:44:00,64.7,55.9,29.98,NNE,21,4.0,10.0,73,0.00,,---,0.00,0.00,VWS V14.00,2013-03-19 06:44:00,
2013-03-19 02:45:00,64.7,55.5,29.98,NNE,21,5.0,10.0,72,0.00,,---,0.00,0.00,VWS V14.00,2013-03-19 06:45:00,
2013-03-19 02:46:00,64.7,55.9,29.98,NNE,21,2.0,10.0,73,0.00,,---,0.00,0.00,VWS V14.00,2013-03-19 06:46:00,
2013-03-19 02:47:00,64.7,55.9,29.98,NNE,21,3.0,10.0,73,0.00,,---,0.00,0.00,VWS V14.00,2013-03-19 06:47:00,
2013-03-19 02:48:00,64.7,55.9,29.98,NNE,21,1.0,10.0,73,0.00,,---,0.00,0.00,VWS V14.00,2013-03-19 06:48:00,
2013-03-19 02:49:00,64.7,55.9,29.98,NNE,21,3.0,10.0,73,0.00,,---,0.00,0.00,VWS V14.00,2013-03-19 06:49:00,
2013-03-19 02:50:00,64.6,55.8,29.98,NNE,21,2.0,10.0,73,0.00,,---,0.00,0.00,VWS V14.00,2013-03-19 06:50:00,
2013-03-19 02:51:00,64.6,55.8,29.98,NNE,21,2.0,10.0,73,0.00,,---,0.00,0.00,VWS V14.00,2013-03-19 06:51:00,
2013-03-19 02:52:00,64.6,55.8,29.98,NNE,21,2.0,10.0,73,0.00,,---,0.00,0.00,VWS V14.00,2013-03-19 06:52:00,
2013-03-19 02:53:00,64.6,55.8,29.98,NNE,21,2.0,10.0,73,0.00,,---,0.00,0.00,VWS V14.00,2013-03-19 06:53:00,
2013-03-19 02:54:00,64.6,55.8,29.97,NNE,21,1.0,10.0,73,0.00,,---,0.00,0.00,VWS V14.00,2013-03-19 06:54:00,
2013-03-19 02:55:00,64.6,55.8,29.97,NNE,21,3.0,10.0,73,0.00,,---,0.00,0.00,VWS V14.00,2013-03-19 06:55:00,
2013-03-19 02:56:00,64.6,56.1,29.97,NNE,21,3.0,10.0,74,0.00,,---,0.00,0.00,VWS V14.00,2013-03-19 06:56:00,
2013-03-19 02:57:00,64.5,56.0,29.97,NNE,21,1.0,10.0,74,0.00,,---,0.00,0.00,VWS V14.00,2013-03-19 06:57:00,
2013-03-19 02:58:00,64.5,56.0,29.97,NNE,21,2.0,10.0,74,0.00,,---,0.00,0.00,VWS V14.00,2013-03-19 06:58:00,
2013-03-19 02:59:00,64.5,56.0,29.97,NNE,21,0.0,10.0,74,0.00,,---,0.00,0.00,VWS V14.00,2013-03-19 06:59:00,
2013-03-19 03:00:00,64.5,56.0,29.97,NNE,21,0.0,10.0,74,0.00,,---,0.00,0.00,VWS V14.00,2013-03-19 07:00:00,
2013-03-19 03:01:00,64.5,56.0,29.97,NNE,21,2.0,2.0,74,0.00,,---,0.00,0.00,VWS V14.00,2013-03-19 07:01:00,
2013-03-19 03:02:00,64.5,56.0,29.97,NNE,21,3.0,4.0,74,0.00,,---,0.00,0.00,VWS V14.00,2013-03-19 07:02:00,
2013-03-19 03:03:00,64.5,56.0,29.97,NNE,21,2.0,4.0,74,0.00,,---,0.00,0.00,VWS V14.00,2013-03-19 07:03:00,
2013-03-19 03:04:00,64.5,56.0,29.97,NNE,22,4.0,4.0,74,0.00,,---,0.00,0.00,VWS V14.00,2013-03-19 07:04:00,
2013-03-19 03:05:00,64.5,56.4,29.97,NNE,22,3.0,4.0,75,0.00,,---,0.00,0.00,VWS V14.00,2013-03-19 07:05:00,
2013-03-19 03:06:00,64.5,56.0,29.97,NE,34,3.0,4.0,74,0.00,,---,0.00,0.00,VWS V14.00,2013-03-19 07:06:00,
2013-03-19 03:07:00,64.4,55.9,29.96,ENE,60,4.0,4.0,74,0.00,,---,0.00,0.00,VWS V14.00,2013-03-19 07:07:00,
2013-03-19 03:08:00,64.4,55.9,29.96,ENE,60,4.0,4.0,74,0.00,,---,0.00,0.00,VWS V14.00,2013-03-19 07:08:00,
2013-03-19 03:09:00,64.4,56.3,29.96,ENE,78,5.0,5.0,75,0.00,,---,0.00,0.00,VWS V14.00,2013-03-19 07:09:00,
2013-03-19 03:10:00,64.4,56.3,29.96,East,79,3.0,5.0,75,0.00,,---,0.00,0.00,VWS V14.00,2013-03-19 07:10:00,
2013-03-19 03:11:00,64.4,55.9,29.96,East,79,1.0,5.0,74,0.00,,---,0.00,0.00,VWS V14.00,2013-03-19 07:11:00,
2013-03-19 03:12:00,64.4,56.3,29.96,East,79,2.0,5.0,75,0.00,,---,0.00,0.00,VWS V14.00,2013-03-19 07:12:00,
2013-03-19 03:13:00,64.4,55.9,29.96,East,79,2.0,5.0,74,0.00,,---,0.00,0.00,VWS V14.00,2013-03-19 07:13:00,
2013-03-19 03:14:00,64.4,56.3,29.96,East,79,1.0,5.0,75,0.00,,---,0.00,0.00,VWS V14.00,2013-03-19 07:14:00,
2013-03-19 03:15:00,64.4,56.3,29.97,East,79,0.0,5.0,75,0.00,,---,0.00,0.00,VWS V14.00,2013-03-19 07:15:00,
2013-03-19 03:16:00,64.4,56.3,29.97,East,79,1.0,5.0,75,0.00,,---,0.00,0.00,VWS V14.00,2013-03-19 07:16:00,
2013-03-19 03:17:00,64.4,56.3,29.96,East,79,2.0,5.0,75,0.00,,---,0.00,0.00,VWS V14.00,2013-03-19 07:17:00,
2013-03-19 03:18:00,64.4,56.3,29.96,East,79,2.0,5.0,75,0.00,,---,0.00,0.00,VWS V14.00,2013-03-19 07:18:00,
2013-03-19 03:19:00,64.4,56.3,29.96,East,79,1.0,5.0,75,0.00,,---,0.00,0.00,VWS V14.00,2013-03-19 07:19:00,
2013-03-19 03:20:00,64.4,56.3,29.96,East,79,2.0,5.0,75,0.00,,---,0.00,0.00,VWS V14.00,2013-03-19 07:20:00,
2013-03-19 03:21:00,64.4,55.9,29.96,East,79,2.0,5.0,74,0.00,,---,0.00,0.00,VWS V14.00,2013-03-19 07:21:00,
2013-03-19 03:22:00,64.3,55.8,29.96,East,79,1.0,5.0,74,0.00,,---,0.00,0.00,VWS V14.00,2013-03-19 07:22:00,
2013-03-19 03:23:00,64.3,55.8,29.97,East,79,0.0,5.0,74,0.00,,---,0.00,0.00,VWS V14.00,2013-03-19 07:23:00,
2013-03-19 03:24:00,64.3,55.8,29.97,East,79,0.0,5.0,74,0.00,,---,0.00,0.00,VWS V14.00,2013-03-19 07:24:00,
2013-03-19 03:25:00,64.3,55.8,29.97,East,79,0.0,5.0,74,0.00,,---,0.00,0.00,VWS V14.00,2013-03-19 07:25:00,
2013-03-19 03:26:00,64.4,55.9,29.97,East,79,0.0,5.0,74,0.00,,---,0.00,0.00,VWS V14.00,2013-03-19 07:26:00,
2013-03-19 03:27:00,64.4,56.3,29.97,East,79,1.0,5.0,75,0.00,,---,0.00,0.00,VWS V14.00,2013-03-19 07:27:00,
2013-03-19 03:28:00,64.3,55.8,29.97,East,79,0.0,5.0,74,0.00,,---,0.00,0.00,VWS V14.00,2013-03-19 07:28:00,
2013-03-19 03:29:00,64.3,56.2,29.97,East,79,2.0,5.0,75,0.00,,---,0.00,0.00,VWS V14.00,2013-03-19 07:29:00,
2013-03-19 03:30:00,64.3,55.8,29.97,East,79,3.0,5.0,74,0.00,,---,0.00,0.00,VWS V14.00,2013-03-19 07:30:00,
2013-03-19 03:31:00,64.3,55.8,29.97,ENE,78,3.0,4.0,74,0.00,,---,0.00,0.00,VWS V14.00,2013-03-19 07:31:00,
2013-03-19 03:32:00,64.3,55.8,29.97,ENE,78,2.0,4.0,74,0.00,,---,0.00,0.00,VWS V14.00,2013-03-19 07:32:00,
2013-03-19 03:33:00,64.3,55.8,29.97,ENE,78,1.0,4.0,74,0.00,,---,0.00,0.00,VWS V14.00,2013-03-19 07:33:00,
2013-03-19 03:34:00,64.3,55.8,29.96,ENE,78,1.0,4.0,74,0.00,,---,0.00,0.00,VWS V14.00,2013-03-19 07:34:00,
2013-03-19 03:35:00,64.3,55.8,29.96,ENE,78,3.0,4.0,74,0.00,,---,0.00,0.00,VWS V14.00,2013-03-19 07:35:00,
2013-03-19 03:36:00,64.3,55.8,29.96,ENE,78,3.0,4.0,74,0.00,,---,0.00,0.00,VWS V14.00,2013-03-19 07:36:00,
2013-03-19 03:37:00,64.3,55.8,29.96,ENE,77,3.0,4.0,74,0.00,,---,0.00,0.00,VWS V14.00,2013-03-19 07:37:00,
2013-03-19 03:38:00,64.3,55.8,29.96,ENE,78,3.0,4.0,74,0.00,,---,0.00,0.00,VWS V14.00,2013-03-19 07:38:00,
2013-03-19 03:39:00,64.3,56.2,29.96,ENE,77,3.0,4.0,75,0.00,,---,0.00,0.00,VWS V14.00,2013-03-19 07:39:00,
2013-03-19 03:40:00,64.3,56.2,29.96,ENE,78,3.0,4.0,75,0.00,,---,0.00,0.00,VWS V14.00,2013-03-19 07:40:00,
2013-03-19 03:41:00,64.3,56.6,29.96,ENE,78,1.0,4.0,76,0.00,,---,0.00,0.00,VWS V14.00,2013-03-19 07:41:00,
2013-03-19 03:42:00,64.3,56.6,29.96,ENE,77,2.0,4.0,76,0.00,,---,0.00,0.00,VWS V14.00,2013-03-19 07:42:00,
2013-03-19 03:43:00,64.3,56.2,29.96,ENE,78,1.0,4.0,75,0.00,,---,0.00,0.00,VWS V14.00,2013-03-19 07:43:00,
2013-03-19 03:44:00,64.3,56.2,29.96,ENE,78,1.0,4.0,75,0.00,,---,0.00,0.00,VWS V14.00,2013-03-19 07:44:00,
2013-03-19 03:45:00,64.3,56.2,29.96,ENE,78,1.0,4.0,75,0.00,,---,0.00,0.00,VWS V14.00,2013-03-19 07:45:00,
2013-03-19 03:46:00,64.3,56.2,29.95,ENE,78,0.0,4.0,75,0.00,,---,0.00,0.00,VWS V14.00,2013-03-19 07:46:00,
2013-03-19 03:47:00,64.3,55.8,29.96,ENE,78,0.0,4.0,74,0.00,,---,0.00,0.00,VWS V14.00,2013-03-19 07:47:00,
2013-03-19 03:48:00,64.2,55.8,29.95,ENE,78,0.0,4.0,74,0.00,,---,0.00,0.00,VWS V14.00,2013-03-19 07:48:00,
2013-03-19 03:49:00,64.2,55.8,29.95,ENE,78,0.0,4.0,74,0.00,,---,0.00,0.00,VWS V14.00,2013-03-19 07:49:00,
2013-03-19 03:50:00,64.2,55.8,29.95,ENE,78,0.0,4.0,74,0.00,,---,0.00,0.00,VWS V14.00,2013-03-19 07:50:00,
2013-03-19 03:51:00,64.1,55.7,29.95,ENE,78,0.0,4.0,74,0.00,,---,0.00,0.00,VWS V14.00,2013-03-19 07:51:00,
2013-03-19 03:52:00,64.1,55.7,29.95,ENE,78,0.0,4.0,74,0.00,,---,0.00,0.00,VWS V14.00,2013-03-19 07:52:00,
2013-03-19 03:53:00,64.1,55.7,29.95,ENE,78,0.0,4.0,74,0.00,,---,0.00,0.00,VWS V14.00,2013-03-19 07:53:00,
2013-03-19 03:54:00,64.1,55.7,29.95,ENE,78,0.0,4.0,74,0.00,,---,0.00,0.00,VWS V14.00,2013-03-19 07:54:00,
2013-03-19 03:55:00,64.0,55.6,29.95,ENE,78,0.0,4.0,74,0.00,,---,0.00,0.00,VWS V14.00,2013-03-19 07:55:00,
2013-03-19 03:56:00,64.0,55.6,29.95,ENE,78,0.0,4.0,74,0.00,,---,0.00,0.00,VWS V14.00,2013-03-19 07:56:00,
2013-03-19 03:57:00,64.0,55.6,29.95,ENE,78,0.0,4.0,74,0.00,,---,0.00,0.00,VWS V14.00,2013-03-19 07:57:00,
2013-03-19 03:58:00,64.0,55.9,29.95,ENE,78,0.0,4.0,75,0.00,,---,0.00,0.00,VWS V14.00,2013-03-19 07:58:00,
2013-03-19 03:59:00,64.0,55.9,29.95,ENE,78,0.0,4.0,75,0.00,,---,0.00,0.00,VWS V14.00,2013-03-19 07:59:00,
2013-03-19 04:00:00,63.9,55.8,29.95,ENE,78,0.0,4.0,75,0.00,,---,0.00,0.00,VWS V14.00,2013-03-19 08:00:00,
2013-03-19 04:01:00,63.9,56.2,29.95,ENE,78,0.0,0.0,76,0.00,,---,0.00,0.00,VWS V14.00,2013-03-19 08:01:00,
2013-03-19 04:02:00,63.9,56.2,29.95,ENE,78,0.0,0.0,76,0.00,,---,0.00,0.00,VWS V14.00,2013-03-19 08:02:00,
2013-03-19 04:03:00,63.9,56.2,29.95,ENE,78,0.0,0.0,76,0.00,,---,0.00,0.00,VWS V14.00,2013-03-19 08:03:00,
2013-03-19 04:04:00,63.8,56.1,29.94,ENE,78,0.0,0.0,76,0.00,,---,0.00,0.00,VWS V14.00,2013-03-19 08:04:00,
2013-03-19 04:05:00,63.8,56.1,29.94,ENE,78,0.0,0.0,76,0.00,,---,0.00,0.00,VWS V14.00,2013-03-19 08:05:00,
2013-03-19 04:06:00,63.7,55.6,29.94,ENE,78,0.0,0.0,75,0.00,,---,0.00,0.00,VWS V14.00,2013-03-19 08:06:00,
2013-03-19 04:07:00,63.6,55.5,29.94,ENE,78,0.0,0.0,75,0.00,,---,0.00,0.00,VWS V14.00,2013-03-19 08:07:00,
2013-03-19 04:08:00,63.6,55.5,29.94,ENE,78,0.0,0.0,75,0.00,,---,0.00,0.00,VWS V14.00,2013-03-19 08:08:00,
2013-03-19 04:09:00,63.6,55.5,29.94,ENE,78,0.0,0.0,75,0.00,,---,0.00,0.00,VWS V14.00,2013-03-19 08:09:00,
2013-03-19 04:10:00,63.6,55.5,29.94,ENE,78,0.0,0.0,75,0.00,,---,0.00,0.00,VWS V14.00,2013-03-19 08:10:00,
2013-03-19 04:11:00,63.5,55.4,29.94,ENE,78,0.0,0.0,75,0.00,,---,0.00,0.00,VWS V14.00,2013-03-19 08:11:00,
2013-03-19 04:12:00,63.5,55.4,29.94,ENE,78,0.0,0.0,75,0.00,,---,0.00,0.00,VWS V14.00,2013-03-19 08:12:00,
2013-03-19 04:13:00,63.4,55.3,29.94,ENE,78,0.0,0.0,75,0.00,,---,0.00,0.00,VWS V14.00,2013-03-19 08:13:00,
2013-03-19 04:14:00,63.4,55.3,29.93,ENE,78,0.0,0.0,75,0.00,,---,0.00,0.00,VWS V14.00,2013-03-19 08:14:00,
2013-03-19 04:15:00,63.4,55.3,29.93,ENE,78,0.0,0.0,75,0.00,,---,0.00,0.00,VWS V14.00,2013-03-19 08:15:00,
2013-03-19 04:16:00,63.3,55.2,29.93,ENE,78,0.0,0.0,75,0.00,,---,0.00,0.00,VWS V14.00,2013-03-19 08:16:00,
2013-03-19 04:17:00,63.3,55.2,29.93,ENE,78,0.0,0.0,75,0.00,,---,0.00,0.00,VWS V14.00,2013-03-19 08:17:00,
2013-03-19 04:18:00,63.2,55.5,29.92,ENE,78,0.0,0.0,76,0.00,,---,0.00,0.00,VWS V14.00,2013-03-19 08:18:00,
2013-03-19 04:19:00,63.2,55.5,29.92,ENE,78,0.0,0.0,76,0.00,,---,0.00,0.00,VWS V14.00,2013-03-19 08:19:00,
2013-03-19 04:20:00,63.2,55.5,29.92,ENE,78,0.0,0.0,76,0.00,,---,0.00,0.00,VWS V14.00,2013-03-19 08:20:00,
2013-03-19 04:21:00,63.1,55.4,29.92,ENE,78,0.0,0.0,76,0.00,,---,0.00,0.00,VWS V14.00,2013-03-19 08:21:00,
2013-03-19 04:22:00,63.1,55.4,29.92,ENE,78,0.0,0.0,76,0.00,,---,0.00,0.00,VWS V14.00,2013-03-19 08:22:00,
2013-03-19 04:23:00,63.1,55.4,29.92,ENE,78,0.0,0.0,76,0.00,,---,0.00,0.00,VWS V14.00,2013-03-19 08:23:00,
2013-03-19 04:24:00,63.0,55.3,29.92,ENE,78,0.0,0.0,76,0.00,,---,0.00,0.00,VWS V14.00,2013-03-19 08:24:00,
2013-03-19 04:25:00,63.0,55.3,29.92,ENE,78,0.0,0.0,76,0.00,,---,0.00,0.00,VWS V14.00,2013-03-19 08:25:00,
2013-03-19 04:26:00,63.0,55.3,29.92,ENE,78,0.0,0.0,76,0.00,,---,0.00,0.00,VWS V14.00,2013-03-19 08:26:00,
2013-03-19 04:27:00,62.9,55.6,29.92,ENE,78,0.0,0.0,77,0.00,,---,0.00,0.00,VWS V14.00,2013-03-19 08:27:00,
2013-03-19 04:28:00,62.9,55.2,29.92,ENE,78,2.0,2.0,76,0.00,,---,0.00,0.00,VWS V14.00,2013-03-19 08:28:00,
2013-03-19 04:29:00,62.9,55.6,29.89,East,86,7.0,7.0,77,0.00,,---,0.00,0.00,VWS V14.00,2013-03-19 08:29:00,
2013-03-19 04:30:00,62.9,55.6,29.88,East,98,9.0,9.0,77,0.00,,---,0.00,0.00,VWS V14.00,2013-03-19 08:30:00,
2013-03-19 04:31:00,62.9,55.9,29.88,ESE,102,10.0,10.0,78,0.00,,---,0.00,0.00,VWS V14.00,2013-03-19 08:31:00,
2013-03-19 04:32:00,62.9,56.3,29.88,ESE,118,8.0,10.0,79,0.00,,---,0.00,0.00,VWS V14.00,2013-03-19 08:32:00,
2013-03-19 04:33:00,62.9,56.3,29.89,SE,128,5.0,10.0,79,0.00,,---,0.00,0.00,VWS V14.00,2013-03-19 08:33:00,
2013-03-19 04:34:00,62.9,55.9,29.90,SSE,154,0.0,10.0,78,0.00,,---,0.00,0.00,VWS V14.00,2013-03-19 08:34:00,
2013-03-19 04:35:00,62.9,55.9,29.90,SSE,154,1.0,10.0,78,0.00,,---,0.00,0.00,VWS V14.00,2013-03-19 08:35:00,
2013-03-19 04:36:00,62.9,55.6,29.90,South,170,2.0,10.0,77,0.00,,---,0.00,0.00,VWS V14.00,2013-03-19 08:36:00,
2013-03-19 04:37:00,62.9,55.6,29.90,South,170,4.0,10.0,77,0.00,,---,0.00,0.00,VWS V14.00,2013-03-19 08:37:00,
2013-03-19 04:38:00,62.9,55.6,29.90,South,169,5.0,10.0,77,0.00,,---,0.00,0.00,VWS V14.00,2013-03-19 08:38:00,
2013-03-19 04:39:00,63.0,55.3,29.90,SSE,168,2.0,10.0,76,0.00,,---,0.00,0.00,VWS V14.00,2013-03-19 08:39:00,
2013-03-19 04:40:00,63.0,55.3,29.90,SSE,168,3.0,10.0,76,0.00,,---,0.00,0.00,VWS V14.00,2013-03-19 08:40:00,
2013-03-19 04:41:00,63.0,55.3,29.90,SSE,168,4.0,10.0,76,0.00,,---,0.00,0.00,VWS V14.00,2013-03-19 08:41:00,
2013-03-19 04:42:00,63.1,55.4,29.90,SSE,167,5.0,10.0,76,0.00,,---,0.00,0.00,VWS V14.00,2013-03-19 08:42:00,
2013-03-19 04:43:00,63.1,55.4,29.89,SSE,166,3.0,10.0,76,0.00,,---,0.00,0.00,VWS V14.00,2013-03-19 08:43:00,
2013-03-19 04:44:00,63.1,55.4,29.90,SSE,166,4.0,10.0,76,0.00,,---,0.00,0.00,VWS V14.00,2013-03-19 08:44:00,
2013-03-19 04:45:00,63.1,55.4,29.90,SSE,166,1.0,10.0,76,0.00,,---,0.00,0.00,VWS V14.00,2013-03-19 08:45:00,
2013-03-19 04:46:00,63.1,55.4,29.90,SSE,164,0.0,10.0,76,0.00,,---,0.00,0.00,VWS V14.00,2013-03-19 08:46:00,
2013-03-19 04:47:00,63.1,55.4,29.90,SSE,164,0.0,10.0,76,0.00,,---,0.00,0.00,VWS V14.00,2013-03-19 08:47:00,
2013-03-19 04:48:00,63.1,55.4,29.90,SSE,164,4.0,10.0,76,0.00,,---,0.00,0.00,VWS V14.00,2013-03-19 08:48:00,
2013-03-19 04:49:00,63.2,55.5,29.90,SSE,161,3.0,10.0,76,0.00,,---,0.00,0.00,VWS V14.00,2013-03-19 08:49:00,
2013-03-19 04:50:00,63.2,55.5,29.90,SSE,155,5.0,10.0,76,0.00,,---,0.00,0.00,VWS V14.00,2013-03-19 08:50:00,
2013-03-19 04:51:00,63.2,55.5,29.89,SSE,155,4.0,10.0,76,0.00,,---,0.00,0.00,VWS V14.00,2013-03-19 08:51:00,
2013-03-19 04:52:00,63.2,55.5,29.89,SSE,155,3.0,10.0,76,0.00,,---,0.00,0.00,VWS V14.00,2013-03-19 08:52:00,
2013-03-19 04:53:00,63.2,55.5,29.89,SSE,155,3.0,10.0,76,0.00,,---,0.00,0.00,VWS V14.00,2013-03-19 08:53:00,
2013-03-19 04:54:00,63.2,55.5,29.90,SSE,155,3.0,10.0,76,0.00,,---,0.00,0.00,VWS V14.00,2013-03-19 08:54:00,
2013-03-19 04:55:00,63.2,55.5,29.89,SSE,155,3.0,10.0,76,0.00,,---,0.00,0.00,VWS V14.00,2013-03-19 08:55:00,
2013-03-19 04:56:00,63.2,55.5,29.89,SSE,155,2.0,10.0,76,0.00,,---,0.00,0.00,VWS V14.00,2013-03-19 08:56:00,
2013-03-19 04:57:00,63.2,55.5,29.89,SSE,155,4.0,10.0,76,0.00,,---,0.00,0.00,VWS V14.00,2013-03-19 08:57:00,
2013-03-19 04:58:00,63.2,55.5,29.89,SSE,155,0.0,10.0,76,0.00,,---,0.00,0.00,VWS V14.00,2013-03-19 08:58:00,
2013-03-19 04:59:00,63.2,55.5,29.89,SSE,150,5.0,10.0,76,0.00,,---,0.00,0.00,VWS V14.00,2013-03-19 08:59:00,
2013-03-19 05:00:00,63.2,55.5,29.89,SSE,147,5.0,10.0,76,0.00,,---,0.00,0.00,VWS V14.00,2013-03-19 09:00:00,
2013-03-19 05:01:00,63.2,55.5,29.89,SE,139,6.0,7.0,76,0.00,,---,0.00,0.00,VWS V14.00,2013-03-19 09:01:00,
2013-03-19 05:02:00,63.2,55.5,29.89,SE,139,5.0,7.0,76,0.00,,---,0.00,0.00,VWS V14.00,2013-03-19 09:02:00,
2013-03-19 05:03:00,63.3,55.6,29.89,SE,139,0.0,7.0,76,0.00,,---,0.00,0.00,VWS V14.00,2013-03-19 09:03:00,
2013-03-19 05:04:00,63.3,55.6,29.89,SE,139,0.0,7.0,76,0.00,,---,0.00,0.00,VWS V14.00,2013-03-19 09:04:00,
2013-03-19 05:05:00,63.2,55.5,29.89,SE,139,3.0,7.0,76,0.00,,---,0.00,0.00,VWS V14.00,2013-03-19 09:05:00,
2013-03-19 05:06:00,63.2,55.5,29.89,SE,139,0.0,7.0,76,0.00,,---,0.00,0.00,VWS V14.00,2013-03-19 09:06:00,
2013-03-19 05:07:00,63.2,55.5,29.89,SE,139,4.0,7.0,76,0.00,,---,0.00,0.00,VWS V14.00,2013-03-19 09:07:00,
2013-03-19 05:08:00,63.3,55.6,29.88,ESE,118,6.0,7.0,76,0.00,,---,0.00,0.00,VWS V14.00,2013-03-19 09:08:00,
2013-03-19 05:09:00,63.3,55.6,29.88,SE,131,5.0,8.0,76,0.00,,---,0.00,0.00,VWS V14.00,2013-03-19 09:09:00,
2013-03-19 05:10:00,63.3,55.6,29.88,SE,130,4.0,8.0,76,0.00,,---,0.00,0.00,VWS V14.00,2013-03-19 09:10:00,
2013-03-19 05:11:00,63.3,55.6,29.88,SE,130,3.0,8.0,76,0.00,,---,0.00,0.00,VWS V14.00,2013-03-19 09:11:00,
2013-03-19 05:12:00,63.3,55.6,29.88,SW,235,4.0,8.0,76,0.00,,---,0.00,0.00,VWS V14.00,2013-03-19 09:12:00,
2013-03-19 05:13:00,63.3,55.6,29.89,SW,235,1.0,8.0,76,0.00,,---,0.00,0.00,VWS V14.00,2013-03-19 09:13:00,
2013-03-19 05:14:00,63.3,55.6,29.88,SW,231,3.0,8.0,76,0.00,,---,0.00,0.00,VWS V14.00,2013-03-19 09:14:00,
2013-03-19 05:15:00,63.3,55.6,29.88,SW,227,4.0,8.0,76,0.00,,---,0.00,0.00,VWS V14.00,2013-03-19 09:15:00,
2013-03-19 05:16:00,63.3,55.6,29.87,SSE,158,5.0,8.0,76,0.00,,---,0.00,0.00,VWS V14.00,2013-03-19 09:16:00,
2013-03-19 05:17:00,63.3,55.6,29.87,ESE,120,6.0,8.0,76,0.00,,---,0.00,0.00,VWS V14.00,2013-03-19 09:17:00,
2013-03-19 05:18:00,63.3,55.6,29.87,ESE,120,5.0,8.0,76,0.00,,---,0.00,0.00,VWS V14.00,2013-03-19 09:18:00,
2013-03-19 05:19:00,63.3,55.6,29.88,ESE,120,0.0,8.0,76,0.00,,---,0.00,0.00,VWS V14.00,2013-03-19 09:19:00,
2013-03-19 05:20:00,63.3,55.2,29.88,SE,142,3.0,8.0,75,0.00,,---,0.00,0.00,VWS V14.00,2013-03-19 09:20:00,
2013-03-19 05:21:00,63.3,55.6,29.88,SW,216,4.0,8.0,76,0.00,,---,0.00,0.00,VWS V14.00,2013-03-19 09:21:00,
2013-03-19 05:22:00,63.2,55.2,29.89,SW,216,0.0,8.0,75,0.00,,---,0.00,0.00,VWS V14.00,2013-03-19 09:22:00,
2013-03-19 05:23:00,63.3,55.2,29.89,SW,216,1.0,8.0,75,0.00,,---,0.00,0.00,VWS V14.00,2013-03-19 09:23:00,
2013-03-19 05:24:00,63.2,55.2,29.88,SW,216,0.0,8.0,75,0.00,,---,0.00,0.00,VWS V14.00,2013-03-19 09:24:00,
2013-03-19 05:25:00,63.2,55.2,29.88,SSE,168,2.0,8.0,75,0.00,,---,0.00,0.00,VWS V14.00,2013-03-19 09:25:00,
2013-03-19 05:26:00,63.2,55.2,29.88,SSE,168,6.0,8.0,75,0.00,,---,0.00,0.00,VWS V14.00,2013-03-19 09:26:00,
2013-03-19 05:27:00,63.2,55.2,29.88,SSE,168,3.0,8.0,75,0.00,,---,0.00,0.00,VWS V14.00,2013-03-19 09:27:00,
2013-03-19 05:28:00,63.2,55.2,29.88,SSE,168,0.0,8.0,75,0.00,,---,0.00,0.00,VWS V14.00,2013-03-19 09:28:00,
2013-03-19 05:29:00,63.2,55.2,29.88,SSE,168,0.0,8.0,75,0.00,,---,0.00,0.00,VWS V14.00,2013-03-19 09:29:00,
2013-03-19 05:30:00,63.2,55.2,29.88,SSE,168,1.0,8.0,75,0.00,,---,0.00,0.00,VWS V14.00,2013-03-19 09:30:00,
2013-03-19 05:31:00,63.2,55.2,29.89,SW,217,2.0,3.0,75,0.00,,---,0.00,0.00,VWS V14.00,2013-03-19 09:31:00,
2013-03-19 05:32:00,63.2,55.2,29.89,SW,217,1.0,3.0,75,0.00,,---,0.00,0.00,VWS V14.00,2013-03-19 09:32:00,
2013-03-19 05:33:00,63.2,55.2,29.88,SW,217,0.0,3.0,75,0.00,,---,0.00,0.00,VWS V14.00,2013-03-19 09:33:00,
2013-03-19 05:34:00,63.2,55.2,29.88,SW,216,4.0,4.0,75,0.00,,---,0.00,0.00,VWS V14.00,2013-03-19 09:34:00,
2013-03-19 05:35:00,63.2,55.2,29.88,South,185,3.0,5.0,75,0.00,,---,0.00,0.00,VWS V14.00,2013-03-19 09:35:00,
2013-03-19 05:36:00,63.2,55.2,29.88,South,185,0.0,5.0,75,0.00,,---,0.00,0.00,VWS V14.00,2013-03-19 09:36:00,
2013-03-19 05:37:00,63.1,55.1,29.88,South,185,1.0,5.0,75,0.00,,---,0.00,0.00,VWS V14.00,2013-03-19 09:37:00,
2013-03-19 05:38:00,63.1,55.1,29.89,SW,231,3.0,5.0,75,0.00,,---,0.00,0.00,VWS V14.00,2013-03-19 09:38:00,
2013-03-19 05:39:00,63.1,55.4,29.89,WSW,240,0.0,5.0,76,0.00,,---,0.00,0.00,VWS V14.00,2013-03-19 09:39:00,
2013-03-19 05:40:00,63.1,55.4,29.89,WSW,240,2.0,5.0,76,0.00,,---,0.00,0.00,VWS V14.00,2013-03-19 09:40:00,
2013-03-19 05:41:00,63.1,55.4,29.89,WSW,240,0.0,5.0,76,0.00,,---,0.00,0.00,VWS V14.00,2013-03-19 09:41:00,
2013-03-19 05:42:00,63.1,55.4,29.89,WSW,240,0.0,5.0,76,0.00,,---,0.00,0.00,VWS V14.00,2013-03-19 09:42:00,
2013-03-19 05:43:00,63.1,55.4,29.89,WSW,239,1.0,5.0,76,0.00,,---,0.00,0.00,VWS V14.00,2013-03-19 09:43:00,
2013-03-19 05:44:00,63.0,55.3,29.90,WSW,239,0.0,5.0,76,0.00,,---,0.00,0.00,VWS V14.00,2013-03-19 09:44:00,
2013-03-19 05:45:00,63.0,55.3,29.90,WSW,239,0.0,5.0,76,0.00,,---,0.00,0.00,VWS V14.00,2013-03-19 09:45:00,
2013-03-19 05:46:00,63.0,55.3,29.90,WSW,239,0.0,5.0,76,0.00,,---,0.00,0.00,VWS V14.00,2013-03-19 09:46:00,
2013-03-19 05:47:00,63.0,55.3,29.90,WSW,239,1.0,5.0,76,0.00,,---,0.00,0.00,VWS V14.00,2013-03-19 09:47:00,
2013-03-19 05:48:00,62.9,55.2,29.90,WSW,239,0.0,5.0,76,0.00,,---,0.00,0.00,VWS V14.00,2013-03-19 09:48:00,
2013-03-19 05:49:00,62.9,55.2,29.91,WSW,239,0.0,5.0,76,0.00,,---,0.00,0.00,VWS V14.00,2013-03-19 09:49:00,
2013-03-19 05:50:00,62.9,55.2,29.91,WSW,239,0.0,5.0,76,0.00,,---,0.00,0.00,VWS V14.00,2013-03-19 09:50:00,
2013-03-19 05:51:00,62.9,55.2,29.91,WSW,239,0.0,5.0,76,0.00,,---,0.00,0.00,VWS V14.00,2013-03-19 09:51:00,
2013-03-19 05:52:00,62.9,55.2,29.91,WSW,239,1.0,5.0,76,0.00,,---,0.00,0.00,VWS V14.00,2013-03-19 09:52:00,
2013-03-19 05:53:00,62.9,55.2,29.91,WSW,245,4.0,5.0,76,0.00,,---,0.00,0.00,VWS V14.00,2013-03-19 09:53:00,
2013-03-19 05:54:00,63.0,55.3,29.92,WSW,257,2.0,7.0,76,0.00,,---,0.00,0.00,VWS V14.00,2013-03-19 09:54:00,
2013-03-19 05:55:00,63.0,55.7,29.92,WSW,256,0.0,7.0,77,0.00,,---,0.00,0.00,VWS V14.00,2013-03-19 09:55:00,
2013-03-19 05:56:00,63.0,55.3,29.91,South,180,3.0,7.0,76,0.00,,---,0.00,0.00,VWS V14.00,2013-03-19 09:56:00,
2013-03-19 05:57:00,63.0,55.3,29.91,SE,136,4.0,7.0,76,0.00,,---,0.00,0.00,VWS V14.00,2013-03-19 09:57:00,
2013-03-19 05:58:00,63.0,55.3,29.92,WSW,258,4.0,7.0,76,0.00,,---,0.00,0.00,VWS V14.00,2013-03-19 09:58:00,
2013-03-19 05:59:00,63.0,55.3,29.92,West,272,11.0,13.0,76,0.00,,---,0.00,0.00,VWS V14.00,2013-03-19 09:59:00,
2013-03-19 06:00:00,63.1,55.4,29.92,West,265,7.0,13.0,76,0.00,,---,0.00,0.00,VWS V14.00,2013-03-19 10:00:00,
2013-03-19 06:01:00,63.1,55.4,29.92,West,263,0.0,7.0,76,0.00,,---,0.00,0.00,VWS V14.00,2013-03-19 10:01:00,
2013-03-19 06:02:00,63.1,55.4,29.92,SSE,149,2.0,7.0,76,0.00,,---,0.00,0.00,VWS V14.00,2013-03-19 10:02:00,
2013-03-19 06:03:00,63.1,55.4,29.91,SSE,149,3.0,7.0,76,0.00,,---,0.00,0.00,VWS V14.00,2013-03-19 10:03:00,
2013-03-19 06:04:00,63.1,55.4,29.91,SSE,149,3.0,7.0,76,0.00,,---,0.00,0.00,VWS V14.00,2013-03-19 10:04:00,
2013-03-19 06:05:00,63.1,55.4,29.92,WSW,242,3.0,7.0,76,0.00,,---,0.00,0.00,VWS V14.00,2013-03-19 10:05:00,
2013-03-19 06:06:00,63.1,55.4,29.92,WSW,242,4.0,7.0,76,0.00,,---,0.00,0.00,VWS V14.00,2013-03-19 10:06:00,
2013-03-19 06:07:00,63.2,55.5,29.92,WSW,255,3.0,7.0,76,0.00,,---,0.00,0.00,VWS V14.00,2013-03-19 10:07:00,
2013-03-19 06:08:00,63.1,55.4,29.92,WSW,255,1.0,7.0,76,0.00,,---,0.00,0.00,VWS V14.00,2013-03-19 10:08:00,
2013-03-19 06:09:00,63.2,55.5,29.92,WSW,255,0.0,7.0,76,0.00,,---,0.00,0.00,VWS V14.00,2013-03-19 10:09:00,
2013-03-19 06:10:00,63.1,55.4,29.92,WSW,255,0.0,7.0,76,0.00,,---,0.00,0.00,VWS V14.00,2013-03-19 10:10:00,
2013-03-19 06:11:00,63.1,55.4,29.92,WSW,255,2.0,7.0,76,0.00,,---,0.00,0.00,VWS V14.00,2013-03-19 10:11:00,
2013-03-19 06:12:00,63.1,55.4,29.93,WSW,255,3.0,7.0,76,0.00,,---,0.00,0.00,VWS V14.00,2013-03-19 10:12:00,
2013-03-19 06:13:00,63.1,55.4,29.93,WSW,255,3.0,7.0,76,0.00,,---,0.00,0.00,VWS V14.00,2013-03-19 10:13:00,
2013-03-19 06:14:00,63.1,55.4,29.93,WSW,255,3.0,7.0,76,0.00,,---,0.00,0.00,VWS V14.00,2013-03-19 10:14:00,
2013-03-19 06:15:00,63.1,55.4,29.93,WSW,255,2.0,7.0,76,0.00,,---,0.00,0.00,VWS V14.00,2013-03-19 10:15:00,
2013-03-19 06:16:00,63.1,55.4,29.93,WSW,255,2.0,7.0,76,0.00,,---,0.00,0.00,VWS V14.00,2013-03-19 10:16:00,
2013-03-19 06:17:00,63.1,55.4,29.93,WSW,255,0.0,7.0,76,0.00,,---,0.00,0.00,VWS V14.00,2013-03-19 10:17:00,
2013-03-19 06:18:00,63.1,55.4,29.93,WSW,255,0.0,7.0,76,0.00,,---,0.00,0.00,VWS V14.00,2013-03-19 10:18:00,
2013-03-19 06:19:00,63.1,55.4,29.92,South,185,3.0,7.0,76,0.00,,---,0.00,0.00,VWS V14.00,2013-03-19 10:19:00,
2013-03-19 06:20:00,63.1,55.4,29.92,South,185,2.0,7.0,76,0.00,,---,0.00,0.00,VWS V14.00,2013-03-19 10:20:00,
2013-03-19 06:21:00,63.0,55.3,29.93,WNW,288,9.0,9.0,76,0.00,,---,0.00,0.00,VWS V14.00,2013-03-19 10:21:00,
2013-03-19 06:22:00,63.0,55.7,29.94,WNW,291,4.0,9.0,77,0.00,,---,0.00,0.00,VWS V14.00,2013-03-19 10:22:00,
2013-03-19 06:23:00,63.0,55.3,29.94,WNW,291,0.0,9.0,76,0.00,,---,0.00,0.00,VWS V14.00,2013-03-19 10:23:00,
2013-03-19 06:24:00,63.0,55.3,29.94,WNW,290,2.0,9.0,76,0.00,,---,0.00,0.00,VWS V14.00,2013-03-19 10:24:00,
2013-03-19 06:25:00,63.0,55.7,29.94,WNW,291,0.0,9.0,77,0.00,,---,0.00,0.00,VWS V14.00,2013-03-19 10:25:00,
2013-03-19 06:26:00,63.0,55.7,29.94,WNW,291,4.0,9.0,77,0.00,,---,0.00,0.00,VWS V14.00,2013-03-19 10:26:00,
2013-03-19 06:27:00,63.0,55.7,29.94,WNW,286,5.0,9.0,77,0.00,,---,0.00,0.00,VWS V14.00,2013-03-19 10:27:00,
2013-03-19 06:28:00,63.0,55.7,29.94,West,275,5.0,9.0,77,0.00,,---,0.00,0.00,VWS V14.00,2013-03-19 10:28:00,
2013-03-19 06:29:00,63.0,55.7,29.95,West,264,8.0,9.0,77,0.00,,---,0.00,0.00,VWS V14.00,2013-03-19 10:29:00,
2013-03-19 06:30:00,63.1,55.4,29.95,WSW,258,4.0,9.0,76,0.00,,---,0.00,0.00,VWS V14.00,2013-03-19 10:30:00,
2013-03-19 06:31:00,63.1,55.8,29.95,WNW,293,18.0,18.0,77,0.00,,---,0.00,0.00,VWS V14.00,2013-03-19 10:31:00,
2013-03-19 06:32:00,63.1,55.8,29.95,West,272,18.0,25.0,77,0.00,,---,0.00,0.00,VWS V14.00,2013-03-19 10:32:00,
2013-03-19 06:33:00,63.2,55.9,30.01,NW,326,23.0,26.0,77,0.00,,---,0.00,0.00,VWS V14.00,2013-03-19 10:33:00,
2013-03-19 06:34:00,63.1,55.4,30.00,WNW,290,16.0,28.0,76,0.00,,---,0.00,0.00,VWS V14.00,2013-03-19 10:34:00,
2013-03-19 06:35:00,63.1,55.8,30.00,NW,304,14.0,28.0,77,0.00,,---,0.00,0.00,VWS V14.00,2013-03-19 10:35:00,
2013-03-19 06:36:00,63.1,55.8,30.01,WNW,295,15.0,28.0,77,0.00,,---,0.00,0.00,VWS V14.00,2013-03-19 10:36:00,
2013-03-19 06:37:00,63.2,55.9,30.01,WNW,301,12.0,28.0,77,0.00,,---,0.00,0.00,VWS V14.00,2013-03-19 10:37:00,
2013-03-19 06:38:00,63.2,55.9,30.01,West,281,11.0,28.0,77,0.00,,---,0.00,0.00,VWS V14.00,2013-03-19 10:38:00,
2013-03-19 06:39:00,63.3,55.6,30.01,West,262,14.0,28.0,76,0.00,,---,0.00,0.00,VWS V14.00,2013-03-19 10:39:00,
2013-03-19 06:40:00,63.4,55.7,30.01,WNW,301,9.0,28.0,76,0.00,,---,0.00,0.00,VWS V14.00,2013-03-19 10:40:00,
2013-03-19 06:41:00,63.5,55.4,30.01,WNW,289,9.0,28.0,75,0.00,,---,0.00,0.00,VWS V14.00,2013-03-19 10:41:00,
2013-03-19 06:42:00,63.6,55.5,30.01,West,275,13.0,28.0,75,0.00,,---,0.00,0.00,VWS V14.00,2013-03-19 10:42:00,
2013-03-19 06:43:00,63.7,55.6,30.01,WNW,293,13.0,28.0,75,0.00,,---,0.00,0.00,VWS V14.00,2013-03-19 10:43:00,
2013-03-19 06:44:00,63.8,55.4,30.01,WNW,284,8.0,28.0,74,0.00,,---,0.00,0.00,VWS V14.00,2013-03-19 10:44:00,
2013-03-19 06:45:00,63.9,55.5,30.01,West,264,9.0,28.0,74,0.00,,---,0.00,0.00,VWS V14.00,2013-03-19 10:45:00,
2013-03-19 06:46:00,63.9,55.5,30.01,West,280,13.0,28.0,74,0.00,,---,0.00,0.00,VWS V14.00,2013-03-19 10:46:00,
2013-03-19 06:47:00,63.9,55.1,30.01,WNW,291,8.0,28.0,73,0.00,,---,0.00,0.00,VWS V14.00,2013-03-19 10:47:00,
2013-03-19 06:48:00,64.0,55.2,30.01,WNW,289,12.0,28.0,73,0.00,,---,0.00,0.00,VWS V14.00,2013-03-19 10:48:00,
2013-03-19 06:49:00,64.0,55.2,30.01,WNW,282,7.0,28.0,73,0.00,,---,0.00,0.00,VWS V14.00,2013-03-19 10:49:00,
2013-03-19 06:50:00,64.0,55.2,30.01,West,266,7.0,28.0,73,0.00,,---,0.00,0.00,VWS V14.00,2013-03-19 10:50:00,
2013-03-19 06:51:00,64.0,55.2,30.01,West,272,10.0,28.0,73,0.00,,---,0.00,0.00,VWS V14.00,2013-03-19 10:51:00,
2013-03-19 06:52:00,64.0,55.2,30.01,West,268,9.0,28.0,73,0.00,,---,0.00,0.00,VWS V14.00,2013-03-19 10:52:00,
2013-03-19 06:53:00,64.0,55.2,30.00,West,266,7.0,28.0,73,0.00,,---,0.00,0.00,VWS V14.00,2013-03-19 10:53:00,
2013-03-19 06:54:00,64.1,55.3,30.00,West,264,9.0,28.0,73,0.00,,---,0.00,0.00,VWS V14.00,2013-03-19 10:54:00,
2013-03-19 06:55:00,64.1,55.3,30.00,West,274,7.0,28.0,73,0.00,,---,0.00,0.00,VWS V14.00,2013-03-19 10:55:00,
2013-03-19 06:56:00,64.1,55.3,30.00,West,274,11.0,28.0,73,0.00,,---,0.00,0.00,VWS V14.00,2013-03-19 10:56:00,
2013-03-19 06:57:00,64.1,55.3,30.00,WSW,258,7.0,28.0,73,0.00,,---,0.00,0.00,VWS V14.00,2013-03-19 10:57:00,
2013-03-19 06:58:00,64.1,55.3,30.00,WSW,256,5.0,28.0,73,0.00,,---,0.00,0.00,VWS V14.00,2013-03-19 10:58:00,
2013-03-19 06:59:00,64.1,55.3,30.00,WSW,255,10.0,28.0,73,0.00,,---,0.00,0.00,VWS V14.00,2013-03-19 10:59:00,
2013-03-19 07:00:00,64.1,55.3,30.00,West,278,9.0,28.0,73,0.00,,---,0.00,0.00,VWS V14.00,2013-03-19 11:00:00,
2013-03-19 07:01:00,64.1,55.3,30.00,WNW,288,7.0,10.0,73,0.00,,---,0.00,0.00,VWS V14.00,2013-03-19 11:01:00,
2013-03-19 07:02:00,64.1,55.3,30.00,West,270,5.0,10.0,73,0.00,,---,0.00,0.00,VWS V14.00,2013-03-19 11:02:00,
2013-03-19 07:03:00,64.1,55.3,30.00,West,270,7.0,10.0,73,0.00,,---,0.00,0.00,VWS V14.00,2013-03-19 11:03:00,
2013-03-19 07:04:00,64.1,55.3,30.00,WSW,245,4.0,10.0,73,0.00,,---,0.00,0.00,VWS V14.00,2013-03-19 11:04:00,
2013-03-19 07:05:00,64.1,55.3,30.00,WSW,241,4.0,10.0,73,0.00,,---,0.00,0.00,VWS V14.00,2013-03-19 11:05:00,
2013-03-19 07:06:00,64.1,55.7,29.99,WSW,240,2.0,10.0,74,0.00,,---,0.00,0.00,VWS V14.00,2013-03-19 11:06:00,
2013-03-19 07:07:00,64.0,55.6,29.99,WSW,241,2.0,10.0,74,0.00,,---,0.00,0.00,VWS V14.00,2013-03-19 11:07:00,
2013-03-19 07:08:00,64.0,55.6,29.99,WSW,254,3.0,10.0,74,0.00,,---,0.00,0.00,VWS V14.00,2013-03-19 11:08:00,
2013-03-19 07:09:00,64.0,55.6,29.99,West,275,2.0,10.0,74,0.00,,---,0.00,0.00,VWS V14.00,2013-03-19 11:09:00,
2013-03-19 07:10:00,64.0,55.6,29.99,West,264,6.0,10.0,74,0.00,,---,0.00,0.00,VWS V14.00,2013-03-19 11:10:00,
2013-03-19 07:11:00,64.0,55.6,29.99,WSW,245,3.0,10.0,74,0.00,,---,0.00,0.00,VWS V14.00,2013-03-19 11:11:00,
2013-03-19 07:12:00,64.0,55.6,29.99,WSW,247,10.0,10.0,74,0.00,,---,0.00,0.00,VWS V14.00,2013-03-19 11:12:00,
2013-03-19 07:13:00,63.9,55.5,29.99,SW,226,4.0,10.0,74,0.00,,---,0.00,0.00,VWS V14.00,2013-03-19 11:13:00,
2013-03-19 07:14:00,63.9,55.5,29.98,SW,226,0.0,10.0,74,0.00,,---,0.00,0.00,VWS V14.00,2013-03-19 11:14:00,
2013-03-19 07:15:00,63.9,55.5,29.98,SW,226,0.0,10.0,74,0.00,,---,0.00,0.00,VWS V14.00,2013-03-19 11:15:00,
2013-03-19 07:16:00,63.9,55.8,29.98,SW,226,0.0,10.0,75,0.00,,---,0.00,0.00,VWS V14.00,2013-03-19 11:16:00,
2013-03-19 07:17:00,63.9,55.8,29.98,SW,231,2.0,10.0,75,0.00,,---,0.00,0.00,VWS V14.00,2013-03-19 11:17:00,
2013-03-19 07:18:00,63.9,55.8,29.97,SW,235,2.0,10.0,75,0.00,,---,0.00,0.00,VWS V14.00,2013-03-19 11:18:00,
2013-03-19 07:19:00,63.9,55.8,29.97,SW,235,1.0,10.0,75,0.00,,---,0.00,0.00,VWS V14.00,2013-03-19 11:19:00,
2013-03-19 07:20:00,63.9,55.8,29.97,SW,235,2.0,10.0,75,0.00,,---,0.00,0.00,VWS V14.00,2013-03-19 11:20:00,
2013-03-19 07:21:00,63.8,55.7,29.97,SW,232,4.0,10.0,75,0.00,,---,0.00,0.00,VWS V14.00,2013-03-19 11:21:00,
2013-03-19 07:22:00,63.8,55.7,29.97,SW,232,2.0,10.0,75,0.00,,---,0.00,0.00,VWS V14.00,2013-03-19 11:22:00,
2013-03-19 07:23:00,63.8,55.7,29.97,SW,232,1.0,10.0,75,0.00,,---,0.00,0.00,VWS V14.00,2013-03-19 11:23:00,
2013-03-19 07:24:00,63.8,55.7,29.96,SW,233,0.0,10.0,75,0.00,,---,0.00,0.00,VWS V14.00,2013-03-19 11:24:00,
2013-03-19 07:25:00,63.7,55.6,29.96,SW,233,0.0,10.0,75,0.00,,---,0.00,0.00,VWS V14.00,2013-03-19 11:25:00,
2013-03-19 07:26:00,63.7,55.6,29.96,SW,233,1.0,10.0,75,0.00,,---,0.00,0.00,VWS V14.00,2013-03-19 11:26:00,
2013-03-19 07:27:00,63.7,55.6,29.95,SSW,196,4.0,10.0,75,0.00,,---,0.00,0.00,VWS V14.00,2013-03-19 11:27:00,
2013-03-19 07:28:00,63.6,55.5,29.95,SSW,196,1.0,10.0,75,0.00,,---,0.00,5.00,VWS V14.00,2013-03-19 11:28:00,
2013-03-19 07:29:00,63.6,55.5,29.95,SSW,195,2.0,10.0,75,0.00,,---,0.00,7.00,VWS V14.00,2013-03-19 11:29:00,
2013-03-19 07:30:00,63.5,55.8,29.94,SSW,194,4.0,10.0,76,0.00,,---,0.00,9.00,VWS V14.00,2013-03-19 11:30:00,
2013-03-19 07:31:00,63.5,55.8,29.94,SE,143,6.0,8.0,76,0.00,,---,0.00,11.00,VWS V14.00,2013-03-19 11:31:00,
2013-03-19 07:32:00,63.5,55.8,29.94,SE,143,5.0,8.0,76,0.00,,---,0.00,12.00,VWS V14.00,2013-03-19 11:32:00,
2013-03-19 07:33:00,63.5,55.8,29.94,SE,143,2.0,8.0,76,0.00,,---,0.00,12.00,VWS V14.00,2013-03-19 11:33:00,
2013-03-19 07:34:00,63.5,55.8,29.93,SSE,153,4.0,8.0,76,0.00,,---,0.00,14.00,VWS V14.00,2013-03-19 11:34:00,
2013-03-19 07:35:00,63.5,55.8,29.93,SSE,153,2.0,8.0,76,0.00,,---,0.00,14.00,VWS V14.00,2013-03-19 11:35:00,
2013-03-19 07:36:00,63.5,55.8,29.93,SSE,153,0.0,8.0,76,0.00,,---,0.00,14.00,VWS V14.00,2013-03-19 11:36:00,
2013-03-19 07:37:00,63.5,55.8,29.93,SSE,153,3.0,8.0,76,0.00,,---,0.00,14.00,VWS V14.00,2013-03-19 11:37:00,
2013-03-19 07:38:00,63.5,55.8,29.92,South,185,4.0,8.0,76,0.00,,---,0.00,14.00,VWS V14.00,2013-03-19 11:38:00,
2013-03-19 07:39:00,63.5,55.8,29.92,South,190,2.0,8.0,76,0.00,,---,0.00,14.00,VWS V14.00,2013-03-19 11:39:00,
2013-03-19 07:40:00,63.5,55.8,29.92,South,171,4.0,8.0,76,0.00,,---,0.00,12.00,VWS V14.00,2013-03-19 11:40:00,
2013-03-19 07:41:00,63.5,55.8,29.92,South,171,2.0,8.0,76,0.00,,---,0.00,11.00,VWS V14.00,2013-03-19 11:41:00,
2013-03-19 07:42:00,63.6,55.9,29.92,South,169,5.0,8.0,76,0.00,,---,0.00,11.00,VWS V14.00,2013-03-19 11:42:00,
2013-03-19 07:43:00,63.6,55.9,29.92,SE,127,4.0,8.0,76,0.00,,---,0.00,11.00,VWS V14.00,2013-03-19 11:43:00,
2013-03-19 07:44:00,63.6,55.9,29.92,SE,146,4.0,8.0,76,0.00,,---,0.00,12.00,VWS V14.00,2013-03-19 11:44:00,
2013-03-19 07:45:00,63.6,55.9,29.92,SSE,168,4.0,8.0,76,0.00,,---,0.00,12.00,VWS V14.00,2013-03-19 11:45:00,
2013-03-19 07:46:00,63.6,55.9,29.92,South,190,3.0,8.0,76,0.00,,---,0.00,12.00,VWS V14.00,2013-03-19 11:46:00,
2013-03-19 07:47:00,63.6,55.9,29.92,SSW,194,5.0,8.0,76,0.00,,---,0.00,14.00,VWS V14.00,2013-03-19 11:47:00,
2013-03-19 07:48:00,63.6,55.9,29.92,SSW,194,3.0,8.0,76,0.00,,---,0.00,14.00,VWS V14.00,2013-03-19 11:48:00,
2013-03-19 07:49:00,63.6,55.9,29.92,SSW,193,0.0,8.0,76,0.00,,---,0.00,14.00,VWS V14.00,2013-03-19 11:49:00,
2013-03-19 07:50:00,63.6,55.9,29.92,SSW,193,3.0,8.0,76,0.00,,---,0.00,14.00,VWS V14.00,2013-03-19 11:50:00,
2013-03-19 07:51:00,63.6,55.9,29.92,SSW,202,3.0,8.0,76,0.00,,---,0.00,12.00,VWS V14.00,2013-03-19 11:51:00,
2013-03-19 07:52:00,63.6,55.9,29.92,SSW,195,4.0,8.0,76,0.00,,---,0.00,12.00,VWS V14.00,2013-03-19 11:52:00,
2013-03-19 07:53:00,63.6,55.9,29.92,SSW,194,3.0,8.0,76,0.00,,---,0.00,12.00,VWS V14.00,2013-03-19 11:53:00,
2013-03-19 07:54:00,63.6,55.9,29.91,South,180,5.0,8.0,76,0.00,,---,0.00,12.00,VWS V14.00,2013-03-19 11:54:00,
2013-03-19 07:55:00,63.6,55.9,29.91,South,175,4.0,8.0,76,0.00,,---,0.00,12.00,VWS V14.00,2013-03-19 11:55:00,
2013-03-19 07:56:00,63.6,55.9,29.91,SSE,160,6.0,8.0,76,0.00,,---,0.00,14.00,VWS V14.00,2013-03-19 11:56:00,
2013-03-19 07:57:00,63.7,56.0,29.90,South,170,4.0,8.0,76,0.00,,---,0.00,14.00,VWS V14.00,2013-03-19 11:57:00,
2013-03-19 07:58:00,63.7,56.0,29.90,SSW,195,4.0,9.0,76,0.00,,---,0.00,16.00,VWS V14.00,2013-03-19 11:58:00,
2013-03-19 07:59:00,63.7,56.0,29.90,SSW,194,4.0,9.0,76,0.00,,---,0.00,18.00,VWS V14.00,2013-03-19 11:59:00,
2013-03-19 08:00:00,63.7,56.0,29.91,SSW,202,3.0,9.0,76,0.00,,---,0.00,18.00,VWS V14.00,2013-03-19 12:00:00,
2013-03-19 08:01:00,63.7,56.0,29.92,SSW,202,3.0,4.0,76,0.00,,---,0.00,18.00,VWS V14.00,2013-03-19 12:01:00,
2013-03-19 08:02:00,63.8,56.1,29.92,SW,231,2.0,6.0,76,0.00,,---,0.00,18.00,VWS V14.00,2013-03-19 12:02:00,
2013-03-19 08:03:00,63.8,56.1,29.92,SW,226,3.0,9.0,76,0.00,,---,0.00,18.00,VWS V14.00,2013-03-19 12:03:00,
2013-03-19 08:04:00,63.8,56.1,29.92,SW,232,3.0,9.0,76,0.00,,---,0.00,18.00,VWS V14.00,2013-03-19 12:04:00,
2013-03-19 08:05:00,63.8,56.1,29.92,SW,228,2.0,9.0,76,0.00,,---,0.00,21.00,VWS V14.00,2013-03-19 12:05:00,
2013-03-19 08:06:00,63.8,56.5,29.92,SW,229,3.0,9.0,77,0.00,,---,0.00,23.00,VWS V14.00,2013-03-19 12:06:00,
2013-03-19 08:07:00,63.9,56.6,29.92,SW,218,4.0,9.0,77,0.00,,---,0.00,28.00,VWS V14.00,2013-03-19 12:07:00,
2013-03-19 08:08:00,63.9,56.6,29.92,WSW,237,5.0,9.0,77,0.00,,---,0.00,33.00,VWS V14.00,2013-03-19 12:08:00,
2013-03-19 08:09:00,63.9,56.6,29.93,SW,216,3.0,11.0,77,0.00,,---,0.00,39.00,VWS V14.00,2013-03-19 12:09:00,
2013-03-19 08:10:00,64.0,56.7,29.93,WSW,249,8.0,13.0,77,0.00,,---,0.00,53.00,VWS V14.00,2013-03-19 12:10:00,
2013-03-19 08:11:00,64.0,56.7,29.93,SSE,149,7.0,13.0,77,0.00,,---,0.00,58.00,VWS V14.00,2013-03-19 12:11:00,
2013-03-19 08:12:00,64.0,56.7,29.93,SSE,162,4.0,13.0,77,0.00,,---,0.00,60.00,VWS V14.00,2013-03-19 12:12:00,
2013-03-19 08:13:00,64.0,56.7,29.93,WSW,246,1.0,13.0,77,0.00,,---,0.00,60.00,VWS V14.00,2013-03-19 12:13:00,
2013-03-19 08:14:00,64.0,57.0,29.93,SSW,199,4.0,13.0,78,0.00,,---,0.00,60.00,VWS V14.00,2013-03-19 12:14:00,
2013-03-19 08:15:00,64.0,57.0,29.93,SW,232,10.0,13.0,78,0.00,,---,0.00,56.00,VWS V14.00,2013-03-19 12:15:00,
2013-03-19 08:16:00,64.0,57.0,29.93,SW,231,1.0,13.0,78,0.00,,---,0.00,53.00,VWS V14.00,2013-03-19 12:16:00,
2013-03-19 08:17:00,64.0,57.0,29.93,SW,234,5.0,13.0,78,0.00,,---,0.00,53.00,VWS V14.00,2013-03-19 12:17:00,
2013-03-19 08:18:00,63.9,56.9,29.93,SW,222,8.0,13.0,78,0.00,,---,0.00,51.00,VWS V14.00,2013-03-19 12:18:00,
2013-03-19 08:19:00,63.9,56.9,29.93,SSW,195,8.0,13.0,78,0.00,,---,0.00,51.00,VWS V14.00,2013-03-19 12:19:00,
2013-03-19 08:20:00,63.9,56.9,29.93,SSW,199,5.0,13.0,78,0.00,,---,0.00,53.00,VWS V14.00,2013-03-19 12:20:00,
2013-03-19 08:21:00,63.9,56.9,29.93,SW,216,8.0,16.0,78,0.00,,---,0.00,53.00,VWS V14.00,2013-03-19 12:21:00,
2013-03-19 08:22:00,63.8,56.8,29.93,West,281,8.0,16.0,78,0.00,,---,0.00,54.00,VWS V14.00,2013-03-19 12:22:00,
2013-03-19 08:23:00,63.8,56.8,29.93,SW,226,5.0,16.0,78,0.00,,---,0.00,62.00,VWS V14.00,2013-03-19 12:23:00,
2013-03-19 08:24:00,63.8,56.8,29.93,SW,231,1.0,16.0,78,0.00,,---,0.00,70.00,VWS V14.00,2013-03-19 12:24:00,
2013-03-19 08:25:00,63.7,56.7,29.94,SW,226,3.0,16.0,78,0.00,,---,0.00,70.00,VWS V14.00,2013-03-19 12:25:00,
2013-03-19 08:26:00,63.7,57.1,29.94,South,180,9.0,16.0,79,0.00,,---,0.00,76.00,VWS V14.00,2013-03-19 12:26:00,
2013-03-19 08:27:00,63.7,56.7,29.94,WSW,247,4.0,16.0,78,0.00,,---,0.00,77.00,VWS V14.00,2013-03-19 12:27:00,
2013-03-19 08:28:00,63.6,57.0,29.94,WSW,237,4.0,16.0,79,0.00,,---,0.00,83.00,VWS V14.00,2013-03-19 12:28:00,
2013-03-19 08:29:00,63.6,57.0,29.94,WSW,241,8.0,16.0,79,0.00,,---,0.00,88.00,VWS V14.00,2013-03-19 12:29:00,
2013-03-19 08:30:00,63.6,57.0,29.94,SW,223,3.0,16.0,79,0.00,,---,0.00,93.00,VWS V14.00,2013-03-19 12:30:00,
2013-03-19 08:31:00,63.6,57.0,29.94,SW,233,3.0,8.0,79,0.00,,---,0.00,97.00,VWS V14.00,2013-03-19 12:31:00,
2013-03-19 08:32:00,63.6,57.0,29.94,SW,226,6.0,12.0,79,0.00,,---,0.00,98.00,VWS V14.00,2013-03-19 12:32:00,
2013-03-19 08:33:00,63.6,57.0,29.95,SW,235,2.0,12.0,79,0.00,,---,0.00,97.00,VWS V14.00,2013-03-19 12:33:00,
2013-03-19 08:34:00,63.6,57.0,29.95,SSW,212,0.0,14.0,79,0.00,,---,0.00,86.00,VWS V14.00,2013-03-19 12:34:00,
2013-03-19 08:35:00,63.6,57.0,29.95,WSW,254,10.0,14.0,79,0.00,,---,0.00,81.00,VWS V14.00,2013-03-19 12:35:00,
2013-03-19 08:36:00,63.6,57.0,29.95,West,273,3.0,14.0,79,0.00,,---,0.00,76.00,VWS V14.00,2013-03-19 12:36:00,
2013-03-19 08:37:00,63.6,57.0,29.95,SSE,163,4.0,14.0,79,0.00,,---,0.00,74.00,VWS V14.00,2013-03-19 12:37:00,
2013-03-19 08:38:00,63.6,57.0,29.95,West,260,2.0,14.0,79,0.00,,---,0.00,72.00,VWS V14.00,2013-03-19 12:38:00,
2013-03-19 08:39:00,63.6,57.0,29.95,WSW,242,2.0,14.0,79,0.00,,---,0.00,72.00,VWS V14.00,2013-03-19 12:39:00,
2013-03-19 08:40:00,63.6,57.0,29.95,SSW,199,1.0,14.0,79,0.00,,---,0.00,74.00,VWS V14.00,2013-03-19 12:40:00,
2013-03-19 08:41:00,63.6,57.0,29.95,WSW,239,2.0,14.0,79,0.00,,---,0.00,76.00,VWS V14.00,2013-03-19 12:41:00,
2013-03-19 08:42:00,63.6,57.3,29.95,SSW,197,2.0,14.0,80,0.00,,---,0.00,79.00,VWS V14.00,2013-03-19 12:42:00,
2013-03-19 08:43:00,63.6,57.0,29.95,West,274,0.0,14.0,79,0.00,,---,0.00,84.00,VWS V14.00,2013-03-19 12:43:00,
2013-03-19 08:44:00,63.6,57.0,29.95,SSW,213,5.0,14.0,79,0.00,,---,0.00,88.00,VWS V14.00,2013-03-19 12:44:00,
2013-03-19 08:45:00,63.6,57.0,29.95,SW,231,1.0,14.0,79,0.00,,---,0.00,90.00,VWS V14.00,2013-03-19 12:45:00,
2013-03-19 08:46:00,63.6,57.0,29.95,West,266,3.0,14.0,79,0.00,,---,0.00,88.00,VWS V14.00,2013-03-19 12:46:00,
2013-03-19 08:47:00,63.6,57.0,29.95,SW,229,4.0,14.0,79,0.00,,---,0.00,91.00,VWS V14.00,2013-03-19 12:47:00,
2013-03-19 08:48:00,63.6,57.0,29.95,SW,214,7.0,14.0,79,0.00,,---,0.00,97.00,VWS V14.00,2013-03-19 12:48:00,
2013-03-19 08:49:00,63.6,57.0,29.95,West,262,8.0,14.0,79,0.00,,---,0.00,100.00,VWS V14.00,2013-03-19 12:49:00,
2013-03-19 08:50:00,63.6,57.0,29.95,SSW,206,3.0,14.0,79,0.00,,---,0.00,105.00,VWS V14.00,2013-03-19 12:50:00,
2013-03-19 08:51:00,63.6,57.0,29.95,SSW,192,6.0,14.0,79,0.00,,---,0.00,114.00,VWS V14.00,2013-03-19 12:51:00,
2013-03-19 08:52:00,63.6,57.0,29.96,SW,233,7.0,14.0,79,0.00,,---,0.00,137.00,VWS V14.00,2013-03-19 12:52:00,
2013-03-19 08:53:00,63.6,57.3,29.96,WSW,245,5.0,14.0,80,0.00,,---,0.00,207.00,VWS V14.00,2013-03-19 12:53:00,
2013-03-19 08:54:00,63.6,57.3,29.96,SW,222,0.0,14.0,80,0.00,,---,0.00,162.00,VWS V14.00,2013-03-19 12:54:00,
2013-03-19 08:55:00,63.6,57.3,29.96,SSW,202,6.0,14.0,80,0.00,,---,0.00,163.00,VWS V14.00,2013-03-19 12:55:00,
2013-03-19 08:56:00,63.6,57.3,29.96,West,265,3.0,14.0,80,0.00,,---,0.00,163.00,VWS V14.00,2013-03-19 12:56:00,
2013-03-19 08:57:00,63.7,57.4,29.96,West,267,3.0,14.0,80,0.00,,---,0.00,318.00,VWS V14.00,2013-03-19 12:57:00,
2013-03-19 08:58:00,63.7,57.4,29.96,West,267,5.0,14.0,80,0.00,,---,0.00,318.00,VWS V14.00,2013-03-19 12:58:00,
2013-03-19 08:59:00,63.7,57.4,29.96,West,266,5.0,14.0,80,0.00,,---,0.00,318.00,VWS V14.00,2013-03-19 12:59:00,
2013-03-19 09:00:00,63.7,57.1,29.96,WSW,241,4.0,14.0,79,0.00,,---,0.00,318.00,VWS V14.00,2013-03-19 13:00:00,
2013-03-19 09:01:00,63.8,57.5,29.95,SW,231,1.0,6.0,80,0.00,,---,0.00,120.00,VWS V14.00,2013-03-19 13:01:00,
2013-03-19 09:02:00,63.8,57.2,29.95,West,263,3.0,6.0,79,0.00,,---,0.00,186.00,VWS V14.00,2013-03-19 13:02:00,
2013-03-19 09:03:00,63.8,57.2,29.95,West,262,7.0,10.0,79,0.00,,---,0.00,186.00,VWS V14.00,2013-03-19 13:03:00,
2013-03-19 09:04:00,63.9,57.3,29.95,West,260,7.0,10.0,79,0.00,,---,0.00,193.00,VWS V14.00,2013-03-19 13:04:00,
2013-03-19 09:05:00,63.9,57.3,29.95,West,259,2.0,10.0,79,0.00,,---,0.00,135.00,VWS V14.00,2013-03-19 13:05:00,
2013-03-19 09:06:00,63.9,57.3,29.95,West,259,1.0,10.0,79,0.00,,---,0.00,155.00,VWS V14.00,2013-03-19 13:06:00,
2013-03-19 09:07:00,64.0,57.4,29.95,WSW,245,4.0,10.0,79,0.00,,---,0.00,155.00,VWS V14.00,2013-03-19 13:07:00,
2013-03-19 09:08:00,64.0,57.4,29.95,WSW,239,2.0,10.0,79,0.00,,---,0.00,417.00,VWS V14.00,2013-03-19 13:08:00,
2013-03-19 09:09:00,64.1,57.5,29.95,West,270,3.0,10.0,79,0.00,,---,0.00,417.00,VWS V14.00,2013-03-19 13:09:00,
2013-03-19 09:10:00,64.2,57.6,29.96,West,270,1.0,10.0,79,0.00,,---,0.00,373.00,VWS V14.00,2013-03-19 13:10:00,
2013-03-19 09:11:00,64.3,57.7,29.96,West,275,3.0,10.0,79,0.00,,---,0.00,373.00,VWS V14.00,2013-03-19 13:11:00,
2013-03-19 09:12:00,64.4,57.8,29.95,West,265,8.0,10.0,79,0.00,,---,0.00,283.00,VWS V14.00,2013-03-19 13:12:00,
2013-03-19 09:13:00,64.5,57.5,29.96,West,259,6.0,10.0,78,0.00,,---,0.00,220.00,VWS V14.00,2013-03-19 13:13:00,
2013-03-19 09:14:00,64.5,57.5,29.95,West,264,5.0,10.0,78,0.00,,---,0.00,193.00,VWS V14.00,2013-03-19 13:14:00,
2013-03-19 09:15:00,64.5,57.5,29.96,West,263,6.0,10.0,78,0.00,,---,0.00,200.00,VWS V14.00,2013-03-19 13:15:00,
2013-03-19 09:16:00,64.5,57.5,29.96,West,259,3.0,10.0,78,0.00,,---,0.00,241.00,VWS V14.00,2013-03-19 13:16:00,
2013-03-19 09:17:00,64.6,57.6,29.96,West,260,2.0,10.0,78,0.00,,---,0.00,190.00,VWS V14.00,2013-03-19 13:17:00,
2013-03-19 09:18:00,64.6,57.6,29.95,West,259,2.0,10.0,78,0.00,,---,0.00,190.00,VWS V14.00,2013-03-19 13:18:00,
2013-03-19 09:19:00,64.7,57.7,29.95,West,259,2.0,10.0,78,0.00,,---,0.00,190.00,VWS V14.00,2013-03-19 13:19:00,
2013-03-19 09:20:00,64.8,57.8,29.95,West,259,1.0,10.0,78,0.00,,---,0.00,271.00,VWS V14.00,2013-03-19 13:20:00,
2013-03-19 09:21:00,64.9,57.9,29.95,West,266,3.0,10.0,78,0.00,,---,0.00,156.00,VWS V14.00,2013-03-19 13:21:00,
2013-03-19 09:22:00,65.0,58.0,29.95,West,272,3.0,10.0,78,0.00,,---,0.00,156.00,VWS V14.00,2013-03-19 13:22:00,
2013-03-19 09:23:00,65.0,57.6,29.95,West,268,6.0,10.0,77,0.00,,---,0.00,181.00,VWS V14.00,2013-03-19 13:23:00,
2013-03-19 09:24:00,65.1,57.7,29.95,West,264,3.0,10.0,77,0.00,,---,0.00,200.00,VWS V14.00,2013-03-19 13:24:00,
2013-03-19 09:25:00,65.1,57.4,29.96,West,261,2.0,10.0,76,0.00,,---,0.00,211.00,VWS V14.00,2013-03-19 13:25:00,
2013-03-19 09:26:00,65.2,57.8,29.96,West,261,6.0,10.0,77,0.00,,---,0.00,211.00,VWS V14.00,2013-03-19 13:26:00,
2013-03-19 09:27:00,65.2,57.5,29.96,West,272,5.0,10.0,76,0.00,,---,0.00,178.00,VWS V14.00,2013-03-19 13:27:00,
2013-03-19 09:28:00,65.2,57.5,29.96,West,272,6.0,10.0,76,0.00,,---,0.00,179.00,VWS V14.00,2013-03-19 13:28:00,
2013-03-19 09:29:00,65.3,57.5,29.96,West,281,9.0,10.0,76,0.00,,---,0.00,179.00,VWS V14.00,2013-03-19 13:29:00,
2013-03-19 09:30:00,65.3,57.5,29.96,West,259,7.0,10.0,76,0.00,,---,0.00,176.00,VWS V14.00,2013-03-19 13:30:00,
2013-03-19 09:31:00,65.3,57.5,29.96,WSW,256,5.0,9.0,76,0.00,,---,0.00,179.00,VWS V14.00,2013-03-19 13:31:00,
2013-03-19 09:32:00,65.4,57.7,29.96,WSW,251,5.0,9.0,76,0.00,,---,0.00,174.00,VWS V14.00,2013-03-19 13:32:00,
2013-03-19 09:33:00,65.4,57.7,29.96,WSW,251,3.0,9.0,76,0.00,,---,0.00,169.00,VWS V14.00,2013-03-19 13:33:00,
2013-03-19 09:34:00,65.4,57.7,29.96,West,260,5.0,9.0,76,0.00,,---,0.00,165.00,VWS V14.00,2013-03-19 13:34:00,
2013-03-19 09:35:00,65.5,57.7,29.96,WNW,295,5.0,9.0,76,0.00,,---,0.00,160.00,VWS V14.00,2013-03-19 13:35:00,
2013-03-19 09:36:00,65.5,57.7,29.96,WNW,291,5.0,9.0,76,0.00,,---,0.00,160.00,VWS V14.00,2013-03-19 13:36:00,
2013-03-19 09:37:00,65.5,57.7,29.96,WNW,289,4.0,9.0,76,0.00,,---,0.00,160.00,VWS V14.00,2013-03-19 13:37:00,
2013-03-19 09:38:00,65.6,57.5,29.96,WNW,288,5.0,9.0,75,0.00,,---,0.00,506.00,VWS V14.00,2013-03-19 13:38:00,
2013-03-19 09:39:00,65.6,57.5,29.96,WNW,288,4.0,9.0,75,0.00,,---,0.00,534.00,VWS V14.00,2013-03-19 13:39:00,
2013-03-19 09:40:00,65.7,57.6,29.96,WNW,287,5.0,9.0,75,0.00,,---,0.00,471.00,VWS V14.00,2013-03-19 13:40:00,
2013-03-19 09:41:00,65.8,57.7,29.96,WNW,286,2.0,9.0,75,0.00,,---,0.00,538.00,VWS V14.00,2013-03-19 13:41:00,
2013-03-19 09:42:00,65.8,57.3,29.96,WNW,285,3.0,9.0,74,0.00,,---,0.00,540.00,VWS V14.00,2013-03-19 13:42:00,
2013-03-19 09:43:00,65.9,57.4,29.96,WNW,285,1.0,9.0,74,0.00,,---,0.00,545.00,VWS V14.00,2013-03-19 13:43:00,
2013-03-19 09:44:00,66.0,57.5,29.96,WNW,285,3.0,9.0,74,0.00,,---,0.00,548.00,VWS V14.00,2013-03-19 13:44:00,
2013-03-19 09:45:00,66.0,57.5,29.96,WNW,285,2.0,9.0,74,0.00,,---,0.00,455.00,VWS V14.00,2013-03-19 13:45:00,
2013-03-19 09:46:00,66.2,57.7,29.96,WNW,285,4.0,9.0,74,0.00,,---,0.00,519.00,VWS V14.00,2013-03-19 13:46:00,
2013-03-19 09:47:00,66.2,57.7,29.96,WNW,287,2.0,9.0,74,0.00,,---,0.00,519.00,VWS V14.00,2013-03-19 13:47:00,
2013-03-19 09:48:00,66.3,57.8,29.96,WNW,287,3.0,9.0,74,0.00,,---,0.00,448.00,VWS V14.00,2013-03-19 13:48:00,
2013-03-19 09:49:00,66.4,57.5,29.96,WNW,287,3.0,9.0,73,0.00,,---,0.00,448.00,VWS V14.00,2013-03-19 13:49:00,
2013-03-19 09:50:00,66.5,57.6,29.96,WNW,287,2.0,9.0,73,0.00,,---,0.00,473.00,VWS V14.00,2013-03-19 13:50:00,
2013-03-19 09:51:00,66.6,57.7,29.96,WNW,287,1.0,9.0,73,0.00,,---,0.00,473.00,VWS V14.00,2013-03-19 13:51:00,
2013-03-19 09:52:00,66.6,57.7,29.96,WNW,287,2.0,9.0,73,0.00,,---,0.00,287.00,VWS V14.00,2013-03-19 13:52:00,
2013-03-19 09:53:00,66.7,57.8,29.97,WNW,287,1.0,9.0,73,0.00,,---,0.00,290.00,VWS V14.00,2013-03-19 13:53:00,
2013-03-19 09:54:00,66.8,57.5,29.97,WNW,287,0.0,9.0,72,0.00,,---,0.00,315.00,VWS V14.00,2013-03-19 13:54:00,
2013-03-19 09:55:00,66.9,57.6,29.97,WNW,285,3.0,9.0,72,0.00,,---,0.00,357.00,VWS V14.00,2013-03-19 13:55:00,
2013-03-19 09:56:00,67.0,58.1,29.97,West,275,3.0,9.0,73,0.00,,---,0.00,357.00,VWS V14.00,2013-03-19 13:56:00,
2013-03-19 09:57:00,67.2,57.9,29.96,West,272,5.0,9.0,72,0.00,,---,0.00,357.00,VWS V14.00,2013-03-19 13:57:00,
2013-03-19 09:58:00,67.3,58.0,29.97,West,272,3.0,9.0,72,0.00,,---,0.00,712.00,VWS V14.00,2013-03-19 13:58:00,
2013-03-19 09:59:00,67.5,58.2,29.97,West,274,6.0,9.0,72,0.00,,---,0.00,735.00,VWS V14.00,2013-03-19 13:59:00,
2013-03-19 10:00:00,67.6,57.5,29.96,WNW,287,4.0,9.0,70,0.00,,---,0.00,735.00,VWS V14.00,2013-03-19 14:00:00,
2013-03-19 10:01:00,67.8,57.7,29.96,WNW,283,2.0,7.0,70,0.00,,---,0.00,473.00,VWS V14.00,2013-03-19 14:01:00,
2013-03-19 10:02:00,67.9,57.8,29.96,WNW,283,3.0,7.0,70,0.00,,---,0.00,417.00,VWS V14.00,2013-03-19 14:02:00,
2013-03-19 10:03:00,68.0,58.3,29.96,West,277,5.0,7.0,71,0.00,,---,0.00,489.00,VWS V14.00,2013-03-19 14:03:00,
2013-03-19 10:04:00,68.1,58.0,29.96,West,278,7.0,7.0,70,0.00,,---,0.00,489.00,VWS V14.00,2013-03-19 14:04:00,
2013-03-19 10:05:00,68.2,58.0,29.96,West,277,6.0,7.0,70,0.00,,---,0.00,489.00,VWS V14.00,2013-03-19 14:05:00,
2013-03-19 10:06:00,68.3,58.2,29.96,West,272,5.0,7.0,70,0.00,,---,0.00,301.00,VWS V14.00,2013-03-19 14:06:00,
2013-03-19 10:07:00,68.4,57.8,29.97,West,269,7.0,7.0,69,0.00,,---,0.00,309.00,VWS V14.00,2013-03-19 14:07:00,
2013-03-19 10:08:00,68.5,57.9,29.97,West,269,2.0,7.0,69,0.00,,---,0.00,362.00,VWS V14.00,2013-03-19 14:08:00,
2013-03-19 10:09:00,68.6,58.0,29.96,WNW,296,4.0,8.0,69,0.00,,---,0.00,362.00,VWS V14.00,2013-03-19 14:09:00,
2013-03-19 10:10:00,68.7,57.7,29.96,WNW,296,10.0,10.0,68,0.00,,---,0.00,367.00,VWS V14.00,2013-03-19 14:10:00,
2013-03-19 10:11:00,68.8,57.8,29.96,WNW,299,5.0,10.0,68,0.00,,---,0.00,374.00,VWS V14.00,2013-03-19 14:11:00,
2013-03-19 10:12:00,68.9,57.5,29.97,NW,304,8.0,10.0,67,0.00,,---,0.00,373.00,VWS V14.00,2013-03-19 14:12:00,
2013-03-19 10:13:00,69.0,57.6,29.97,West,278,5.0,10.0,67,0.00,,---,0.00,462.00,VWS V14.00,2013-03-19 14:13:00,
2013-03-19 10:14:00,69.1,57.7,29.96,West,276,6.0,10.0,67,0.00,,---,0.00,332.00,VWS V14.00,2013-03-19 14:14:00,
2013-03-19 10:15:00,69.2,57.8,29.97,WSW,256,9.0,11.0,67,0.00,,---,0.00,269.00,VWS V14.00,2013-03-19 14:15:00,
2013-03-19 10:16:00,69.2,57.8,29.97,West,263,8.0,11.0,67,0.00,,---,0.00,330.00,VWS V14.00,2013-03-19 14:16:00,
2013-03-19 10:17:00,69.2,57.4,29.97,WSW,253,5.0,11.0,66,0.00,,---,0.00,244.00,VWS V14.00,2013-03-19 14:17:00,
2013-03-19 10:18:00,69.2,57.8,29.96,WSW,257,4.0,11.0,67,0.00,,---,0.00,229.00,VWS V14.00,2013-03-19 14:18:00,
2013-03-19 10:19:00,69.2,57.8,29.97,West,268,8.0,11.0,67,0.00,,---,0.00,225.00,VWS V14.00,2013-03-19 14:19:00,
2013-03-19 10:20:00,69.2,57.8,29.97,West,271,7.0,11.0,67,0.00,,---,0.00,221.00,VWS V14.00,2013-03-19 14:20:00,
2013-03-19 10:21:00,69.2,57.4,29.97,West,266,8.0,11.0,66,0.00,,---,0.00,234.00,VWS V14.00,2013-03-19 14:21:00,
2013-03-19 10:22:00,69.2,57.4,29.97,WSW,254,8.0,11.0,66,0.00,,---,0.00,274.00,VWS V14.00,2013-03-19 14:22:00,
2013-03-19 10:23:00,69.2,57.4,29.97,WSW,258,5.0,11.0,66,0.00,,---,0.00,283.00,VWS V14.00,2013-03-19 14:23:00,
2013-03-19 10:24:00,69.2,57.4,29.97,WSW,257,7.0,11.0,66,0.00,,---,0.00,295.00,VWS V14.00,2013-03-19 14:24:00,
2013-03-19 10:25:00,69.2,57.4,29.97,West,270,6.0,11.0,66,0.00,,---,0.00,297.00,VWS V14.00,2013-03-19 14:25:00,
2013-03-19 10:26:00,69.3,57.5,29.97,West,272,5.0,11.0,66,0.00,,---,0.00,318.00,VWS V14.00,2013-03-19 14:26:00,
2013-03-19 10:27:00,69.3,57.5,29.97,West,272,5.0,11.0,66,0.00,,---,0.00,318.00,VWS V14.00,2013-03-19 14:27:00,
2013-03-19 10:28:00,69.3,57.5,29.97,West,278,6.0,11.0,66,0.00,,---,0.00,318.00,VWS V14.00,2013-03-19 14:28:00,
2013-03-19 10:29:00,69.4,57.6,29.97,West,274,8.0,11.0,66,0.00,,---,0.00,353.00,VWS V14.00,2013-03-19 14:29:00,
2013-03-19 10:30:00,69.4,57.6,29.97,West,274,7.0,11.0,66,0.00,,---,0.00,353.00,VWS V14.00,2013-03-19 14:30:00,
2013-03-19 10:31:00,69.4,57.1,29.97,WNW,290,10.0,11.0,65,0.00,,---,0.00,388.00,VWS V14.00,2013-03-19 14:31:00,
2013-03-19 10:32:00,69.5,57.2,29.97,West,276,10.0,11.0,65,0.00,,---,0.00,411.00,VWS V14.00,2013-03-19 14:32:00,
2013-03-19 10:33:00,69.5,57.2,29.97,WSW,258,12.0,14.0,65,0.00,,---,0.00,468.00,VWS V14.00,2013-03-19 14:33:00,
2013-03-19 10:34:00,69.6,57.3,29.97,WNW,285,9.0,14.0,65,0.00,,---,0.00,490.00,VWS V14.00,2013-03-19 14:34:00,
2013-03-19 10:35:00,69.6,56.9,29.97,West,270,9.0,14.0,64,0.00,,---,0.00,489.00,VWS V14.00,2013-03-19 14:35:00,
2013-03-19 10:36:00,69.6,56.9,29.97,WSW,255,12.0,14.0,64,0.00,,---,0.00,494.00,VWS V14.00,2013-03-19 14:36:00,
2013-03-19 10:37:00,69.7,57.4,29.97,West,267,10.0,14.0,65,0.00,,---,0.00,503.00,VWS V14.00,2013-03-19 14:37:00,
2013-03-19 10:38:00,69.7,57.4,29.97,West,272,14.0,14.0,65,0.00,,---,0.00,520.00,VWS V14.00,2013-03-19 14:38:00,
2013-03-19 10:39:00,69.8,57.1,29.97,West,260,7.0,14.0,64,0.00,,---,0.00,510.00,VWS V14.00,2013-03-19 14:39:00,
2013-03-19 10:40:00,69.9,57.2,29.97,WSW,256,7.0,14.0,64,0.00,,---,0.00,513.00,VWS V14.00,2013-03-19 14:40:00,
2013-03-19 10:41:00,70.0,57.3,29.97,West,267,10.0,14.0,64,0.00,,---,0.00,487.00,VWS V14.00,2013-03-19 14:41:00,
2013-03-19 10:42:00,70.0,57.3,29.97,West,272,10.0,15.0,64,0.00,,---,0.00,427.00,VWS V14.00,2013-03-19 14:42:00,
2013-03-19 10:43:00,70.0,57.3,29.97,WNW,285,14.0,16.0,64,0.00,,---,0.00,445.00,VWS V14.00,2013-03-19 14:43:00,
2013-03-19 10:44:00,70.1,57.4,29.97,West,276,11.0,16.0,64,0.00,,---,0.00,485.00,VWS V14.00,2013-03-19 14:44:00,
2013-03-19 10:45:00,70.1,57.4,29.97,WNW,291,16.0,18.0,64,0.00,,---,0.00,489.00,VWS V14.00,2013-03-19 14:45:00,
2013-03-19 10:46:00,70.1,56.9,29.98,West,275,9.0,18.0,63,0.00,,---,0.00,496.00,VWS V14.00,2013-03-19 14:46:00,
2013-03-19 10:47:00,70.2,57.5,29.98,West,263,6.0,18.0,64,0.00,,---,0.00,508.00,VWS V14.00,2013-03-19 14:47:00,
2013-03-19 10:48:00,70.3,57.6,29.97,WNW,294,17.0,18.0,64,0.00,,---,0.00,555.00,VWS V14.00,2013-03-19 14:48:00,
2013-03-19 10:49:00,70.3,57.1,29.97,WNW,294,13.0,18.0,63,0.00,,---,0.00,587.00,VWS V14.00,2013-03-19 14:49:00,
2013-03-19 10:50:00,70.4,57.2,29.97,West,267,10.0,18.0,63,0.00,,---,0.00,603.00,VWS V14.00,2013-03-19 14:50:00,
2013-03-19 10:51:00,70.5,57.3,29.97,WNW,287,15.0,18.0,63,0.00,,---,0.00,645.00,VWS V14.00,2013-03-19 14:51:00,
2013-03-19 10:52:00,70.5,56.9,29.97,NNW,346,12.0,18.0,62,0.00,,---,0.00,619.00,VWS V14.00,2013-03-19 14:52:00,
2013-03-19 10:53:00,70.6,57.0,29.97,West,265,17.0,19.0,62,0.00,,---,0.00,608.00,VWS V14.00,2013-03-19 14:53:00,
2013-03-19 10:54:00,70.7,57.1,29.97,WNW,301,16.0,19.0,62,0.00,,---,0.00,577.00,VWS V14.00,2013-03-19 14:54:00,
2013-03-19 10:55:00,70.7,57.1,29.97,WSW,253,15.0,19.0,62,0.00,,---,0.00,584.00,VWS V14.00,2013-03-19 14:55:00,
2013-03-19 10:56:00,70.8,56.7,29.97,West,269,15.0,20.0,61,0.00,,---,0.00,575.00,VWS V14.00,2013-03-19 14:56:00,
2013-03-19 10:57:00,70.8,56.7,29.98,WNW,296,18.0,20.0,61,0.00,,---,0.00,559.00,VWS V14.00,2013-03-19 14:57:00,
2013-03-19 10:58:00,70.8,57.2,29.97,WNW,283,7.0,20.0,62,0.00,,---,0.00,540.00,VWS V14.00,2013-03-19 14:58:00,
2013-03-19 10:59:00,70.8,57.2,29.98,West,264,14.0,20.0,62,0.00,,---,0.00,570.00,VWS V14.00,2013-03-19 14:59:00,
2013-03-19 11:00:00,70.8,57.2,29.98,WNW,283,7.0,20.0,62,0.00,,---,0.00,563.00,VWS V14.00,2013-03-19 15:00:00,
2013-03-19 11:01:00,70.9,57.2,29.97,WNW,283,11.0,12.0,62,0.00,,---,0.00,483.00,VWS V14.00,2013-03-19 15:01:00,
2013-03-19 11:02:00,71.0,57.3,29.97,NW,308,12.0,15.0,62,0.00,,---,0.00,434.00,VWS V14.00,2013-03-19 15:02:00,
2013-03-19 11:03:00,71.0,57.3,29.97,WNW,284,8.0,15.0,62,0.00,,---,0.00,434.00,VWS V14.00,2013-03-19 15:03:00,
2013-03-19 11:04:00,71.0,57.8,29.97,WNW,285,8.0,15.0,63,0.00,,---,0.00,633.00,VWS V14.00,2013-03-19 15:04:00,
2013-03-19 11:05:00,71.1,57.9,29.97,NW,304,11.0,15.0,63,0.00,,---,0.00,599.00,VWS V14.00,2013-03-19 15:05:00,
2013-03-19 11:06:00,71.1,57.4,29.97,NW,318,9.0,15.0,62,0.00,,---,0.00,619.00,VWS V14.00,2013-03-19 15:06:00,
2013-03-19 11:07:00,71.1,56.5,29.98,NW,313,14.0,18.0,60,0.00,,---,0.00,605.00,VWS V14.00,2013-03-19 15:07:00,
2013-03-19 11:08:00,71.1,57.0,29.97,WNW,303,8.0,18.0,61,0.00,,---,0.00,577.00,VWS V14.00,2013-03-19 15:08:00,
2013-03-19 11:09:00,71.1,57.4,29.97,WNW,292,8.0,18.0,62,0.00,,---,0.00,577.00,VWS V14.00,2013-03-19 15:09:00,
2013-03-19 11:10:00,71.2,57.1,29.97,WNW,296,9.0,18.0,61,0.00,,---,0.00,577.00,VWS V14.00,2013-03-19 15:10:00,
2013-03-19 11:11:00,71.2,57.1,29.97,NW,321,13.0,18.0,61,0.00,,---,0.00,577.00,VWS V14.00,2013-03-19 15:11:00,
2013-03-19 11:12:00,71.2,57.5,29.97,WNW,291,11.0,18.0,62,0.00,,---,0.00,670.00,VWS V14.00,2013-03-19 15:12:00,
2013-03-19 11:13:00,71.3,57.2,29.97,West,270,14.0,18.0,61,0.00,,---,0.00,649.00,VWS V14.00,2013-03-19 15:13:00,
2013-03-19 11:14:00,71.2,57.1,29.97,West,277,14.0,18.0,61,0.00,,---,0.00,649.00,VWS V14.00,2013-03-19 15:14:00,
2013-03-19 11:15:00,71.2,57.1,29.97,NW,317,11.0,18.0,61,0.00,,---,0.00,649.00,VWS V14.00,2013-03-19 15:15:00,
2013-03-19 11:16:00,71.1,57.0,29.97,WNW,299,8.0,18.0,61,0.00,,---,0.00,722.00,VWS V14.00,2013-03-19 15:16:00,
2013-03-19 11:17:00,71.2,57.1,29.97,NW,312,12.0,18.0,61,0.00,,---,0.00,772.00,VWS V14.00,2013-03-19 15:17:00,
2013-03-19 11:18:00,71.2,57.1,29.97,WNW,297,15.0,18.0,61,0.00,,---,0.00,789.00,VWS V14.00,2013-03-19 15:18:00,
2013-03-19 11:19:00,71.3,56.7,29.97,WNW,303,11.0,18.0,60,0.00,,---,0.00,833.00,VWS V14.00,2013-03-19 15:19:00,
2013-03-19 11:20:00,71.3,57.2,29.97,NW,314,11.0,18.0,61,0.00,,---,0.00,833.00,VWS V14.00,2013-03-19 15:20:00,
2013-03-19 11:21:00,71.4,57.3,29.98,NW,308,10.0,18.0,61,0.00,,---,0.00,835.00,VWS V14.00,2013-03-19 15:21:00,
2013-03-19 11:22:00,71.5,57.4,29.98,NW,322,7.0,18.0,61,0.00,,---,0.00,837.00,VWS V14.00,2013-03-19 15:22:00,
2013-03-19 11:23:00,71.6,57.5,29.97,WNW,291,13.0,18.0,61,0.00,,---,0.00,840.00,VWS V14.00,2013-03-19 15:23:00,
2013-03-19 11:24:00,71.5,56.9,29.97,West,280,16.0,19.0,60,0.00,,---,0.00,793.00,VWS V14.00,2013-03-19 15:24:00,
2013-03-19 11:25:00,71.6,57.5,29.97,West,280,13.0,19.0,61,0.00,,---,0.00,642.00,VWS V14.00,2013-03-19 15:25:00,
2013-03-19 11:26:00,71.5,56.9,29.97,WNW,299,4.0,19.0,60,0.00,,---,0.00,577.00,VWS V14.00,2013-03-19 15:26:00,
2013-03-19 11:27:00,71.6,57.5,29.97,WNW,296,8.0,19.0,61,0.00,,---,0.00,513.00,VWS V14.00,2013-03-19 15:27:00,
2013-03-19 11:28:00,71.7,57.5,29.97,NW,306,9.0,19.0,61,0.00,,---,0.00,513.00,VWS V14.00,2013-03-19 15:28:00,
2013-03-19 11:29:00,71.7,57.5,29.97,WNW,289,13.0,19.0,61,0.00,,---,0.00,768.00,VWS V14.00,2013-03-19 15:29:00,
2013-03-19 11:30:00,71.7,57.5,29.97,WNW,290,9.0,13.0,61,0.00,,---,0.00,668.00,VWS V14.00,2013-03-19 15:30:00,
2013-03-19 11:31:00,71.7,57.5,29.97,WNW,293,11.0,13.0,61,0.00,,---,0.00,668.00,VWS V14.00,2013-03-19 15:31:00,
2013-03-19 11:32:00,71.7,57.5,29.97,WNW,293,11.0,14.0,61,0.00,,---,0.00,752.00,VWS V14.00,2013-03-19 15:32:00,
2013-03-19 11:33:00,71.6,57.9,29.97,West,277,11.0,14.0,62,0.00,,---,0.00,726.00,VWS V14.00,2013-03-19 15:33:00,
2013-03-19 11:34:00,71.5,57.8,29.97,NW,305,7.0,14.0,62,0.00,,---,0.00,756.00,VWS V14.00,2013-03-19 15:34:00,
2013-03-19 11:35:00,71.5,58.3,29.97,NNW,340,10.0,14.0,63,0.00,,---,0.00,758.00,VWS V14.00,2013-03-19 15:35:00,
2013-03-19 11:36:00,71.5,58.3,29.97,NW,320,10.0,19.0,63,0.00,,---,0.00,701.00,VWS V14.00,2013-03-19 15:36:00,
2013-03-19 11:37:00,71.4,57.7,29.97,WNW,303,11.0,19.0,62,0.00,,---,0.00,758.00,VWS V14.00,2013-03-19 15:37:00,
2013-03-19 11:38:00,71.4,58.2,29.97,WNW,296,12.0,19.0,63,0.00,,---,0.00,763.00,VWS V14.00,2013-03-19 15:38:00,
2013-03-19 11:39:00,71.4,57.7,29.97,WNW,301,10.0,19.0,62,0.00,,---,0.00,707.00,VWS V14.00,2013-03-19 15:39:00,
2013-03-19 11:40:00,71.4,58.2,29.97,NW,308,14.0,19.0,63,0.00,,---,0.00,773.00,VWS V14.00,2013-03-19 15:40:00,
2013-03-19 11:41:00,71.4,58.2,29.97,NW,317,4.0,19.0,63,0.00,,---,0.00,816.00,VWS V14.00,2013-03-19 15:41:00,
2013-03-19 11:42:00,71.5,58.3,29.97,NNW,330,8.0,19.0,63,0.00,,---,0.00,775.00,VWS V14.00,2013-03-19 15:42:00,
2013-03-19 11:43:00,71.6,58.8,29.97,NNW,345,8.0,19.0,64,0.00,,---,0.00,844.00,VWS V14.00,2013-03-19 15:43:00,
2013-03-19 11:44:00,71.7,58.5,29.97,NNW,329,14.0,19.0,63,0.00,,---,0.00,821.00,VWS V14.00,2013-03-19 15:44:00,
2013-03-19 11:45:00,71.8,59.0,29.97,NW,314,7.0,19.0,64,0.00,,---,0.00,842.00,VWS V14.00,2013-03-19 15:45:00,
2013-03-19 11:46:00,71.8,58.5,29.97,WNW,290,13.0,19.0,63,0.00,,---,0.00,833.00,VWS V14.00,2013-03-19 15:46:00,
2013-03-19 11:47:00,71.8,58.1,29.97,West,270,8.0,19.0,62,0.00,,---,0.00,837.00,VWS V14.00,2013-03-19 15:47:00,
2013-03-19 11:48:00,71.9,58.6,29.97,NNW,335,10.0,19.0,63,0.00,,---,0.00,819.00,VWS V14.00,2013-03-19 15:48:00,
2013-03-19 11:49:00,71.9,58.2,29.97,NW,323,15.0,19.0,62,0.00,,---,0.00,809.00,VWS V14.00,2013-03-19 15:49:00,
2013-03-19 11:50:00,72.0,58.3,29.97,NW,306,7.0,19.0,62,0.00,,---,0.00,809.00,VWS V14.00,2013-03-19 15:50:00,
2013-03-19 11:51:00,72.1,58.8,29.96,NW,305,4.0,19.0,63,0.00,,---,0.00,849.00,VWS V14.00,2013-03-19 15:51:00,
2013-03-19 11:52:00,72.2,58.5,29.97,West,279,11.0,19.0,62,0.00,,---,0.00,858.00,VWS V14.00,2013-03-19 15:52:00,
2013-03-19 11:53:00,72.2,58.5,29.96,NW,323,7.0,19.0,62,0.00,,---,0.00,851.00,VWS V14.00,2013-03-19 15:53:00,
2013-03-19 11:54:00,72.2,58.5,29.96,NNW,328,5.0,19.0,62,0.00,,---,0.00,851.00,VWS V14.00,2013-03-19 15:54:00,
2013-03-19 11:55:00,72.3,58.6,29.96,NW,320,12.0,19.0,62,0.00,,---,0.00,856.00,VWS V14.00,2013-03-19 15:55:00,
2013-03-19 11:56:00,72.3,58.6,29.96,NW,311,10.0,19.0,62,0.00,,---,0.00,826.00,VWS V14.00,2013-03-19 15:56:00,
2013-03-19 11:57:00,72.4,58.7,29.96,NW,306,4.0,19.0,62,0.00,,---,0.00,810.00,VWS V14.00,2013-03-19 15:57:00,
2013-03-19 11:58:00,72.5,58.3,29.96,NW,308,7.0,19.0,61,0.00,,---,0.00,810.00,VWS V14.00,2013-03-19 15:58:00,
2013-03-19 11:59:00,72.6,58.4,29.96,West,280,19.0,19.0,61,0.00,,---,0.00,810.00,VWS V14.00,2013-03-19 15:59:00,
2013-03-19 12:00:00,72.7,58.9,29.96,NW,310,9.0,19.0,62,0.00,,---,0.00,770.00,VWS V14.00,2013-03-19 16:00:00,
2013-03-19 12:01:00,72.9,58.7,29.96,WNW,297,11.0,11.0,61,0.00,,---,0.00,772.00,VWS V14.00,2013-03-19 16:01:00,
2013-03-19 12:02:00,73.0,58.8,29.96,WNW,290,8.0,15.0,61,0.00,,---,0.00,807.00,VWS V14.00,2013-03-19 16:02:00,
2013-03-19 12:03:00,73.0,58.8,29.96,WSW,257,11.0,15.0,61,0.00,,---,0.00,768.00,VWS V14.00,2013-03-19 16:03:00,
2013-03-19 12:04:00,73.0,58.3,29.97,West,260,10.0,15.0,60,0.00,,---,0.00,772.00,VWS V14.00,2013-03-19 16:04:00,
2013-03-19 12:05:00,73.0,58.3,29.97,West,267,10.0,15.0,60,0.00,,---,0.00,805.00,VWS V14.00,2013-03-19 16:05:00,
2013-03-19 12:06:00,73.0,57.8,29.97,WNW,291,7.0,15.0,59,0.00,,---,0.00,796.00,VWS V14.00,2013-03-19 16:06:00,
2013-03-19 12:07:00,73.0,57.8,29.97,NW,323,12.0,19.0,59,0.00,,---,0.00,851.00,VWS V14.00,2013-03-19 16:07:00,
2013-03-19 12:08:00,73.1,57.5,29.97,WNW,300,10.0,19.0,58,0.00,,---,0.00,824.00,VWS V14.00,2013-03-19 16:08:00,
2013-03-19 12:09:00,73.1,57.5,29.97,WNW,301,12.0,19.0,58,0.00,,---,0.00,844.00,VWS V14.00,2013-03-19 16:09:00,
2013-03-19 12:10:00,73.1,57.5,29.97,WSW,257,14.0,19.0,58,0.00,,---,0.00,853.00,VWS V14.00,2013-03-19 16:10:00,
2013-03-19 12:11:00,73.1,57.9,29.97,NW,325,8.0,19.0,59,0.00,,---,0.00,879.00,VWS V14.00,2013-03-19 16:11:00,
2013-03-19 12:12:00,73.1,57.5,29.97,West,278,7.0,19.0,58,0.00,,---,0.00,796.00,VWS V14.00,2013-03-19 16:12:00,
2013-03-19 12:13:00,73.1,57.0,29.96,NW,317,11.0,19.0,57,0.00,,---,0.00,731.00,VWS V14.00,2013-03-19 16:13:00,
2013-03-19 12:14:00,73.1,57.0,29.96,WNW,300,9.0,19.0,57,0.00,,---,0.00,773.00,VWS V14.00,2013-03-19 16:14:00,
2013-03-19 12:15:00,73.0,56.9,29.97,WNW,298,15.0,19.0,57,0.00,,---,0.00,865.00,VWS V14.00,2013-03-19 16:15:00,
2013-03-19 12:16:00,73.0,56.9,29.97,West,279,16.0,19.0,57,0.00,,---,0.00,895.00,VWS V14.00,2013-03-19 16:16:00,
2013-03-19 12:17:00,73.0,56.9,29.96,NW,313,8.0,19.0,57,0.00,,---,0.00,895.00,VWS V14.00,2013-03-19 16:17:00,
2013-03-19 12:18:00,73.0,57.4,29.97,WNW,303,12.0,19.0,58,0.00,,---,0.00,900.00,VWS V14.00,2013-03-19 16:18:00,
2013-03-19 12:19:00,73.0,56.9,29.97,NW,322,9.0,19.0,57,0.00,,---,0.00,898.00,VWS V14.00,2013-03-19 16:19:00,
2013-03-19 12:20:00,73.1,57.9,29.97,WNW,295,8.0,19.0,59,0.00,,---,0.00,898.00,VWS V14.00,2013-03-19 16:20:00,
2013-03-19 12:21:00,73.1,57.9,29.97,NW,323,8.0,19.0,59,0.00,,---,0.00,902.00,VWS V14.00,2013-03-19 16:21:00,
2013-03-19 12:22:00,73.1,57.9,29.96,NW,322,7.0,19.0,59,0.00,,---,0.00,902.00,VWS V14.00,2013-03-19 16:22:00,
2013-03-19 12:23:00,73.0,58.3,29.96,NW,326,14.0,19.0,60,0.00,,---,0.00,904.00,VWS V14.00,2013-03-19 16:23:00,
2013-03-19 12:24:00,72.9,58.2,29.96,WNW,284,8.0,19.0,60,0.00,,---,0.00,886.00,VWS V14.00,2013-03-19 16:24:00,
2013-03-19 12:25:00,73.0,57.4,29.96,WNW,285,12.0,19.0,58,0.00,,---,0.00,826.00,VWS V14.00,2013-03-19 16:25:00,
2013-03-19 12:26:00,73.1,57.5,29.96,WNW,289,11.0,19.0,58,0.00,,---,0.00,905.00,VWS V14.00,2013-03-19 16:26:00,
2013-03-19 12:27:00,73.1,57.0,29.96,WSW,258,13.0,19.0,57,0.00,,---,0.00,905.00,VWS V14.00,2013-03-19 16:27:00,
2013-03-19 12:28:00,73.2,57.1,29.96,West,272,13.0,19.0,57,0.00,,---,0.00,907.00,VWS V14.00,2013-03-19 16:28:00,
2013-03-19 12:29:00,73.3,57.7,29.97,West,281,8.0,19.0,58,0.00,,---,0.00,905.00,VWS V14.00,2013-03-19 16:29:00,
2013-03-19 12:30:00,73.3,57.7,29.97,West,272,8.0,19.0,58,0.00,,---,0.00,902.00,VWS V14.00,2013-03-19 16:30:00,
2013-03-19 12:31:00,73.5,57.8,29.97,West,281,8.0,11.0,58,0.00,,---,0.00,902.00,VWS V14.00,2013-03-19 16:31:00,
2013-03-19 12:32:00,73.6,57.9,29.97,NW,326,6.0,11.0,58,0.00,,---,0.00,905.00,VWS V14.00,2013-03-19 16:32:00,
2013-03-19 12:33:00,73.6,57.4,29.96,NW,324,15.0,18.0,57,0.00,,---,0.00,909.00,VWS V14.00,2013-03-19 16:33:00,
2013-03-19 12:34:00,73.6,57.4,29.97,NNW,331,11.0,18.0,57,0.00,,---,0.00,911.00,VWS V14.00,2013-03-19 16:34:00,
2013-03-19 12:35:00,73.5,57.3,29.96,NW,320,7.0,18.0,57,0.00,,---,0.00,909.00,VWS V14.00,2013-03-19 16:35:00,
2013-03-19 12:36:00,73.5,57.3,29.97,NW,307,6.0,18.0,57,0.00,,---,0.00,914.00,VWS V14.00,2013-03-19 16:36:00,
2013-03-19 12:37:00,73.5,57.8,29.97,NW,312,5.0,18.0,58,0.00,,---,0.00,914.00,VWS V14.00,2013-03-19 16:37:00,
2013-03-19 12:38:00,73.6,57.4,29.97,NW,322,6.0,18.0,57,0.00,,---,0.00,912.00,VWS V14.00,2013-03-19 16:38:00,
2013-03-19 12:39:00,73.6,57.4,29.96,NW,313,5.0,18.0,57,0.00,,---,0.00,912.00,VWS V14.00,2013-03-19 16:39:00,
2013-03-19 12:40:00,73.7,58.0,29.96,NW,324,6.0,18.0,58,0.00,,---,0.00,918.00,VWS V14.00,2013-03-19 16:40:00,
2013-03-19 12:41:00,73.8,58.1,29.96,NW,318,6.0,18.0,58,0.00,,---,0.00,919.00,VWS V14.00,2013-03-19 16:41:00,
2013-03-19 12:42:00,73.9,57.7,29.96,West,278,6.0,18.0,57,0.00,,---,0.00,923.00,VWS V14.00,2013-03-19 16:42:00,
2013-03-19 12:43:00,73.9,57.7,29.96,WNW,283,7.0,18.0,57,0.00,,---,0.00,928.00,VWS V14.00,2013-03-19 16:43:00,
2013-03-19 12:44:00,74.0,57.8,29.96,West,276,7.0,18.0,57,0.00,,---,0.00,923.00,VWS V14.00,2013-03-19 16:44:00,
2013-03-19 12:45:00,74.2,58.0,29.96,West,280,13.0,18.0,57,0.00,,---,0.00,889.00,VWS V14.00,2013-03-19 16:45:00,
2013-03-19 12:46:00,74.2,58.0,29.96,NW,318,15.0,18.0,57,0.00,,---,0.00,935.00,VWS V14.00,2013-03-19 16:46:00,
2013-03-19 12:47:00,74.2,57.5,29.96,WNW,289,8.0,18.0,56,0.00,,---,0.00,935.00,VWS V14.00,2013-03-19 16:47:00,
2013-03-19 12:48:00,74.3,58.1,29.96,NNW,340,9.0,18.0,57,0.00,,---,0.00,930.00,VWS V14.00,2013-03-19 16:48:00,
2013-03-19 12:49:00,74.3,58.6,29.96,WNW,296,14.0,21.0,58,0.00,,---,0.00,930.00,VWS V14.00,2013-03-19 16:49:00,
2013-03-19 12:50:00,74.3,58.1,29.96,WNW,296,10.0,21.0,57,0.00,,---,0.00,844.00,VWS V14.00,2013-03-19 16:50:00,
2013-03-19 12:51:00,74.4,58.2,29.96,West,270,7.0,21.0,57,0.00,,---,0.00,942.00,VWS V14.00,2013-03-19 16:51:00,
2013-03-19 12:52:00,74.5,57.8,29.97,WNW,297,16.0,21.0,56,0.00,,---,0.00,947.00,VWS V14.00,2013-03-19 16:52:00,
2013-03-19 12:53:00,74.5,57.8,29.97,West,272,9.0,21.0,56,0.00,,---,0.00,954.00,VWS V14.00,2013-03-19 16:53:00,
2013-03-19 12:54:00,74.4,58.2,29.96,West,278,8.0,21.0,57,0.00,,---,0.00,958.00,VWS V14.00,2013-03-19 16:54:00,
2013-03-19 12:55:00,74.4,57.7,29.96,NNW,332,10.0,21.0,56,0.00,,---,0.00,963.00,VWS V14.00,2013-03-19 16:55:00,
2013-03-19 12:56:00,74.5,58.3,29.96,WNW,282,5.0,21.0,57,0.00,,---,0.00,977.00,VWS V14.00,2013-03-19 16:56:00,
2013-03-19 12:57:00,74.6,58.4,29.96,NW,305,5.0,21.0,57,0.00,,---,0.00,995.00,VWS V14.00,2013-03-19 16:57:00,
2013-03-19 12:58:00,74.6,58.4,29.96,NW,317,12.0,21.0,57,0.00,,---,0.00,1071.00,VWS V14.00,2013-03-19 16:58:00,
2013-03-19 12:59:00,74.7,58.5,29.96,NNW,330,13.0,21.0,57,0.00,,---,0.00,1071.00,VWS V14.00,2013-03-19 16:59:00,
2013-03-19 13:00:00,74.6,58.4,29.96,NNW,330,15.0,21.0,57,0.00,,---,0.00,759.00,VWS V14.00,2013-03-19 17:00:00,
2013-03-19 13:01:00,74.5,58.3,29.96,NNW,342,12.0,18.0,57,0.00,,---,0.00,759.00,VWS V14.00,2013-03-19 17:01:00,
2013-03-19 13:02:00,74.4,57.7,29.96,NW,324,6.0,18.0,56,0.00,,---,0.00,759.00,VWS V14.00,2013-03-19 17:02:00,
2013-03-19 13:03:00,74.3,58.6,29.96,NNW,327,9.0,18.0,58,0.00,,---,0.00,759.00,VWS V14.00,2013-03-19 17:03:00,
2013-03-19 13:04:00,74.3,58.1,29.96,WNW,291,9.0,18.0,57,0.00,,---,0.00,759.00,VWS V14.00,2013-03-19 17:04:00,
2013-03-19 13:05:00,74.4,58.2,29.96,WNW,299,7.0,18.0,57,0.00,,---,0.00,1074.00,VWS V14.00,2013-03-19 17:05:00,
2013-03-19 13:06:00,74.5,58.3,29.96,WNW,299,10.0,18.0,57,0.00,,---,0.00,1074.00,VWS V14.00,2013-03-19 17:06:00,
2013-03-19 13:07:00,74.6,58.4,29.96,NW,311,4.0,18.0,57,0.00,,---,0.00,1074.00,VWS V14.00,2013-03-19 17:07:00,
2013-03-19 13:08:00,74.7,58.5,29.96,WNW,298,9.0,18.0,57,0.00,,---,0.00,1074.00,VWS V14.00,2013-03-19 17:08:00,
2013-03-19 13:09:00,74.9,58.7,29.96,WNW,291,14.0,18.0,57,0.00,,---,0.00,1074.00,VWS V14.00,2013-03-19 17:09:00,
2013-03-19 13:10:00,75.0,58.8,29.96,NW,325,15.0,18.0,57,0.00,,---,0.00,1074.00,VWS V14.00,2013-03-19 17:10:00,
2013-03-19 13:11:00,75.0,58.8,29.96,WNW,303,9.0,19.0,57,0.00,,---,0.00,1074.00,VWS V14.00,2013-03-19 17:11:00,
2013-03-19 13:12:00,75.0,58.3,29.96,NW,317,12.0,19.0,56,0.00,,---,0.00,1074.00,VWS V14.00,2013-03-19 17:12:00,
2013-03-19 13:13:00,75.0,58.3,29.96,West,269,7.0,19.0,56,0.00,,---,0.00,343.00,VWS V14.00,2013-03-19 17:13:00,
2013-03-19 13:14:00,74.9,58.2,29.96,WNW,289,3.0,19.0,56,0.00,,---,0.00,350.00,VWS V14.00,2013-03-19 17:14:00,
2013-03-19 13:15:00,74.9,58.2,29.96,WNW,289,14.0,19.0,56,0.00,,---,0.00,364.00,VWS V14.00,2013-03-19 17:15:00,
2013-03-19 13:16:00,74.9,58.2,29.96,West,281,10.0,19.0,56,0.00,,---,0.00,371.00,VWS V14.00,2013-03-19 17:16:00,
2013-03-19 13:17:00,75.0,58.3,29.96,WNW,296,13.0,19.0,56,0.00,,---,0.00,392.00,VWS V14.00,2013-03-19 17:17:00,
2013-03-19 13:18:00,75.0,57.8,29.96,NW,324,13.0,19.0,55,0.00,,---,0.00,367.00,VWS V14.00,2013-03-19 17:18:00,
2013-03-19 13:19:00,74.9,57.7,29.96,NW,309,11.0,19.0,55,0.00,,---,0.00,374.00,VWS V14.00,2013-03-19 17:19:00,
2013-03-19 13:20:00,74.8,57.6,29.96,WNW,297,7.0,19.0,55,0.00,,---,0.00,383.00,VWS V14.00,2013-03-19 17:20:00,
2013-03-19 13:21:00,74.8,58.1,29.96,West,272,9.0,19.0,56,0.00,,---,0.00,383.00,VWS V14.00,2013-03-19 17:21:00,
2013-03-19 13:22:00,74.7,57.5,29.96,WNW,300,9.0,19.0,55,0.00,,---,0.00,468.00,VWS V14.00,2013-03-19 17:22:00,
2013-03-19 13:23:00,74.8,58.1,29.96,NW,314,7.0,19.0,56,0.00,,---,0.00,492.00,VWS V14.00,2013-03-19 17:23:00,
2013-03-19 13:24:00,74.8,58.1,29.96,NW,323,8.0,19.0,56,0.00,,---,0.00,492.00,VWS V14.00,2013-03-19 17:24:00,
2013-03-19 13:25:00,74.8,58.6,29.96,NW,320,11.0,19.0,57,0.00,,---,0.00,492.00,VWS V14.00,2013-03-19 17:25:00,
2013-03-19 13:26:00,74.8,58.6,29.96,NW,308,6.0,19.0,57,0.00,,---,0.00,424.00,VWS V14.00,2013-03-19 17:26:00,
2013-03-19 13:27:00,74.8,58.6,29.96,WNW,302,14.0,19.0,57,0.00,,---,0.00,364.00,VWS V14.00,2013-03-19 17:27:00,
2013-03-19 13:28:00,74.8,58.1,29.96,NW,308,9.0,19.0,56,0.00,,---,0.00,362.00,VWS V14.00,2013-03-19 17:28:00,
2013-03-19 13:29:00,74.7,58.0,29.96,WNW,299,7.0,19.0,56,0.00,,---,0.00,355.00,VWS V14.00,2013-03-19 17:29:00,
2013-03-19 13:30:00,74.7,58.5,29.96,NW,314,16.0,19.0,57,0.00,,---,0.00,323.00,VWS V14.00,2013-03-19 17:30:00,
2013-03-19 13:31:00,74.7,59.0,29.96,NW,318,11.0,17.0,58,0.00,,---,0.00,313.00,VWS V14.00,2013-03-19 17:31:00,
2013-03-19 13:32:00,74.6,58.4,29.96,NNW,336,14.0,17.0,57,0.00,,---,0.00,308.00,VWS V14.00,2013-03-19 17:32:00,
2013-03-19 13:33:00,74.4,59.2,29.96,West,270,11.0,17.0,59,0.00,,---,0.00,345.00,VWS V14.00,2013-03-19 17:33:00,
2013-03-19 13:34:00,74.3,58.6,29.96,NW,310,8.0,17.0,58,0.00,,---,0.00,350.00,VWS V14.00,2013-03-19 17:34:00,
2013-03-19 13:35:00,74.3,58.1,29.96,WNW,290,8.0,17.0,57,0.00,,---,0.00,383.00,VWS V14.00,2013-03-19 17:35:00,
2013-03-19 13:36:00,74.2,58.5,29.96,NW,320,15.0,17.0,58,0.00,,---,0.00,439.00,VWS V14.00,2013-03-19 17:36:00,
2013-03-19 13:37:00,74.2,58.5,29.96,NW,323,7.0,17.0,58,0.00,,---,0.00,501.00,VWS V14.00,2013-03-19 17:37:00,
2013-03-19 13:38:00,74.2,58.5,29.96,West,278,10.0,17.0,58,0.00,,---,0.00,501.00,VWS V14.00,2013-03-19 17:38:00,
2013-03-19 13:39:00,74.3,58.6,29.96,West,271,10.0,17.0,58,0.00,,---,0.00,501.00,VWS V14.00,2013-03-19 17:39:00,
2013-03-19 13:40:00,74.2,58.5,29.96,WNW,285,9.0,17.0,58,0.00,,---,0.00,1102.00,VWS V14.00,2013-03-19 17:40:00,
2013-03-19 13:41:00,74.3,58.6,29.96,West,279,13.0,17.0,58,0.00,,---,0.00,1102.00,VWS V14.00,2013-03-19 17:41:00,
2013-03-19 13:42:00,74.3,59.1,29.96,West,268,11.0,17.0,59,0.00,,---,0.00,1102.00,VWS V14.00,2013-03-19 17:42:00,
2013-03-19 13:43:00,74.4,59.2,29.96,WSW,256,13.0,17.0,59,0.00,,---,0.00,1102.00,VWS V14.00,2013-03-19 17:43:00,
2013-03-19 13:44:00,74.5,59.2,29.96,WSW,252,14.0,17.0,59,0.00,,---,0.00,1102.00,VWS V14.00,2013-03-19 17:44:00,
2013-03-19 13:45:00,74.5,58.8,29.96,WNW,283,12.0,17.0,58,0.00,,---,0.00,1102.00,VWS V14.00,2013-03-19 17:45:00,
2013-03-19 13:46:00,74.6,59.3,29.96,WNW,302,7.0,17.0,59,0.00,,---,0.00,1102.00,VWS V14.00,2013-03-19 17:46:00,
2013-03-19 13:47:00,74.7,59.0,29.96,NNW,328,14.0,17.0,58,0.00,,---,0.00,1102.00,VWS V14.00,2013-03-19 17:47:00,
2013-03-19 13:48:00,74.8,59.0,29.96,NNW,331,15.0,17.0,58,0.00,,---,0.00,1102.00,VWS V14.00,2013-03-19 17:48:00,
2013-03-19 13:49:00,74.7,58.5,29.96,NW,320,11.0,17.0,57,0.00,,---,0.00,1102.00,VWS V14.00,2013-03-19 17:49:00,
2013-03-19 13:50:00,74.6,58.9,29.96,NW,305,11.0,17.0,58,0.00,,---,0.00,1102.00,VWS V14.00,2013-03-19 17:50:00,
2013-03-19 13:51:00,74.4,58.7,29.96,NW,314,14.0,17.0,58,0.00,,---,0.00,1102.00,VWS V14.00,2013-03-19 17:51:00,
2013-03-19 13:52:00,74.3,58.6,29.96,NW,320,12.0,17.0,58,0.00,,---,0.00,1102.00,VWS V14.00,2013-03-19 17:52:00,
2013-03-19 13:53:00,74.2,59.0,29.96,NW,323,11.0,17.0,59,0.00,,---,0.00,1102.00,VWS V14.00,2013-03-19 17:53:00,
2013-03-19 13:54:00,74.2,59.0,29.96,NW,322,15.0,17.0,59,0.00,,---,0.00,1102.00,VWS V14.00,2013-03-19 17:54:00,
2013-03-19 13:55:00,74.1,58.9,29.96,NW,326,10.0,17.0,59,0.00,,---,0.00,359.00,VWS V14.00,2013-03-19 17:55:00,
2013-03-19 13:56:00,74.1,58.9,29.96,WNW,285,8.0,17.0,59,0.00,,---,0.00,385.00,VWS V14.00,2013-03-19 17:56:00,
2013-03-19 13:57:00,74.1,58.4,29.96,WNW,291,14.0,17.0,58,0.00,,---,0.00,413.00,VWS V14.00,2013-03-19 17:57:00,
2013-03-19 13:58:00,74.2,59.0,29.96,WNW,285,5.0,17.0,59,0.00,,---,0.00,443.00,VWS V14.00,2013-03-19 17:58:00,
2013-03-19 13:59:00,74.2,59.0,29.96,WNW,298,10.0,17.0,59,0.00,,---,0.00,473.00,VWS V14.00,2013-03-19 17:59:00,
2013-03-19 14:00:00,74.2,59.4,29.96,WNW,292,10.0,17.0,60,0.00,,---,0.00,483.00,VWS V14.00,2013-03-19 18:00:00,
2013-03-19 14:01:00,74.3,59.5,29.96,WNW,294,12.0,13.0,60,0.00,,---,0.00,483.00,VWS V14.00,2013-03-19 18:01:00,
2013-03-19 14:02:00,74.2,59.4,29.96,NW,318,12.0,16.0,60,0.00,,---,0.00,452.00,VWS V14.00,2013-03-19 18:02:00,
2013-03-19 14:03:00,74.2,59.0,29.96,NW,323,9.0,16.0,59,0.00,,---,0.00,508.00,VWS V14.00,2013-03-19 18:03:00,
2013-03-19 14:04:00,74.1,59.3,29.96,NW,310,5.0,16.0,60,0.00,,---,0.00,508.00,VWS V14.00,2013-03-19 18:04:00,
2013-03-19 14:05:00,74.1,59.3,29.96,NW,323,11.0,16.0,60,0.00,,---,0.00,1118.00,VWS V14.00,2013-03-19 18:05:00,
2013-03-19 14:06:00,74.1,58.9,29.95,WNW,288,8.0,16.0,59,0.00,,---,0.00,1095.00,VWS V14.00,2013-03-19 18:06:00,
2013-03-19 14:07:00,74.1,58.9,29.95,NW,312,6.0,16.0,59,0.00,,---,0.00,1072.00,VWS V14.00,2013-03-19 18:07:00,
2013-03-19 14:08:00,74.2,59.0,29.95,West,264,9.0,16.0,59,0.00,,---,0.00,1032.00,VWS V14.00,2013-03-19 18:08:00,
2013-03-19 14:09:00,74.2,59.0,29.95,West,281,5.0,16.0,59,0.00,,---,0.00,1027.00,VWS V14.00,2013-03-19 18:09:00,
2013-03-19 14:10:00,74.2,59.0,29.95,West,275,8.0,16.0,59,0.00,,---,0.00,1049.00,VWS V14.00,2013-03-19 18:10:00,
2013-03-19 14:11:00,74.3,58.6,29.95,West,269,6.0,16.0,58,0.00,,---,0.00,1042.00,VWS V14.00,2013-03-19 18:11:00,
2013-03-19 14:12:00,74.4,58.7,29.95,West,265,10.0,16.0,58,0.00,,---,0.00,1044.00,VWS V14.00,2013-03-19 18:12:00,
2013-03-19 14:13:00,74.5,58.8,29.95,West,272,6.0,16.0,58,0.00,,---,0.00,1071.00,VWS V14.00,2013-03-19 18:13:00,
2013-03-19 14:14:00,74.6,58.9,29.95,WNW,297,14.0,16.0,58,0.00,,---,0.00,441.00,VWS V14.00,2013-03-19 18:14:00,
2013-03-19 14:15:00,74.6,58.9,29.95,NW,323,11.0,16.0,58,0.00,,---,0.00,441.00,VWS V14.00,2013-03-19 18:15:00,
2013-03-19 14:16:00,74.6,58.9,29.95,NNW,335,8.0,16.0,58,0.00,,---,0.00,441.00,VWS V14.00,2013-03-19 18:16:00,
2013-03-19 14:17:00,74.5,58.8,29.95,West,279,9.0,16.0,58,0.00,,---,0.00,1129.00,VWS V14.00,2013-03-19 18:17:00,
2013-03-19 14:18:00,74.6,58.4,29.95,West,276,3.0,16.0,57,0.00,,---,0.00,1107.00,VWS V14.00,2013-03-19 18:18:00,
2013-03-19 14:19:00,74.6,58.9,29.95,WNW,291,11.0,16.0,58,0.00,,---,0.00,1107.00,VWS V14.00,2013-03-19 18:19:00,
2013-03-19 14:20:00,74.6,58.4,29.95,West,267,8.0,16.0,57,0.00,,---,0.00,1011.00,VWS V14.00,2013-03-19 18:20:00,
2013-03-19 14:21:00,74.6,58.4,29.95,West,269,14.0,16.0,57,0.00,,---,0.00,962.00,VWS V14.00,2013-03-19 18:21:00,
2013-03-19 14:22:00,74.6,58.4,29.95,WSW,241,8.0,16.0,57,0.00,,---,0.00,972.00,VWS V14.00,2013-03-19 18:22:00,
2013-03-19 14:23:00,74.6,58.9,29.95,WNW,293,8.0,16.0,58,0.00,,---,0.00,912.00,VWS V14.00,2013-03-19 18:23:00,
2013-03-19 14:24:00,74.6,58.9,29.94,NW,309,13.0,16.0,58,0.00,,---,0.00,914.00,VWS V14.00,2013-03-19 18:24:00,
2013-03-19 14:25:00,74.7,59.0,29.94,NW,310,7.0,16.0,58,0.00,,---,0.00,956.00,VWS V14.00,2013-03-19 18:25:00,
2013-03-19 14:26:00,74.8,59.0,29.94,West,276,7.0,16.0,58,0.00,,---,0.00,944.00,VWS V14.00,2013-03-19 18:26:00,
2013-03-19 14:27:00,74.8,59.5,29.94,West,273,10.0,16.0,59,0.00,,---,0.00,944.00,VWS V14.00,2013-03-19 18:27:00,
2013-03-19 14:28:00,74.8,59.5,29.94,West,275,8.0,16.0,59,0.00,,---,0.00,944.00,VWS V14.00,2013-03-19 18:28:00,
2013-03-19 14:29:00,74.9,59.1,29.94,West,260,8.0,16.0,58,0.00,,---,0.00,960.00,VWS V14.00,2013-03-19 18:29:00,
2013-03-19 14:30:00,74.9,59.1,29.94,West,272,13.0,16.0,58,0.00,,---,0.00,879.00,VWS V14.00,2013-03-19 18:30:00,
2013-03-19 14:31:00,74.9,59.1,29.94,NW,320,15.0,16.0,58,0.00,,---,0.00,949.00,VWS V14.00,2013-03-19 18:31:00,
2013-03-19 14:32:00,74.8,59.0,29.94,NNW,329,12.0,16.0,58,0.00,,---,0.00,949.00,VWS V14.00,2013-03-19 18:32:00,
2013-03-19 14:33:00,74.7,59.0,29.94,NW,315,9.0,16.0,58,0.00,,---,0.00,949.00,VWS V14.00,2013-03-19 18:33:00,
2013-03-19 14:34:00,74.7,59.0,29.94,NW,320,8.0,16.0,58,0.00,,---,0.00,949.00,VWS V14.00,2013-03-19 18:34:00,
2013-03-19 14:35:00,74.7,59.0,29.94,NW,317,10.0,16.0,58,0.00,,---,0.00,1007.00,VWS V14.00,2013-03-19 18:35:00,
2013-03-19 14:36:00,74.8,59.0,29.94,WNW,301,5.0,16.0,58,0.00,,---,0.00,1014.00,VWS V14.00,2013-03-19 18:36:00,
2013-03-19 14:37:00,74.8,59.0,29.94,WNW,298,5.0,16.0,58,0.00,,---,0.00,995.00,VWS V14.00,2013-03-19 18:37:00,
2013-03-19 14:38:00,74.8,59.5,29.94,NNW,333,10.0,16.0,59,0.00,,---,0.00,939.00,VWS V14.00,2013-03-19 18:38:00,
2013-03-19 14:39:00,74.8,59.5,29.94,WNW,302,7.0,17.0,59,0.00,,---,0.00,925.00,VWS V14.00,2013-03-19 18:39:00,
2013-03-19 14:40:00,74.9,60.1,29.94,NW,317,9.0,17.0,60,0.00,,---,0.00,925.00,VWS V14.00,2013-03-19 18:40:00,
2013-03-19 14:41:00,75.0,60.2,29.94,NW,314,9.0,17.0,60,0.00,,---,0.00,925.00,VWS V14.00,2013-03-19 18:41:00,
2013-03-19 14:42:00,75.0,59.7,29.94,NW,321,13.0,17.0,59,0.00,,---,0.00,898.00,VWS V14.00,2013-03-19 18:42:00,
2013-03-19 14:43:00,74.9,59.6,29.94,NNW,331,17.0,17.0,59,0.00,,---,0.00,904.00,VWS V14.00,2013-03-19 18:43:00,
2013-03-19 14:44:00,74.7,59.4,29.94,NW,320,11.0,17.0,59,0.00,,---,0.00,902.00,VWS V14.00,2013-03-19 18:44:00,
2013-03-19 14:45:00,74.6,59.8,29.94,WNW,285,12.0,17.0,60,0.00,,---,0.00,896.00,VWS V14.00,2013-03-19 18:45:00,
2013-03-19 14:46:00,74.5,59.7,29.94,WNW,287,14.0,17.0,60,0.00,,---,0.00,893.00,VWS V14.00,2013-03-19 18:46:00,
2013-03-19 14:47:00,74.4,59.2,29.93,WNW,293,5.0,17.0,59,0.00,,---,0.00,895.00,VWS V14.00,2013-03-19 18:47:00,
2013-03-19 14:48:00,74.4,59.6,29.94,NNW,343,6.0,17.0,60,0.00,,---,0.00,891.00,VWS V14.00,2013-03-19 18:48:00,
2013-03-19 14:49:00,74.4,60.1,29.93,NW,320,11.0,18.0,61,0.00,,---,0.00,889.00,VWS V14.00,2013-03-19 18:49:00,
2013-03-19 14:50:00,74.3,59.5,29.93,WNW,300,10.0,18.0,60,0.00,,---,0.00,888.00,VWS V14.00,2013-03-19 18:50:00,
2013-03-19 14:51:00,74.2,59.4,29.93,NNW,335,16.0,18.0,60,0.00,,---,0.00,888.00,VWS V14.00,2013-03-19 18:51:00,
2013-03-19 14:52:00,74.0,59.7,29.93,NW,307,13.0,18.0,61,0.00,,---,0.00,886.00,VWS V14.00,2013-03-19 18:52:00,
2013-03-19 14:53:00,73.9,59.6,29.93,NNW,330,11.0,18.0,61,0.00,,---,0.00,888.00,VWS V14.00,2013-03-19 18:53:00,
2013-03-19 14:54:00,73.8,60.0,29.93,NNW,342,13.0,18.0,62,0.00,,---,0.00,889.00,VWS V14.00,2013-03-19 18:54:00,
2013-03-19 14:55:00,73.8,60.0,29.93,WNW,297,9.0,20.0,62,0.00,,---,0.00,888.00,VWS V14.00,2013-03-19 18:55:00,
2013-03-19 14:56:00,74.0,59.7,29.93,NW,308,8.0,20.0,61,0.00,,---,0.00,888.00,VWS V14.00,2013-03-19 18:56:00,
2013-03-19 14:57:00,74.2,59.4,29.93,NW,321,17.0,20.0,60,0.00,,---,0.00,888.00,VWS V14.00,2013-03-19 18:57:00,
2013-03-19 14:58:00,74.1,59.3,29.93,WNW,301,15.0,20.0,60,0.00,,---,0.00,884.00,VWS V14.00,2013-03-19 18:58:00,
2013-03-19 14:59:00,74.1,59.3,29.93,WNW,302,13.0,20.0,60,0.00,,---,0.00,888.00,VWS V14.00,2013-03-19 18:59:00,
2013-03-19 15:00:00,74.1,58.9,29.93,WNW,303,11.0,20.0,59,0.00,,---,0.00,886.00,VWS V14.00,2013-03-19 19:00:00,
2013-03-19 15:01:00,74.2,59.0,29.93,NW,306,5.0,11.0,59,0.00,,---,0.00,896.00,VWS V14.00,2013-03-19 19:01:00,
2013-03-19 15:02:00,74.3,59.1,29.92,NW,314,8.0,11.0,59,0.00,,---,0.00,896.00,VWS V14.00,2013-03-19 19:02:00,
2013-03-19 15:03:00,74.4,59.2,29.92,NW,318,12.0,14.0,59,0.00,,---,0.00,898.00,VWS V14.00,2013-03-19 19:03:00,
2013-03-19 15:04:00,74.4,58.7,29.93,NW,321,12.0,14.0,58,0.00,,---,0.00,911.00,VWS V14.00,2013-03-19 19:04:00,
2013-03-19 15:05:00,74.5,58.3,29.93,NW,318,12.0,15.0,57,0.00,,---,0.00,926.00,VWS V14.00,2013-03-19 19:05:00,
2013-03-19 15:06:00,74.5,58.3,29.93,WNW,294,16.0,17.0,57,0.00,,---,0.00,937.00,VWS V14.00,2013-03-19 19:06:00,
2013-03-19 15:07:00,74.5,58.3,29.93,NW,308,8.0,17.0,57,0.00,,---,0.00,967.00,VWS V14.00,2013-03-19 19:07:00,
2013-03-19 15:08:00,74.6,58.4,29.93,West,276,10.0,19.0,57,0.00,,---,0.00,981.00,VWS V14.00,2013-03-19 19:08:00,
2013-03-19 15:09:00,74.6,58.9,29.93,WNW,293,11.0,19.0,58,0.00,,---,0.00,926.00,VWS V14.00,2013-03-19 19:09:00,
2013-03-19 15:10:00,74.6,58.9,29.93,NW,325,7.0,19.0,58,0.00,,---,0.00,960.00,VWS V14.00,2013-03-19 19:10:00,
2013-03-19 15:11:00,74.6,58.4,29.92,NNW,331,6.0,19.0,57,0.00,,---,0.00,949.00,VWS V14.00,2013-03-19 19:11:00,
2013-03-19 15:12:00,74.7,59.0,29.92,NNW,343,5.0,19.0,58,0.00,,---,0.00,949.00,VWS V14.00,2013-03-19 19:12:00,
2013-03-19 15:13:00,74.7,59.0,29.92,NNW,341,11.0,19.0,58,0.00,,---,0.00,831.00,VWS V14.00,2013-03-19 19:13:00,
2013-03-19 15:14:00,74.6,58.9,29.92,WNW,288,7.0,20.0,58,0.00,,---,0.00,831.00,VWS V14.00,2013-03-19 19:14:00,
2013-03-19 15:15:00,74.6,58.4,29.92,WNW,295,4.0,20.0,57,0.00,,---,0.00,831.00,VWS V14.00,2013-03-19 19:15:00,
2013-03-19 15:16:00,74.7,59.0,29.92,West,279,8.0,20.0,58,0.00,,---,0.00,575.00,VWS V14.00,2013-03-19 19:16:00,
2013-03-19 15:17:00,74.7,59.0,29.92,WNW,293,12.0,20.0,58,0.00,,---,0.00,487.00,VWS V14.00,2013-03-19 19:17:00,
2013-03-19 15:18:00,74.7,58.5,29.92,WNW,286,10.0,20.0,57,0.00,,---,0.00,501.00,VWS V14.00,2013-03-19 19:18:00,
2013-03-19 15:19:00,74.7,59.0,29.92,NW,318,9.0,20.0,58,0.00,,---,0.00,431.00,VWS V14.00,2013-03-19 19:19:00,
2013-03-19 15:20:00,74.7,59.0,29.92,West,272,7.0,20.0,58,0.00,,---,0.00,399.00,VWS V14.00,2013-03-19 19:20:00,
2013-03-19 15:21:00,74.7,59.0,29.92,WNW,295,9.0,20.0,58,0.00,,---,0.00,399.00,VWS V14.00,2013-03-19 19:21:00,
2013-03-19 15:22:00,74.7,58.5,29.92,NW,312,7.0,20.0,57,0.00,,---,0.00,371.00,VWS V14.00,2013-03-19 19:22:00,
2013-03-19 15:23:00,74.6,58.4,29.92,NW,316,9.0,20.0,57,0.00,,---,0.00,394.00,VWS V14.00,2013-03-19 19:23:00,
2013-03-19 15:24:00,74.6,58.4,29.92,WNW,291,7.0,20.0,57,0.00,,---,0.00,432.00,VWS V14.00,2013-03-19 19:24:00,
2013-03-19 15:25:00,74.6,58.4,29.92,WNW,290,9.0,20.0,57,0.00,,---,0.00,429.00,VWS V14.00,2013-03-19 19:25:00,
2013-03-19 15:26:00,74.6,58.4,29.92,WNW,299,4.0,20.0,57,0.00,,---,0.00,455.00,VWS V14.00,2013-03-19 19:26:00,
2013-03-19 15:27:00,74.7,59.0,29.92,WNW,291,7.0,20.0,58,0.00,,---,0.00,455.00,VWS V14.00,2013-03-19 19:27:00,
2013-03-19 15:28:00,74.7,59.0,29.92,NW,314,8.0,20.0,58,0.00,,---,0.00,480.00,VWS V14.00,2013-03-19 19:28:00,
2013-03-19 15:29:00,74.8,59.5,29.92,WNW,298,7.0,20.0,59,0.00,,---,0.00,480.00,VWS V14.00,2013-03-19 19:29:00,
2013-03-19 15:30:00,74.8,59.0,29.92,NW,308,3.0,20.0,58,0.00,,---,0.00,803.00,VWS V14.00,2013-03-19 19:30:00,
2013-03-19 15:31:00,74.8,59.0,29.92,NW,308,2.0,5.0,58,0.00,,---,0.00,439.00,VWS V14.00,2013-03-19 19:31:00,
2013-03-19 15:32:00,74.8,59.0,29.92,NW,322,9.0,9.0,58,0.00,,---,0.00,399.00,VWS V14.00,2013-03-19 19:32:00,
2013-03-19 15:33:00,74.9,59.6,29.92,NNW,334,7.0,11.0,59,0.00,,---,0.00,399.00,VWS V14.00,2013-03-19 19:33:00,
2013-03-19 15:34:00,74.9,59.6,29.92,NNW,334,6.0,11.0,59,0.00,,---,0.00,399.00,VWS V14.00,2013-03-19 19:34:00,
2013-03-19 15:35:00,74.8,59.0,29.92,NNW,332,5.0,11.0,58,0.00,,---,0.00,399.00,VWS V14.00,2013-03-19 19:35:00,
2013-03-19 15:36:00,74.8,59.5,29.92,WNW,290,9.0,16.0,59,0.00,,---,0.00,399.00,VWS V14.00,2013-03-19 19:36:00,
2013-03-19 15:37:00,74.7,59.4,29.92,NW,308,5.0,16.0,59,0.00,,---,0.00,399.00,VWS V14.00,2013-03-19 19:37:00,
2013-03-19 15:38:00,74.8,59.5,29.92,NNW,331,11.0,16.0,59,0.00,,---,0.00,399.00,VWS V14.00,2013-03-19 19:38:00,
2013-03-19 15:39:00,74.7,59.0,29.92,NNW,336,11.0,16.0,58,0.00,,---,0.00,504.00,VWS V14.00,2013-03-19 19:39:00,
2013-03-19 15:40:00,74.6,58.9,29.92,NNW,330,11.0,16.0,58,0.00,,---,0.00,504.00,VWS V14.00,2013-03-19 19:40:00,
2013-03-19 15:41:00,74.4,58.7,29.92,NW,326,9.0,16.0,58,0.00,,---,0.00,504.00,VWS V14.00,2013-03-19 19:41:00,
2013-03-19 15:42:00,74.4,59.6,29.92,NW,322,8.0,16.0,60,0.00,,---,0.00,381.00,VWS V14.00,2013-03-19 19:42:00,
2013-03-19 15:43:00,74.2,59.4,29.92,NW,324,7.0,16.0,60,0.00,,---,0.00,390.00,VWS V14.00,2013-03-19 19:43:00,
2013-03-19 15:44:00,74.2,59.0,29.92,NW,323,6.0,16.0,59,0.00,,---,0.00,390.00,VWS V14.00,2013-03-19 19:44:00,
2013-03-19 15:45:00,74.2,59.4,29.92,NW,324,6.0,16.0,60,0.00,,---,0.00,390.00,VWS V14.00,2013-03-19 19:45:00,
2013-03-19 15:46:00,74.1,59.3,29.92,NNW,328,8.0,16.0,60,0.00,,---,0.00,390.00,VWS V14.00,2013-03-19 19:46:00,
2013-03-19 15:47:00,74.1,58.9,29.92,NW,326,7.0,16.0,59,0.00,,---,0.00,390.00,VWS V14.00,2013-03-19 19:47:00,
2013-03-19 15:48:00,74.2,59.0,29.92,NW,326,4.0,16.0,59,0.00,,---,0.00,870.00,VWS V14.00,2013-03-19 19:48:00,
2013-03-19 15:49:00,74.2,59.4,29.92,NW,325,4.0,16.0,60,0.00,,---,0.00,854.00,VWS V14.00,2013-03-19 19:49:00,
2013-03-19 15:50:00,74.3,60.0,29.92,NW,324,3.0,16.0,61,0.00,,---,0.00,835.00,VWS V14.00,2013-03-19 19:50:00,
2013-03-19 15:51:00,74.4,60.1,29.92,NW,326,4.0,16.0,61,0.00,,---,0.00,824.00,VWS V14.00,2013-03-19 19:51:00,
2013-03-19 15:52:00,74.6,59.3,29.92,West,260,6.0,16.0,59,0.00,,---,0.00,812.00,VWS V14.00,2013-03-19 19:52:00,
2013-03-19 15:53:00,74.8,59.0,29.92,West,264,5.0,16.0,58,0.00,,---,0.00,791.00,VWS V14.00,2013-03-19 19:53:00,
2013-03-19 15:54:00,75.0,59.2,29.92,NW,322,9.0,16.0,58,0.00,,---,0.00,782.00,VWS V14.00,2013-03-19 19:54:00,
2013-03-19 15:55:00,75.1,57.8,29.92,NW,316,6.0,16.0,55,0.00,,---,0.00,777.00,VWS V14.00,2013-03-19 19:55:00,
2013-03-19 15:56:00,75.3,58.5,29.92,NW,316,4.0,16.0,56,0.00,,---,0.00,773.00,VWS V14.00,2013-03-19 19:56:00,
2013-03-19 15:57:00,75.3,58.0,29.92,NW,316,2.0,16.0,55,0.00,,---,0.00,763.00,VWS V14.00,2013-03-19 19:57:00,
2013-03-19 15:58:00,75.5,58.7,29.92,WNW,292,7.0,16.0,56,0.00,,---,0.00,758.00,VWS V14.00,2013-03-19 19:58:00,
2013-03-19 15:59:00,75.6,58.8,29.92,NW,326,7.0,16.0,56,0.00,,---,0.00,749.00,VWS V14.00,2013-03-19 19:59:00,
2013-03-19 16:00:00,75.7,59.9,29.92,WNW,295,8.0,16.0,58,0.00,,---,0.00,745.00,VWS V14.00,2013-03-19 20:00:00,
2013-03-19 16:01:00,75.8,59.0,29.92,WNW,300,7.0,11.0,56,0.00,,---,0.00,742.00,VWS V14.00,2013-03-19 20:01:00,
2013-03-19 16:02:00,75.8,58.5,29.92,WNW,300,3.0,11.0,55,0.00,,---,0.00,742.00,VWS V14.00,2013-03-19 20:02:00,
2013-03-19 16:03:00,75.9,58.6,29.92,WNW,296,4.0,12.0,55,0.00,,---,0.00,740.00,VWS V14.00,2013-03-19 20:03:00,
2013-03-19 16:04:00,76.0,58.2,29.92,NW,308,8.0,13.0,54,0.00,,---,0.00,737.00,VWS V14.00,2013-03-19 20:04:00,
2013-03-19 16:05:00,76.1,57.8,29.92,West,269,8.0,13.0,53,0.00,,---,0.00,738.00,VWS V14.00,2013-03-19 20:05:00,
2013-03-19 16:06:00,76.1,58.3,29.92,WNW,293,4.0,13.0,54,0.00,,---,0.00,733.00,VWS V14.00,2013-03-19 20:06:00,
2013-03-19 16:07:00,76.2,57.8,29.92,West,274,10.0,13.0,53,0.00,,---,0.00,724.00,VWS V14.00,2013-03-19 20:07:00,
2013-03-19 16:08:00,76.2,57.8,29.92,WSW,256,9.0,13.0,53,0.00,,---,0.00,722.00,VWS V14.00,2013-03-19 20:08:00,
2013-03-19 16:09:00,76.2,57.8,29.92,West,265,11.0,13.0,53,0.00,,---,0.00,719.00,VWS V14.00,2013-03-19 20:09:00,
2013-03-19 16:10:00,76.2,58.4,29.92,WNW,288,7.0,13.0,54,0.00,,---,0.00,719.00,VWS V14.00,2013-03-19 20:10:00,
2013-03-19 16:11:00,76.3,58.5,29.92,NW,315,4.0,13.0,54,0.00,,---,0.00,708.00,VWS V14.00,2013-03-19 20:11:00,
2013-03-19 16:12:00,76.4,58.5,29.91,NW,312,6.0,13.0,54,0.00,,---,0.00,707.00,VWS V14.00,2013-03-19 20:12:00,
2013-03-19 16:13:00,76.4,58.5,29.91,WNW,291,5.0,13.0,54,0.00,,---,0.00,707.00,VWS V14.00,2013-03-19 20:13:00,
2013-03-19 16:14:00,76.5,58.1,29.92,West,273,6.0,13.0,53,0.00,,---,0.00,703.00,VWS V14.00,2013-03-19 20:14:00,
2013-03-19 16:15:00,76.5,58.6,29.92,West,278,1.0,13.0,54,0.00,,---,0.00,701.00,VWS V14.00,2013-03-19 20:15:00,
2013-03-19 16:16:00,76.6,58.7,29.91,WNW,288,4.0,13.0,54,0.00,,---,0.00,694.00,VWS V14.00,2013-03-19 20:16:00,
2013-03-19 16:17:00,76.7,58.8,29.91,West,275,8.0,13.0,54,0.00,,---,0.00,686.00,VWS V14.00,2013-03-19 20:17:00,
2013-03-19 16:18:00,76.8,58.9,29.92,West,266,9.0,13.0,54,0.00,,---,0.00,682.00,VWS V14.00,2013-03-19 20:18:00,
2013-03-19 16:19:00,76.7,58.3,29.91,WNW,290,8.0,13.0,53,0.00,,---,0.00,686.00,VWS V14.00,2013-03-19 20:19:00,
2013-03-19 16:20:00,76.7,58.3,29.91,WNW,282,10.0,13.0,53,0.00,,---,0.00,684.00,VWS V14.00,2013-03-19 20:20:00,
2013-03-19 16:21:00,76.7,58.3,29.91,West,273,5.0,13.0,53,0.00,,---,0.00,680.00,VWS V14.00,2013-03-19 20:21:00,
2013-03-19 16:22:00,76.7,58.3,29.91,West,273,3.0,13.0,53,0.00,,---,0.00,679.00,VWS V14.00,2013-03-19 20:22:00,
2013-03-19 16:23:00,76.7,58.8,29.91,WNW,287,3.0,13.0,54,0.00,,---,0.00,675.00,VWS V14.00,2013-03-19 20:23:00,
2013-03-19 16:24:00,76.7,58.8,29.91,WNW,287,1.0,13.0,54,0.00,,---,0.00,671.00,VWS V14.00,2013-03-19 20:24:00,
2013-03-19 16:25:00,76.8,58.9,29.91,WNW,287,3.0,13.0,54,0.00,,---,0.00,670.00,VWS V14.00,2013-03-19 20:25:00,
2013-03-19 16:26:00,76.9,59.0,29.91,NW,322,5.0,13.0,54,0.00,,---,0.00,666.00,VWS V14.00,2013-03-19 20:26:00,
2013-03-19 16:27:00,77.0,58.6,29.91,NW,322,2.0,13.0,53,0.00,,---,0.00,661.00,VWS V14.00,2013-03-19 20:27:00,
2013-03-19 16:28:00,77.2,59.3,29.91,NNW,328,4.0,13.0,54,0.00,,---,0.00,656.00,VWS V14.00,2013-03-19 20:28:00,
2013-03-19 16:29:00,77.3,60.4,29.91,NW,321,5.0,13.0,56,0.00,,---,0.00,650.00,VWS V14.00,2013-03-19 20:29:00,
2013-03-19 16:30:00,77.4,59.0,29.91,NW,321,3.0,13.0,53,0.00,,---,0.00,650.00,VWS V14.00,2013-03-19 20:30:00,
2013-03-19 16:31:00,77.5,59.6,29.91,NW,326,8.0,8.0,54,0.00,,---,0.00,650.00,VWS V14.00,2013-03-19 20:31:00,
2013-03-19 16:32:00,77.6,59.1,29.91,NW,308,4.0,9.0,53,0.00,,---,0.00,645.00,VWS V14.00,2013-03-19 20:32:00,
2013-03-19 16:33:00,77.7,58.7,29.91,NW,307,3.0,9.0,52,0.00,,---,0.00,643.00,VWS V14.00,2013-03-19 20:33:00,
2013-03-19 16:34:00,77.7,58.2,29.91,WNW,287,7.0,9.0,51,0.00,,---,0.00,635.00,VWS V14.00,2013-03-19 20:34:00,
2013-03-19 16:35:00,77.8,58.2,29.91,WNW,291,9.0,12.0,51,0.00,,---,0.00,633.00,VWS V14.00,2013-03-19 20:35:00,
2013-03-19 16:36:00,77.8,58.2,29.91,NNW,328,6.0,12.0,51,0.00,,---,0.00,629.00,VWS V14.00,2013-03-19 20:36:00,
2013-03-19 16:37:00,77.8,58.2,29.91,WNW,285,8.0,12.0,51,0.00,,---,0.00,626.00,VWS V14.00,2013-03-19 20:37:00,
2013-03-19 16:38:00,77.8,58.8,29.91,WNW,296,8.0,12.0,52,0.00,,---,0.00,622.00,VWS V14.00,2013-03-19 20:38:00,
2013-03-19 16:39:00,77.8,58.2,29.91,WNW,288,5.0,12.0,51,0.00,,---,0.00,617.00,VWS V14.00,2013-03-19 20:39:00,
2013-03-19 16:40:00,77.8,58.2,29.91,West,266,7.0,12.0,51,0.00,,---,0.00,610.00,VWS V14.00,2013-03-19 20:40:00,
2013-03-19 16:41:00,77.7,58.2,29.91,West,272,5.0,12.0,51,0.00,,---,0.00,610.00,VWS V14.00,2013-03-19 20:41:00,
2013-03-19 16:42:00,77.7,58.7,29.91,West,264,5.0,12.0,52,0.00,,---,0.00,601.00,VWS V14.00,2013-03-19 20:42:00,
2013-03-19 16:43:00,77.7,58.7,29.91,West,264,6.0,12.0,52,0.00,,---,0.00,598.00,VWS V14.00,2013-03-19 20:43:00,
2013-03-19 16:44:00,77.7,58.2,29.91,West,263,5.0,12.0,51,0.00,,---,0.00,599.00,VWS V14.00,2013-03-19 20:44:00,
2013-03-19 16:45:00,77.7,58.2,29.91,West,262,3.0,12.0,51,0.00,,---,0.00,598.00,VWS V14.00,2013-03-19 20:45:00,
2013-03-19 16:46:00,77.7,58.2,29.91,West,263,1.0,12.0,51,0.00,,---,0.00,592.00,VWS V14.00,2013-03-19 20:46:00,
2013-03-19 16:47:00,77.7,58.7,29.91,West,280,3.0,12.0,52,0.00,,---,0.00,587.00,VWS V14.00,2013-03-19 20:47:00,
2013-03-19 16:48:00,77.8,58.2,29.91,West,280,3.0,12.0,51,0.00,,---,0.00,585.00,VWS V14.00,2013-03-19 20:48:00,
2013-03-19 16:49:00,77.9,58.9,29.91,West,280,0.0,12.0,52,0.00,,---,0.00,584.00,VWS V14.00,2013-03-19 20:49:00,
2013-03-19 16:50:00,78.0,59.0,29.91,West,266,2.0,12.0,52,0.00,,---,0.00,582.00,VWS V14.00,2013-03-19 20:50:00,
2013-03-19 16:51:00,78.1,58.5,29.91,WSW,254,3.0,12.0,51,0.00,,---,0.00,578.00,VWS V14.00,2013-03-19 20:51:00,
2013-03-19 16:52:00,78.1,57.4,29.91,WSW,256,5.0,12.0,49,0.00,,---,0.00,577.00,VWS V14.00,2013-03-19 20:52:00,
2013-03-19 16:53:00,78.2,56.9,29.91,WNW,287,2.0,12.0,48,0.00,,---,0.00,568.00,VWS V14.00,2013-03-19 20:53:00,
2013-03-19 16:54:00,78.2,58.1,29.91,West,277,9.0,12.0,50,0.00,,---,0.00,564.00,VWS V14.00,2013-03-19 20:54:00,
2013-03-19 16:55:00,78.2,56.3,29.91,West,276,9.0,13.0,47,0.00,,---,0.00,561.00,VWS V14.00,2013-03-19 20:55:00,
2013-03-19 16:56:00,78.2,55.1,29.91,WNW,299,5.0,13.0,45,0.00,,---,0.00,559.00,VWS V14.00,2013-03-19 20:56:00,
2013-03-19 16:57:00,78.2,55.8,29.91,NW,307,8.0,13.0,46,0.00,,---,0.00,559.00,VWS V14.00,2013-03-19 20:57:00,
2013-03-19 16:58:00,78.2,56.3,29.91,NW,316,4.0,13.0,47,0.00,,---,0.00,559.00,VWS V14.00,2013-03-19 20:58:00,
2013-03-19 16:59:00,78.3,56.4,29.91,NNW,330,6.0,13.0,47,0.00,,---,0.00,559.00,VWS V14.00,2013-03-19 20:59:00,
2013-03-19 17:00:00,78.3,56.4,29.91,NNW,329,7.0,13.0,47,0.00,,---,0.00,557.00,VWS V14.00,2013-03-19 21:00:00,
2013-03-19 17:01:00,78.4,57.7,29.91,NNW,328,8.0,10.0,49,0.00,,---,0.00,554.00,VWS V14.00,2013-03-19 21:01:00,
2013-03-19 17:02:00,78.3,57.6,29.91,NW,325,11.0,11.0,49,0.00,,---,0.00,548.00,VWS V14.00,2013-03-19 21:02:00,
2013-03-19 17:03:00,78.1,56.8,29.91,NW,324,9.0,11.0,48,0.00,,---,0.00,543.00,VWS V14.00,2013-03-19 21:03:00,
2013-03-19 17:04:00,78.0,57.3,29.91,NNW,335,11.0,11.0,49,0.00,,---,0.00,540.00,VWS V14.00,2013-03-19 21:04:00,
2013-03-19 17:05:00,77.8,57.7,29.91,NW,321,11.0,12.0,50,0.00,,---,0.00,540.00,VWS V14.00,2013-03-19 21:05:00,
2013-03-19 17:06:00,77.6,57.5,29.91,NNW,328,11.0,12.0,50,0.00,,---,0.00,529.00,VWS V14.00,2013-03-19 21:06:00,
2013-03-19 17:07:00,77.5,56.9,29.91,NW,326,11.0,12.0,49,0.00,,---,0.00,533.00,VWS V14.00,2013-03-19 21:07:00,
2013-03-19 17:08:00,77.4,58.4,29.91,NW,326,12.0,15.0,52,0.00,,---,0.00,531.00,VWS V14.00,2013-03-19 21:08:00,
2013-03-19 17:09:00,77.2,58.8,29.91,NW,321,13.0,15.0,53,0.00,,---,0.00,520.00,VWS V14.00,2013-03-19 21:09:00,
2013-03-19 17:10:00,77.0,57.5,29.91,NNW,332,13.0,15.0,51,0.00,,---,0.00,512.00,VWS V14.00,2013-03-19 21:10:00,
2013-03-19 17:11:00,76.9,58.0,29.91,NNW,333,12.0,15.0,52,0.00,,---,0.00,504.00,VWS V14.00,2013-03-19 21:11:00,
2013-03-19 17:12:00,76.7,58.8,29.91,NW,319,11.0,15.0,54,0.00,,---,0.00,501.00,VWS V14.00,2013-03-19 21:12:00,
2013-03-19 17:13:00,76.7,57.8,29.91,NNW,335,12.0,15.0,52,0.00,,---,0.00,499.00,VWS V14.00,2013-03-19 21:13:00,
2013-03-19 17:14:00,76.7,56.7,29.91,NW,311,7.0,15.0,50,0.00,,---,0.00,496.00,VWS V14.00,2013-03-19 21:14:00,
2013-03-19 17:15:00,76.8,56.8,29.91,NW,313,8.0,15.0,50,0.00,,---,0.00,494.00,VWS V14.00,2013-03-19 21:15:00,
2013-03-19 17:16:00,76.9,56.3,29.91,NW,315,10.0,15.0,49,0.00,,---,0.00,478.00,VWS V14.00,2013-03-19 21:16:00,
2013-03-19 17:17:00,77.0,56.4,29.92,NW,320,11.0,15.0,49,0.00,,---,0.00,480.00,VWS V14.00,2013-03-19 21:17:00,
2013-03-19 17:18:00,77.0,56.4,29.91,WNW,294,10.0,15.0,49,0.00,,---,0.00,478.00,VWS V14.00,2013-03-19 21:18:00,
2013-03-19 17:19:00,77.1,57.0,29.92,WNW,301,8.0,15.0,50,0.00,,---,0.00,476.00,VWS V14.00,2013-03-19 21:19:00,
2013-03-19 17:20:00,77.1,57.0,29.91,NW,314,8.0,15.0,50,0.00,,---,0.00,478.00,VWS V14.00,2013-03-19 21:20:00,
2013-03-19 17:21:00,77.1,56.5,29.91,NNW,334,8.0,15.0,49,0.00,,---,0.00,476.00,VWS V14.00,2013-03-19 21:21:00,
2013-03-19 17:22:00,77.1,57.6,29.91,NW,326,10.0,15.0,51,0.00,,---,0.00,476.00,VWS V14.00,2013-03-19 21:22:00,
2013-03-19 17:23:00,77.1,57.0,29.91,NW,324,8.0,15.0,50,0.00,,---,0.00,473.00,VWS V14.00,2013-03-19 21:23:00,
2013-03-19 17:24:00,77.0,57.5,29.91,NNW,329,8.0,15.0,51,0.00,,---,0.00,469.00,VWS V14.00,2013-03-19 21:24:00,
2013-03-19 17:25:00,76.9,58.0,29.91,NNW,337,11.0,15.0,52,0.00,,---,0.00,466.00,VWS V14.00,2013-03-19 21:25:00,
2013-03-19 17:26:00,76.7,57.8,29.91,NNW,328,10.0,15.0,52,0.00,,---,0.00,459.00,VWS V14.00,2013-03-19 21:26:00,
2013-03-19 17:27:00,76.7,57.2,29.91,NW,320,11.0,15.0,51,0.00,,---,0.00,446.00,VWS V14.00,2013-03-19 21:27:00,
2013-03-19 17:28:00,76.7,57.2,29.91,NNW,328,10.0,15.0,51,0.00,,---,0.00,441.00,VWS V14.00,2013-03-19 21:28:00,
2013-03-19 17:29:00,76.7,57.2,29.91,NNW,338,13.0,15.0,51,0.00,,---,0.00,436.00,VWS V14.00,2013-03-19 21:29:00,
2013-03-19 17:30:00,76.6,57.7,29.92,NNW,330,13.0,15.0,52,0.00,,---,0.00,431.00,VWS V14.00,2013-03-19 21:30:00,
2013-03-19 17:31:00,76.6,58.7,29.92,NNW,330,12.0,15.0,54,0.00,,---,0.00,427.00,VWS V14.00,2013-03-19 21:31:00,
2013-03-19 17:32:00,76.4,58.5,29.92,NW,322,11.0,15.0,54,0.00,,---,0.00,422.00,VWS V14.00,2013-03-19 21:32:00,
2013-03-19 17:33:00,76.3,57.9,29.92,NW,324,13.0,15.0,53,0.00,,---,0.00,415.00,VWS V14.00,2013-03-19 21:33:00,
2013-03-19 17:34:00,76.2,58.9,29.92,NNW,331,16.0,16.0,55,0.00,,---,0.00,413.00,VWS V14.00,2013-03-19 21:34:00,
2013-03-19 17:35:00,76.0,59.2,29.92,NNW,341,13.0,19.0,56,0.00,,---,0.00,406.00,VWS V14.00,2013-03-19 21:35:00,
2013-03-19 17:36:00,75.9,58.1,29.92,NNW,333,15.0,19.0,54,0.00,,---,0.00,408.00,VWS V14.00,2013-03-19 21:36:00,
2013-03-19 17:37:00,75.8,57.5,29.92,North,349,9.0,19.0,53,0.00,,---,0.00,403.00,VWS V14.00,2013-03-19 21:37:00,
2013-03-19 17:38:00,75.8,59.0,29.92,NNW,337,16.0,19.0,56,0.00,,---,0.00,399.00,VWS V14.00,2013-03-19 21:38:00,
2013-03-19 17:39:00,75.7,57.9,29.92,NNW,344,14.0,19.0,54,0.00,,---,0.00,390.00,VWS V14.00,2013-03-19 21:39:00,
2013-03-19 17:40:00,75.6,57.8,29.92,NW,311,9.0,19.0,54,0.00,,---,0.00,380.00,VWS V14.00,2013-03-19 21:40:00,
2013-03-19 17:41:00,75.6,57.8,29.92,NNW,332,15.0,19.0,54,0.00,,---,0.00,369.00,VWS V14.00,2013-03-19 21:41:00,
2013-03-19 17:42:00,75.5,58.2,29.92,NW,319,11.0,19.0,55,0.00,,---,0.00,369.00,VWS V14.00,2013-03-19 21:42:00,
2013-03-19 17:43:00,75.5,57.7,29.92,NW,324,14.0,19.0,54,0.00,,---,0.00,359.00,VWS V14.00,2013-03-19 21:43:00,
2013-03-19 17:44:00,75.4,57.6,29.92,NW,314,14.0,19.0,54,0.00,,---,0.00,359.00,VWS V14.00,2013-03-19 21:44:00,
2013-03-19 17:45:00,75.5,57.2,29.92,NW,320,15.0,19.0,53,0.00,,---,0.00,346.00,VWS V14.00,2013-03-19 21:45:00,
2013-03-19 17:46:00,75.5,57.7,29.92,NW,322,10.0,19.0,54,0.00,,---,0.00,304.00,VWS V14.00,2013-03-19 21:46:00,
2013-03-19 17:47:00,75.5,57.7,29.92,NW,326,11.0,19.0,54,0.00,,---,0.00,334.00,VWS V14.00,2013-03-19 21:47:00,
2013-03-19 17:48:00,75.5,57.7,29.92,NNW,341,11.0,19.0,54,0.00,,---,0.00,336.00,VWS V14.00,2013-03-19 21:48:00,
2013-03-19 17:49:00,75.5,58.7,29.92,NW,319,11.0,19.0,56,0.00,,---,0.00,295.00,VWS V14.00,2013-03-19 21:49:00,
2013-03-19 17:50:00,75.4,58.1,29.92,NNW,333,12.0,19.0,55,0.00,,---,0.00,295.00,VWS V14.00,2013-03-19 21:50:00,
2013-03-19 17:51:00,75.4,59.1,29.92,NNW,341,11.0,19.0,57,0.00,,---,0.00,329.00,VWS V14.00,2013-03-19 21:51:00,
2013-03-19 17:52:00,75.3,59.0,29.92,NNW,335,11.0,19.0,57,0.00,,---,0.00,329.00,VWS V14.00,2013-03-19 21:52:00,
2013-03-19 17:53:00,75.2,57.9,29.92,NNW,337,13.0,19.0,55,0.00,,---,0.00,329.00,VWS V14.00,2013-03-19 21:53:00,
2013-03-19 17:54:00,75.2,57.9,29.92,NNW,346,11.0,19.0,55,0.00,,---,0.00,244.00,VWS V14.00,2013-03-19 21:54:00,
2013-03-19 17:55:00,75.2,57.9,29.92,NW,324,11.0,19.0,55,0.00,,---,0.00,313.00,VWS V14.00,2013-03-19 21:55:00,
2013-03-19 17:56:00,75.2,57.9,29.92,NW,323,15.0,19.0,55,0.00,,---,0.00,294.00,VWS V14.00,2013-03-19 21:56:00,
2013-03-19 17:57:00,75.2,57.4,29.92,NW,321,13.0,19.0,54,0.00,,---,0.00,304.00,VWS V14.00,2013-03-19 21:57:00,
2013-03-19 17:58:00,75.2,57.9,29.92,NNW,327,11.0,19.0,55,0.00,,---,0.00,299.00,VWS V14.00,2013-03-19 21:58:00,
2013-03-19 17:59:00,75.1,57.3,29.93,NW,318,14.0,19.0,54,0.00,,---,0.00,295.00,VWS V14.00,2013-03-19 21:59:00,
2013-03-19 18:00:00,75.1,57.3,29.92,NW,324,11.0,19.0,54,0.00,,---,0.00,292.00,VWS V14.00,2013-03-19 22:00:00,
2013-03-19 18:01:00,75.1,56.8,29.92,WNW,297,8.0,14.0,53,0.00,,---,0.00,288.00,VWS V14.00,2013-03-19 22:01:00,
2013-03-19 18:02:00,75.1,56.8,29.92,NW,313,6.0,14.0,53,0.00,,---,0.00,285.00,VWS V14.00,2013-03-19 22:02:00,
2013-03-19 18:03:00,75.2,56.9,29.92,NW,325,10.0,14.0,53,0.00,,---,0.00,278.00,VWS V14.00,2013-03-19 22:03:00,
2013-03-19 18:04:00,75.2,57.4,29.93,NNW,331,11.0,14.0,54,0.00,,---,0.00,274.00,VWS V14.00,2013-03-19 22:04:00,
2013-03-19 18:05:00,75.2,57.4,29.93,NW,320,10.0,14.0,54,0.00,,---,0.00,269.00,VWS V14.00,2013-03-19 22:05:00,
2013-03-19 18:06:00,75.2,56.4,29.93,NNW,335,15.0,15.0,52,0.00,,---,0.00,265.00,VWS V14.00,2013-03-19 22:06:00,
2013-03-19 18:07:00,75.2,56.9,29.92,NNW,331,15.0,17.0,53,0.00,,---,0.00,258.00,VWS V14.00,2013-03-19 22:07:00,
2013-03-19 18:08:00,75.2,56.4,29.93,NNW,334,13.0,17.0,52,0.00,,---,0.00,250.00,VWS V14.00,2013-03-19 22:08:00,
2013-03-19 18:09:00,75.1,56.3,29.93,NW,316,11.0,17.0,52,0.00,,---,0.00,244.00,VWS V14.00,2013-03-19 22:09:00,
2013-03-19 18:10:00,75.1,57.3,29.93,NW,326,14.0,17.0,54,0.00,,---,0.00,237.00,VWS V14.00,2013-03-19 22:10:00,
2013-03-19 18:11:00,75.0,56.2,29.93,NW,316,11.0,17.0,52,0.00,,---,0.00,232.00,VWS V14.00,2013-03-19 22:11:00,
2013-03-19 18:12:00,75.0,57.2,29.93,NNW,331,14.0,17.0,54,0.00,,---,0.00,227.00,VWS V14.00,2013-03-19 22:12:00,
2013-03-19 18:13:00,75.0,56.2,29.93,NNW,333,13.0,17.0,52,0.00,,---,0.00,223.00,VWS V14.00,2013-03-19 22:13:00,
2013-03-19 18:14:00,75.0,56.7,29.93,NNW,335,14.0,17.0,53,0.00,,---,0.00,214.00,VWS V14.00,2013-03-19 22:14:00,
2013-03-19 18:15:00,74.9,55.6,29.93,NW,326,10.0,17.0,51,0.00,,---,0.00,211.00,VWS V14.00,2013-03-19 22:15:00,
2013-03-19 18:16:00,75.0,55.7,29.93,NW,324,13.0,17.0,51,0.00,,---,0.00,207.00,VWS V14.00,2013-03-19 22:16:00,
2013-03-19 18:17:00,74.9,57.2,29.93,NW,320,14.0,17.0,54,0.00,,---,0.00,204.00,VWS V14.00,2013-03-19 22:17:00,
2013-03-19 18:18:00,74.9,56.6,29.93,NW,310,12.0,17.0,53,0.00,,---,0.00,200.00,VWS V14.00,2013-03-19 22:18:00,
2013-03-19 18:19:00,74.9,56.6,29.93,NNW,330,11.0,17.0,53,0.00,,---,0.00,200.00,VWS V14.00,2013-03-19 22:19:00,
2013-03-19 18:20:00,74.9,58.2,29.93,NW,326,12.0,17.0,56,0.00,,---,0.00,195.00,VWS V14.00,2013-03-19 22:20:00,
2013-03-19 18:21:00,74.8,57.1,29.93,NW,326,10.0,17.0,54,0.00,,---,0.00,195.00,VWS V14.00,2013-03-19 22:21:00,
2013-03-19 18:22:00,74.8,57.6,29.93,NNW,327,11.0,17.0,55,0.00,,---,0.00,160.00,VWS V14.00,2013-03-19 22:22:00,
2013-03-19 18:23:00,74.7,58.0,29.93,WNW,303,7.0,17.0,56,0.00,,---,0.00,114.00,VWS V14.00,2013-03-19 22:23:00,
2013-03-19 18:24:00,74.6,56.9,29.93,NW,304,6.0,17.0,54,0.00,,---,0.00,65.00,VWS V14.00,2013-03-19 22:24:00,
2013-03-19 18:25:00,74.6,57.4,29.93,NNW,336,9.0,17.0,55,0.00,,---,0.00,63.00,VWS V14.00,2013-03-19 22:25:00,
2013-03-19 18:26:00,74.6,57.4,29.93,NNW,327,13.0,17.0,55,0.00,,---,0.00,62.00,VWS V14.00,2013-03-19 22:26:00,
2013-03-19 18:27:00,74.5,57.3,29.93,NW,317,7.0,17.0,55,0.00,,---,0.00,63.00,VWS V14.00,2013-03-19 22:27:00,
2013-03-19 18:28:00,74.4,57.7,29.93,NW,315,7.0,17.0,56,0.00,,---,0.00,63.00,VWS V14.00,2013-03-19 22:28:00,
2013-03-19 18:29:00,74.4,57.7,29.93,NNW,328,12.0,17.0,56,0.00,,---,0.00,65.00,VWS V14.00,2013-03-19 22:29:00,
2013-03-19 18:30:00,74.3,58.1,29.93,NNW,333,11.0,17.0,57,0.00,,---,0.00,67.00,VWS V14.00,2013-03-19 22:30:00,
2013-03-19 18:31:00,74.3,58.1,29.93,NW,326,12.0,12.0,57,0.00,,---,0.00,69.00,VWS V14.00,2013-03-19 22:31:00,
2013-03-19 18:32:00,74.2,58.5,29.93,NW,316,13.0,13.0,58,0.00,,---,0.00,120.00,VWS V14.00,2013-03-19 22:32:00,
2013-03-19 18:33:00,74.2,57.5,29.93,NW,320,10.0,13.0,56,0.00,,---,0.00,105.00,VWS V14.00,2013-03-19 22:33:00,
2013-03-19 18:34:00,74.2,58.0,29.93,NNW,337,11.0,13.0,57,0.00,,---,0.00,86.00,VWS V14.00,2013-03-19 22:34:00,
2013-03-19 18:35:00,74.2,57.0,29.93,NW,324,12.0,13.0,55,0.00,,---,0.00,134.00,VWS V14.00,2013-03-19 22:35:00,
2013-03-19 18:36:00,74.3,57.1,29.93,NW,320,10.0,13.0,55,0.00,,---,0.00,134.00,VWS V14.00,2013-03-19 22:36:00,
2013-03-19 18:37:00,74.3,57.1,29.93,NNW,332,5.0,13.0,55,0.00,,---,0.00,120.00,VWS V14.00,2013-03-19 22:37:00,
2013-03-19 18:38:00,74.4,58.2,29.93,NW,322,10.0,13.0,57,0.00,,---,0.00,125.00,VWS V14.00,2013-03-19 22:38:00,
2013-03-19 18:39:00,74.4,57.7,29.94,NW,324,10.0,13.0,56,0.00,,---,0.00,121.00,VWS V14.00,2013-03-19 22:39:00,
2013-03-19 18:40:00,74.4,58.2,29.94,NNW,334,12.0,13.0,57,0.00,,---,0.00,118.00,VWS V14.00,2013-03-19 22:40:00,
2013-03-19 18:41:00,74.4,58.2,29.94,NNW,328,12.0,13.0,57,0.00,,---,0.00,116.00,VWS V14.00,2013-03-19 22:41:00,
2013-03-19 18:42:00,74.4,57.2,29.94,NW,325,9.0,13.0,55,0.00,,---,0.00,114.00,VWS V14.00,2013-03-19 22:42:00,
2013-03-19 18:43:00,74.4,57.7,29.93,NW,321,9.0,13.0,56,0.00,,---,0.00,107.00,VWS V14.00,2013-03-19 22:43:00,
2013-03-19 18:44:00,74.4,57.2,29.93,NNW,330,11.0,13.0,55,0.00,,---,0.00,104.00,VWS V14.00,2013-03-19 22:44:00,
2013-03-19 18:45:00,74.5,57.8,29.93,NW,321,8.0,13.0,56,0.00,,---,0.00,98.00,VWS V14.00,2013-03-19 22:45:00,
2013-03-19 18:46:00,74.5,57.8,29.93,NNW,334,5.0,13.0,56,0.00,,---,0.00,95.00,VWS V14.00,2013-03-19 22:46:00,
2013-03-19 18:47:00,74.5,56.8,29.93,NNW,333,9.0,13.0,54,0.00,,---,0.00,91.00,VWS V14.00,2013-03-19 22:47:00,
2013-03-19 18:48:00,74.5,57.8,29.94,NW,326,7.0,13.0,56,0.00,,---,0.00,88.00,VWS V14.00,2013-03-19 22:48:00,
2013-03-19 18:49:00,74.5,56.8,29.94,NW,326,6.0,13.0,54,0.00,,---,0.00,81.00,VWS V14.00,2013-03-19 22:49:00,
2013-03-19 18:50:00,74.5,57.8,29.94,NW,322,8.0,13.0,56,0.00,,---,0.00,77.00,VWS V14.00,2013-03-19 22:50:00,
2013-03-19 18:51:00,74.5,57.8,29.93,NW,314,8.0,13.0,56,0.00,,---,0.00,74.00,VWS V14.00,2013-03-19 22:51:00,
2013-03-19 18:52:00,74.5,57.3,29.94,NNW,331,11.0,13.0,55,0.00,,---,0.00,70.00,VWS V14.00,2013-03-19 22:52:00,
2013-03-19 18:53:00,74.5,57.3,29.94,NNW,337,11.0,13.0,55,0.00,,---,0.00,67.00,VWS V14.00,2013-03-19 22:53:00,
2013-03-19 18:54:00,74.5,57.8,29.94,NW,325,7.0,13.0,56,0.00,,---,0.00,63.00,VWS V14.00,2013-03-19 22:54:00,
2013-03-19 18:55:00,74.5,58.3,29.94,NW,318,6.0,13.0,57,0.00,,---,0.00,60.00,VWS V14.00,2013-03-19 22:55:00,
2013-03-19 18:56:00,74.5,57.8,29.94,NNW,339,9.0,13.0,56,0.00,,---,0.00,56.00,VWS V14.00,2013-03-19 22:56:00,
2013-03-19 18:57:00,74.4,58.2,29.94,NNW,330,9.0,13.0,57,0.00,,---,0.00,54.00,VWS V14.00,2013-03-19 22:57:00,
2013-03-19 18:58:00,74.4,57.2,29.94,NW,322,6.0,13.0,55,0.00,,---,0.00,53.00,VWS V14.00,2013-03-19 22:58:00,
2013-03-19 18:59:00,74.4,57.2,29.94,NNW,327,6.0,13.0,55,0.00,,---,0.00,49.00,VWS V14.00,2013-03-19 22:59:00,
2013-03-19 19:00:00,74.4,57.2,29.94,NW,323,10.0,13.0,55,0.00,,---,0.00,47.00,VWS V14.00,2013-03-19 23:00:00,
2013-03-19 19:01:00,74.3,57.6,29.94,NNW,331,7.0,12.0,56,0.00,,---,0.00,44.00,VWS V14.00,2013-03-19 23:01:00,
2013-03-19 19:02:00,74.3,58.1,29.94,NW,324,5.0,12.0,57,0.00,,---,0.00,40.00,VWS V14.00,2013-03-19 23:02:00,
2013-03-19 19:03:00,74.3,58.1,29.94,NW,318,4.0,12.0,57,0.00,,---,0.00,39.00,VWS V14.00,2013-03-19 23:03:00,
2013-03-19 19:04:00,74.2,57.5,29.94,NW,322,5.0,12.0,56,0.00,,---,0.00,37.00,VWS V14.00,2013-03-19 23:04:00,
2013-03-19 19:05:00,74.2,57.0,29.94,NW,326,9.0,12.0,55,0.00,,---,0.00,35.00,VWS V14.00,2013-03-19 23:05:00,
2013-03-19 19:06:00,74.2,57.0,29.94,NW,326,5.0,12.0,55,0.00,,---,0.00,33.00,VWS V14.00,2013-03-19 23:06:00,
2013-03-19 19:07:00,74.2,57.5,29.94,NW,324,8.0,12.0,56,0.00,,---,0.00,30.00,VWS V14.00,2013-03-19 23:07:00,
2013-03-19 19:08:00,74.1,57.9,29.94,NW,322,6.0,12.0,57,0.00,,---,0.00,28.00,VWS V14.00,2013-03-19 23:08:00,
2013-03-19 19:09:00,74.1,57.9,29.94,NNW,327,6.0,12.0,57,0.00,,---,0.00,25.00,VWS V14.00,2013-03-19 23:09:00,
2013-03-19 19:10:00,74.0,58.3,29.94,NNW,329,7.0,12.0,58,0.00,,---,0.00,21.00,VWS V14.00,2013-03-19 23:10:00,
2013-03-19 19:11:00,74.0,57.8,29.94,NW,322,7.0,12.0,57,0.00,,---,0.00,19.00,VWS V14.00,2013-03-19 23:11:00,
2013-03-19 19:12:00,74.0,57.8,29.94,NW,322,7.0,12.0,57,0.00,,---,0.00,19.00,VWS V14.00,2013-03-19 23:12:00,
2013-03-19 19:13:00,74.0,57.8,29.94,NW,322,7.0,12.0,57,0.00,,---,0.00,19.00,VWS V14.00,2013-03-19 23:13:00,
2013-03-19 19:14:00,73.8,57.6,29.94,NW,317,4.0,12.0,57,0.00,,---,0.00,16.00,VWS V14.00,2013-03-19 23:14:00,
2013-03-19 19:15:00,73.8,57.6,29.94,NW,315,6.0,12.0,57,0.00,,---,0.00,16.00,VWS V14.00,2013-03-19 23:15:00,
2013-03-19 19:16:00,73.7,57.5,29.94,NW,318,5.0,12.0,57,0.00,,---,0.00,14.00,VWS V14.00,2013-03-19 23:16:00,
2013-03-19 19:17:00,73.7,57.5,29.94,NW,317,5.0,12.0,57,0.00,,---,0.00,12.00,VWS V14.00,2013-03-19 23:17:00,
2013-03-19 19:18:00,73.6,57.0,29.94,NW,317,3.0,12.0,56,0.00,,---,0.00,12.00,VWS V14.00,2013-03-19 23:18:00,
2013-03-19 19:19:00,73.6,57.4,29.94,NW,317,4.0,12.0,57,0.00,,---,0.00,11.00,VWS V14.00,2013-03-19 23:19:00,
2013-03-19 19:20:00,73.6,57.4,29.94,NW,317,5.0,12.0,57,0.00,,---,0.00,9.00,VWS V14.00,2013-03-19 23:20:00,
2013-03-19 19:21:00,73.5,56.9,29.94,NW,317,4.0,12.0,56,0.00,,---,0.00,9.00,VWS V14.00,2013-03-19 23:21:00,
2013-03-19 19:22:00,73.5,57.3,29.94,NW,317,3.0,12.0,57,0.00,,---,0.00,7.00,VWS V14.00,2013-03-19 23:22:00,
2013-03-19 19:23:00,73.5,57.3,29.94,NW,317,2.0,12.0,57,0.00,,---,0.00,7.00,VWS V14.00,2013-03-19 23:23:00,
2013-03-19 19:24:00,73.5,58.8,29.94,NW,317,3.0,12.0,60,0.00,,---,0.00,5.00,VWS V14.00,2013-03-19 23:24:00,
2013-03-19 19:25:00,73.4,58.2,29.94,NW,317,3.0,12.0,59,0.00,,---,0.00,5.00,VWS V14.00,2013-03-19 23:25:00,
2013-03-19 19:26:00,73.4,57.7,29.94,NW,317,2.0,12.0,58,0.00,,---,0.00,5.00,VWS V14.00,2013-03-19 23:26:00,
2013-03-19 19:27:00,73.3,58.1,29.94,NW,317,2.0,12.0,59,0.00,,---,0.00,0.00,VWS V14.00,2013-03-19 23:27:00,
2013-03-19 19:28:00,73.3,57.7,29.94,NW,317,4.0,12.0,58,0.00,,---,0.00,0.00,VWS V14.00,2013-03-19 23:28:00,
2013-03-19 19:29:00,73.2,57.5,29.94,NW,317,2.0,12.0,58,0.00,,---,0.00,0.00,VWS V14.00,2013-03-19 23:29:00,
2013-03-19 19:30:00,73.2,57.5,29.94,NW,317,2.0,12.0,58,0.00,,---,0.00,0.00,VWS V14.00,2013-03-19 23:30:00,
2013-03-19 19:31:00,73.1,57.5,29.94,NW,317,3.0,4.0,58,0.00,,---,0.00,0.00,VWS V14.00,2013-03-19 23:31:00,
2013-03-19 19:32:00,73.1,57.9,29.94,NW,317,2.0,4.0,59,0.00,,---,0.00,0.00,VWS V14.00,2013-03-19 23:32:00,
2013-03-19 19:33:00,73.0,57.4,29.94,NW,317,3.0,5.0,58,0.00,,---,0.00,0.00,VWS V14.00,2013-03-19 23:33:00,
2013-03-19 19:34:00,73.0,57.4,29.94,NW,317,3.0,5.0,58,0.00,,---,0.00,0.00,VWS V14.00,2013-03-19 23:34:00,
2013-03-19 19:35:00,72.9,57.8,29.94,NW,317,2.0,5.0,59,0.00,,---,0.00,0.00,VWS V14.00,2013-03-19 23:35:00,
2013-03-19 19:36:00,72.9,57.8,29.94,NW,317,2.0,5.0,59,0.00,,---,0.00,0.00,VWS V14.00,2013-03-19 23:36:00,
2013-03-19 19:37:00,72.8,57.2,29.94,NW,317,3.0,5.0,58,0.00,,---,0.00,0.00,VWS V14.00,2013-03-19 23:37:00,
2013-03-19 19:38:00,72.8,57.2,29.94,NW,317,3.0,5.0,58,0.00,,---,0.00,0.00,VWS V14.00,2013-03-19 23:38:00,
2013-03-19 19:39:00,72.8,57.7,29.94,NW,317,1.0,5.0,59,0.00,,---,0.00,0.00,VWS V14.00,2013-03-19 23:39:00,
2013-03-19 19:40:00,72.7,57.6,29.94,NW,317,1.0,5.0,59,0.00,,---,0.00,0.00,VWS V14.00,2013-03-19 23:40:00,
2013-03-19 19:41:00,72.7,57.6,29.94,NW,317,1.0,5.0,59,0.00,,---,0.00,0.00,VWS V14.00,2013-03-19 23:41:00,
2013-03-19 19:42:00,72.6,57.5,29.94,NW,317,2.0,5.0,59,0.00,,---,0.00,0.00,VWS V14.00,2013-03-19 23:42:00,
2013-03-19 19:43:00,72.6,57.5,29.95,NW,317,3.0,5.0,59,0.00,,---,0.00,0.00,VWS V14.00,2013-03-19 23:43:00,
2013-03-19 19:44:00,72.6,57.5,29.95,NW,317,3.0,5.0,59,0.00,,---,0.00,0.00,VWS V14.00,2013-03-19 23:44:00,
2013-03-19 19:45:00,72.5,57.4,29.94,NW,317,2.0,5.0,59,0.00,,---,0.00,0.00,VWS V14.00,2013-03-19 23:45:00,
2013-03-19 19:46:00,72.4,57.8,29.95,NW,317,3.0,5.0,60,0.00,,---,0.00,0.00,VWS V14.00,2013-03-19 23:46:00,
2013-03-19 19:47:00,72.4,57.8,29.95,NW,317,3.0,5.0,60,0.00,,---,0.00,0.00,VWS V14.00,2013-03-19 23:47:00,
2013-03-19 19:48:00,72.3,57.7,29.95,NW,317,3.0,5.0,60,0.00,,---,0.00,0.00,VWS V14.00,2013-03-19 23:48:00,
2013-03-19 19:49:00,72.3,57.7,29.95,NW,317,4.0,5.0,60,0.00,,---,0.00,0.00,VWS V14.00,2013-03-19 23:49:00,
2013-03-19 19:50:00,72.2,57.6,29.95,NW,317,4.0,5.0,60,0.00,,---,0.00,0.00,VWS V14.00,2013-03-19 23:50:00,
2013-03-19 19:51:00,72.2,57.1,29.95,NW,317,4.0,5.0,59,0.00,,---,0.00,0.00,VWS V14.00,2013-03-19 23:51:00,
2013-03-19 19:52:00,72.1,57.5,29.95,NW,317,2.0,5.0,60,0.00,,---,0.00,0.00,VWS V14.00,2013-03-19 23:52:00,
2013-03-19 19:53:00,72.1,57.5,29.95,NW,317,4.0,5.0,60,0.00,,---,0.00,0.00,VWS V14.00,2013-03-19 23:53:00,
2013-03-19 19:54:00,72.1,57.9,29.95,NW,317,4.0,5.0,61,0.00,,---,0.00,0.00,VWS V14.00,2013-03-19 23:54:00,
2013-03-19 19:55:00,72.0,57.8,29.95,NW,317,3.0,5.0,61,0.00,,---,0.00,0.00,VWS V14.00,2013-03-19 23:55:00,
2013-03-19 19:56:00,72.0,57.8,29.95,NW,317,4.0,5.0,61,0.00,,---,0.00,0.00,VWS V14.00,2013-03-19 23:56:00,
2013-03-19 19:57:00,71.9,57.3,29.95,NW,317,2.0,5.0,60,0.00,,---,0.00,0.00,VWS V14.00,2013-03-19 23:57:00,
2013-03-19 19:58:00,71.9,57.3,29.95,NW,317,3.0,5.0,60,0.00,,---,0.00,0.00,VWS V14.00,2013-03-19 23:58:00,
2013-03-19 19:59:00,71.8,57.2,29.95,NW,317,1.0,5.0,60,0.00,,---,0.00,0.00,VWS V14.00,2013-03-19 23:59:00,
2013-03-19 20:00:00,71.8,57.6,29.95,NW,317,3.0,3.0,61,0.00,,---,0.00,0.00,VWS V14.00,2013-03-20 00:00:00,
2013-03-19 20:01:00,71.7,57.5,29.95,NW,317,3.0,3.0,61,0.00,,---,0.00,0.00,VWS V14.00,2013-03-20 00:01:00,
2013-03-19 20:02:00,71.7,57.5,29.95,NW,317,0.0,3.0,61,0.00,,---,0.00,0.00,VWS V14.00,2013-03-20 00:02:00,
2013-03-19 20:03:00,71.7,57.5,29.95,NW,317,0.0,3.0,61,0.00,,---,0.00,0.00,VWS V14.00,2013-03-20 00:03:00,
2013-03-19 20:04:00,71.6,57.9,29.95,NW,317,2.0,3.0,62,0.00,,---,0.00,0.00,VWS V14.00,2013-03-20 00:04:00,
2013-03-19 20:05:00,71.6,58.3,29.95,NW,317,2.0,3.0,63,0.00,,---,0.00,0.00,VWS V14.00,2013-03-20 00:05:00,
2013-03-19 20:06:00,71.6,58.8,29.95,NW,317,3.0,3.0,64,0.00,,---,0.00,0.00,VWS V14.00,2013-03-20 00:06:00,
2013-03-19 20:07:00,71.5,58.7,29.95,NW,317,2.0,3.0,64,0.00,,---,0.00,0.00,VWS V14.00,2013-03-20 00:07:00,
2013-03-19 20:08:00,71.5,60.0,29.95,NW,317,3.0,3.0,67,0.00,,---,0.00,0.00,VWS V14.00,2013-03-20 00:08:00,
2013-03-19 20:09:00,71.5,60.0,29.95,NW,317,2.0,3.0,67,0.00,,---,0.00,0.00,VWS V14.00,2013-03-20 00:09:00,
2013-03-19 20:10:00,71.4,59.9,29.95,NW,317,3.0,3.0,67,0.00,,---,0.00,0.00,VWS V14.00,2013-03-20 00:10:00,
2013-03-19 20:11:00,71.3,58.9,29.95,NW,317,4.0,4.0,65,0.00,,---,0.00,0.00,VWS V14.00,2013-03-20 00:11:00,
2013-03-19 20:12:00,71.2,58.0,29.95,NW,317,2.0,4.0,63,0.00,,---,0.00,0.00,VWS V14.00,2013-03-20 00:12:00,
2013-03-19 20:13:00,71.2,58.4,29.95,NW,317,2.0,4.0,64,0.00,,---,0.00,0.00,VWS V14.00,2013-03-20 00:13:00,
2013-03-19 20:14:00,71.1,58.3,29.95,NW,317,2.0,4.0,64,0.00,,---,0.00,0.00,VWS V14.00,2013-03-20 00:14:00,
2013-03-19 20:15:00,71.1,58.3,29.95,NW,317,2.0,4.0,64,0.00,,---,0.00,0.00,VWS V14.00,2013-03-20 00:15:00,
2013-03-19 20:16:00,71.0,58.2,29.95,NW,317,2.0,4.0,64,0.00,,---,0.00,0.00,VWS V14.00,2013-03-20 00:16:00,
2013-03-19 20:17:00,71.0,57.8,29.95,NW,317,2.0,4.0,63,0.00,,---,0.00,0.00,VWS V14.00,2013-03-20 00:17:00,
2013-03-19 20:18:00,70.9,57.7,29.95,NW,317,2.0,4.0,63,0.00,,---,0.00,0.00,VWS V14.00,2013-03-20 00:18:00,
2013-03-19 20:19:00,70.9,58.1,29.95,NW,317,0.0,4.0,64,0.00,,---,0.00,0.00,VWS V14.00,2013-03-20 00:19:00,
2013-03-19 20:20:00,70.8,58.0,29.95,NW,317,0.0,4.0,64,0.00,,---,0.00,0.00,VWS V14.00,2013-03-20 00:20:00,
2013-03-19 20:21:00,70.8,57.6,29.95,NW,317,0.0,4.0,63,0.00,,---,0.00,0.00,VWS V14.00,2013-03-20 00:21:00,
2013-03-19 20:22:00,70.7,57.9,29.95,NW,317,0.0,4.0,64,0.00,,---,0.00,0.00,VWS V14.00,2013-03-20 00:22:00,
2013-03-19 20:23:00,70.7,57.5,29.95,NW,317,0.0,4.0,63,0.00,,---,0.00,0.00,VWS V14.00,2013-03-20 00:23:00,
2013-03-19 20:24:00,70.7,57.1,29.95,NW,317,0.0,4.0,62,0.00,,---,0.00,0.00,VWS V14.00,2013-03-20 00:24:00,
2013-03-19 20:25:00,70.6,57.4,29.95,NW,317,0.0,4.0,63,0.00,,---,0.00,0.00,VWS V14.00,2013-03-20 00:25:00,
2013-03-19 20:26:00,70.6,57.8,29.95,NW,317,0.0,4.0,64,0.00,,---,0.00,0.00,VWS V14.00,2013-03-20 00:26:00,
2013-03-19 20:27:00,70.6,58.3,29.95,NW,317,0.0,4.0,65,0.00,,---,0.00,0.00,VWS V14.00,2013-03-20 00:27:00,
2013-03-19 20:28:00,70.5,58.2,29.95,NW,317,0.0,4.0,65,0.00,,---,0.00,0.00,VWS V14.00,2013-03-20 00:28:00,
2013-03-19 20:29:00,70.4,57.7,29.95,NW,317,0.0,4.0,64,0.00,,---,0.00,0.00,VWS V14.00,2013-03-20 00:29:00,
2013-03-19 20:30:00,70.3,57.6,29.95,NW,317,0.0,4.0,64,0.00,,---,0.00,0.00,VWS V14.00,2013-03-20 00:30:00,
2013-03-19 20:31:00,70.3,57.6,29.95,NW,317,0.0,0.0,64,0.00,,---,0.00,0.00,VWS V14.00,2013-03-20 00:31:00,
2013-03-19 20:32:00,70.2,57.0,29.95,NW,317,0.0,0.0,63,0.00,,---,0.00,0.00,VWS V14.00,2013-03-20 00:32:00,
2013-03-19 20:33:00,70.1,56.9,29.95,NW,317,0.0,0.0,63,0.00,,---,0.00,0.00,VWS V14.00,2013-03-20 00:33:00,
2013-03-19 20:34:00,70.0,56.8,29.95,NW,317,0.0,0.0,63,0.00,,---,0.00,0.00,VWS V14.00,2013-03-20 00:34:00,
2013-03-19 20:35:00,69.9,57.2,29.95,NW,317,0.0,0.0,64,0.00,,---,0.00,0.00,VWS V14.00,2013-03-20 00:35:00,
2013-03-19 20:36:00,69.9,57.2,29.95,NW,317,0.0,0.0,64,0.00,,---,0.00,0.00,VWS V14.00,2013-03-20 00:36:00,
2013-03-19 20:37:00,69.7,57.0,29.95,NW,317,0.0,0.0,64,0.00,,---,0.00,0.00,VWS V14.00,2013-03-20 00:37:00,
2013-03-19 20:38:00,69.7,56.6,29.95,NW,317,0.0,0.0,63,0.00,,---,0.00,0.00,VWS V14.00,2013-03-20 00:38:00,
2013-03-19 20:39:00,69.6,56.5,29.95,NW,317,0.0,0.0,63,0.00,,---,0.00,0.00,VWS V14.00,2013-03-20 00:39:00,
2013-03-19 20:40:00,69.5,56.8,29.95,NW,317,0.0,0.0,64,0.00,,---,0.00,0.00,VWS V14.00,2013-03-20 00:40:00,
2013-03-19 20:41:00,69.5,56.8,29.95,NW,317,0.0,0.0,64,0.00,,---,0.00,0.00,VWS V14.00,2013-03-20 00:41:00,
2013-03-19 20:42:00,69.4,57.6,29.95,NW,317,0.0,0.0,66,0.00,,---,0.00,0.00,VWS V14.00,2013-03-20 00:42:00,
2013-03-19 20:43:00,69.3,56.6,29.95,NW,317,0.0,0.0,64,0.00,,---,0.00,0.00,VWS V14.00,2013-03-20 00:43:00,
2013-03-19 20:44:00,69.2,56.5,29.96,NW,317,0.0,0.0,64,0.00,,---,0.00,0.00,VWS V14.00,2013-03-20 00:44:00,
2013-03-19 20:45:00,69.2,56.5,29.95,NW,317,0.0,0.0,64,0.00,,---,0.00,0.00,VWS V14.00,2013-03-20 00:45:00,
2013-03-19 20:46:00,69.2,57.0,29.96,NW,317,0.0,0.0,65,0.00,,---,0.00,0.00,VWS V14.00,2013-03-20 00:46:00,
2013-03-19 20:47:00,69.2,56.5,29.96,NW,317,0.0,0.0,64,0.00,,---,0.00,0.00,VWS V14.00,2013-03-20 00:47:00,
2013-03-19 20:48:00,69.2,56.1,29.96,NW,317,0.0,0.0,63,0.00,,---,0.00,0.00,VWS V14.00,2013-03-20 00:48:00,
2013-03-19 20:49:00,69.2,56.5,29.96,NW,317,0.0,0.0,64,0.00,,---,0.00,0.00,VWS V14.00,2013-03-20 00:49:00,
2013-03-19 20:50:00,69.2,56.1,29.96,NW,317,0.0,0.0,63,0.00,,---,0.00,0.00,VWS V14.00,2013-03-20 00:50:00,
2013-03-19 20:51:00,69.2,56.1,29.96,NW,317,0.0,0.0,63,0.00,,---,0.00,0.00,VWS V14.00,2013-03-20 00:51:00,
2013-03-19 20:52:00,69.2,56.1,29.96,NW,317,0.0,0.0,63,0.00,,---,0.00,0.00,VWS V14.00,2013-03-20 00:52:00,
2013-03-19 20:53:00,69.2,56.5,29.96,NW,317,0.0,0.0,64,0.00,,---,0.00,0.00,VWS V14.00,2013-03-20 00:53:00,
2013-03-19 20:54:00,69.2,56.5,29.96,NW,317,0.0,0.0,64,0.00,,---,0.00,0.00,VWS V14.00,2013-03-20 00:54:00,
2013-03-19 20:55:00,69.2,57.0,29.96,NW,317,0.0,0.0,65,0.00,,---,0.00,0.00,VWS V14.00,2013-03-20 00:55:00,
2013-03-19 20:56:00,69.2,57.4,29.96,NW,317,0.0,0.0,66,0.00,,---,0.00,0.00,VWS V14.00,2013-03-20 00:56:00,
2013-03-19 20:57:00,69.1,57.7,29.96,NW,317,0.0,0.0,67,0.00,,---,0.00,0.00,VWS V14.00,2013-03-20 00:57:00,
2013-03-19 20:58:00,69.1,58.1,29.96,NW,317,0.0,0.0,68,0.00,,---,0.00,0.00,VWS V14.00,2013-03-20 00:58:00,
2013-03-19 20:59:00,69.0,58.4,29.96,NW,317,2.0,2.0,69,0.00,,---,0.00,0.00,VWS V14.00,2013-03-20 00:59:00,
2013-03-19 21:00:00,69.0,57.6,29.96,NW,317,1.0,3.0,67,0.00,,---,0.00,0.00,VWS V14.00,2013-03-20 01:00:00,
2013-03-19 21:01:00,68.9,57.5,29.96,NW,317,2.0,2.0,67,0.00,,---,0.00,0.00,VWS V14.00,2013-03-20 01:01:00,
2013-03-19 21:02:00,68.9,57.5,29.96,NW,317,4.0,4.0,67,0.00,,---,0.00,0.00,VWS V14.00,2013-03-20 01:02:00,
2013-03-19 21:03:00,68.8,57.0,29.96,NW,317,3.0,4.0,66,0.00,,---,0.00,0.00,VWS V14.00,2013-03-20 01:03:00,
2013-03-19 21:04:00,68.8,57.0,29.96,NW,317,4.0,4.0,66,0.00,,---,0.00,0.00,VWS V14.00,2013-03-20 01:04:00,
2013-03-19 21:05:00,68.8,56.6,29.96,NW,317,3.0,4.0,65,0.00,,---,0.00,0.00,VWS V14.00,2013-03-20 01:05:00,
2013-03-19 21:06:00,68.8,57.0,29.96,NW,317,3.0,4.0,66,0.00,,---,0.00,0.00,VWS V14.00,2013-03-20 01:06:00,
2013-03-19 21:07:00,68.8,57.0,29.96,NW,317,3.0,4.0,66,0.00,,---,0.00,0.00,VWS V14.00,2013-03-20 01:07:00,
2013-03-19 21:08:00,68.8,56.1,29.96,NW,317,1.0,4.0,64,0.00,,---,0.00,0.00,VWS V14.00,2013-03-20 01:08:00,
2013-03-19 21:09:00,68.8,56.6,29.96,NW,317,1.0,4.0,65,0.00,,---,0.00,0.00,VWS V14.00,2013-03-20 01:09:00,
2013-03-19 21:10:00,68.8,56.6,29.96,NW,317,0.0,4.0,65,0.00,,---,0.00,0.00,VWS V14.00,2013-03-20 01:10:00,
2013-03-19 21:11:00,68.8,56.6,29.96,NW,317,0.0,4.0,65,0.00,,---,0.00,0.00,VWS V14.00,2013-03-20 01:11:00,
2013-03-19 21:12:00,68.8,57.0,29.97,NW,317,0.0,4.0,66,0.00,,---,0.00,0.00,VWS V14.00,2013-03-20 01:12:00,
2013-03-19 21:13:00,68.8,57.4,29.97,NW,317,0.0,4.0,67,0.00,,---,0.00,0.00,VWS V14.00,2013-03-20 01:13:00,
2013-03-19 21:14:00,68.8,57.0,29.97,NW,317,0.0,4.0,66,0.00,,---,0.00,0.00,VWS V14.00,2013-03-20 01:14:00,
2013-03-19 21:15:00,68.8,57.0,29.97,NW,317,0.0,4.0,66,0.00,,---,0.00,0.00,VWS V14.00,2013-03-20 01:15:00,
2013-03-19 21:16:00,68.8,57.4,29.96,NW,317,0.0,4.0,67,0.00,,---,0.00,0.00,VWS V14.00,2013-03-20 01:16:00,
2013-03-19 21:17:00,68.7,56.9,29.97,NW,317,0.0,4.0,66,0.00,,---,0.00,0.00,VWS V14.00,2013-03-20 01:17:00,
2013-03-19 21:18:00,68.7,57.7,29.97,NW,317,0.0,4.0,68,0.00,,---,0.00,0.00,VWS V14.00,2013-03-20 01:18:00,
2013-03-19 21:19:00,68.6,57.6,29.97,NW,317,0.0,4.0,68,0.00,,---,0.00,0.00,VWS V14.00,2013-03-20 01:19:00,
2013-03-19 21:20:00,68.6,57.6,29.97,NW,317,0.0,4.0,68,0.00,,---,0.00,0.00,VWS V14.00,2013-03-20 01:20:00,
2013-03-19 21:21:00,68.6,57.6,29.97,NW,317,0.0,4.0,68,0.00,,---,0.00,0.00,VWS V14.00,2013-03-20 01:21:00,
2013-03-19 21:22:00,68.5,57.5,29.97,NW,317,0.0,4.0,68,0.00,,---,0.00,0.00,VWS V14.00,2013-03-20 01:22:00,
2013-03-19 21:23:00,68.4,57.4,29.97,NW,317,0.0,4.0,68,0.00,,---,0.00,0.00,VWS V14.00,2013-03-20 01:23:00,
2013-03-19 21:24:00,68.3,57.3,29.97,NW,317,0.0,4.0,68,0.00,,---,0.00,0.00,VWS V14.00,2013-03-20 01:24:00,
2013-03-19 21:25:00,68.3,57.3,29.97,NW,317,0.0,4.0,68,0.00,,---,0.00,0.00,VWS V14.00,2013-03-20 01:25:00,
2013-03-19 21:26:00,68.2,57.7,29.97,NW,317,0.0,4.0,69,0.00,,---,0.00,0.00,VWS V14.00,2013-03-20 01:26:00,
2013-03-19 21:27:00,68.1,57.6,29.97,NW,317,0.0,4.0,69,0.00,,---,0.00,0.00,VWS V14.00,2013-03-20 01:27:00,
2013-03-19 21:28:00,68.0,57.5,29.97,NW,317,0.0,4.0,69,0.00,,---,0.00,0.00,VWS V14.00,2013-03-20 01:28:00,
2013-03-19 21:29:00,67.9,57.4,29.97,NW,317,0.0,4.0,69,0.00,,---,0.00,0.00,VWS V14.00,2013-03-20 01:29:00,
2013-03-19 21:30:00,67.8,57.7,29.97,NW,317,0.0,4.0,70,0.00,,---,0.00,0.00,VWS V14.00,2013-03-20 01:30:00,
2013-03-19 21:31:00,67.7,57.2,29.97,NW,317,0.0,0.0,69,0.00,,---,0.00,0.00,VWS V14.00,2013-03-20 01:31:00,
2013-03-19 21:32:00,67.7,57.2,29.97,NW,317,0.0,0.0,69,0.00,,---,0.00,0.00,VWS V14.00,2013-03-20 01:32:00,
2013-03-19 21:33:00,67.6,57.1,29.97,NW,317,0.0,0.0,69,0.00,,---,0.00,0.00,VWS V14.00,2013-03-20 01:33:00,
2013-03-19 21:34:00,67.6,57.5,29.97,NW,317,0.0,0.0,70,0.00,,---,0.00,0.00,VWS V14.00,2013-03-20 01:34:00,
2013-03-19 21:35:00,67.5,57.4,29.97,NW,317,0.0,0.0,70,0.00,,---,0.00,0.00,VWS V14.00,2013-03-20 01:35:00,
2013-03-19 21:36:00,67.5,57.8,29.97,NW,317,2.0,3.0,71,0.00,,---,0.00,0.00,VWS V14.00,2013-03-20 01:36:00,
2013-03-19 21:37:00,67.5,57.0,29.97,NW,317,2.0,3.0,69,0.00,,---,0.00,0.00,VWS V14.00,2013-03-20 01:37:00,
2013-03-19 21:38:00,67.4,56.5,29.97,NW,317,4.0,4.0,68,0.00,,---,0.00,0.00,VWS V14.00,2013-03-20 01:38:00,
2013-03-19 21:39:00,67.4,55.7,29.97,NW,317,3.0,4.0,66,0.00,,---,0.00,0.00,VWS V14.00,2013-03-20 01:39:00,
2013-03-19 21:40:00,67.4,55.7,29.97,NW,317,3.0,4.0,66,0.00,,---,0.00,0.00,VWS V14.00,2013-03-20 01:40:00,
2013-03-19 21:41:00,67.4,55.2,29.97,NW,317,3.0,4.0,65,0.00,,---,0.00,0.00,VWS V14.00,2013-03-20 01:41:00,
2013-03-19 21:42:00,67.4,55.2,29.97,NW,317,3.0,4.0,65,0.00,,---,0.00,0.00,VWS V14.00,2013-03-20 01:42:00,
2013-03-19 21:43:00,67.4,55.7,29.97,NW,317,4.0,4.0,66,0.00,,---,0.00,0.00,VWS V14.00,2013-03-20 01:43:00,
2013-03-19 21:44:00,67.5,55.8,29.97,NW,317,4.0,4.0,66,0.00,,---,0.00,0.00,VWS V14.00,2013-03-20 01:44:00,
2013-03-19 21:45:00,67.5,55.3,29.97,NW,317,3.0,4.0,65,0.00,,---,0.00,0.00,VWS V14.00,2013-03-20 01:45:00,
2013-03-19 21:46:00,67.6,55.8,29.97,NW,317,4.0,4.0,66,0.00,,---,0.00,0.00,VWS V14.00,2013-03-20 01:46:00,
2013-03-19 21:47:00,67.6,55.4,29.97,NNW,335,4.0,5.0,65,0.00,,---,0.00,0.00,VWS V14.00,2013-03-20 01:47:00,
2013-03-19 21:48:00,67.6,55.8,29.97,NNW,335,4.0,5.0,66,0.00,,---,0.00,0.00,VWS V14.00,2013-03-20 01:48:00,
2013-03-19 21:49:00,67.7,55.1,29.97,NNW,335,3.0,5.0,64,0.00,,---,0.00,0.00,VWS V14.00,2013-03-20 01:49:00,
2013-03-19 21:50:00,67.7,55.1,29.97,NNW,335,2.0,5.0,64,0.00,,---,0.00,0.00,VWS V14.00,2013-03-20 01:50:00,
2013-03-19 21:51:00,67.7,54.7,29.97,NNW,335,3.0,5.0,63,0.00,,---,0.00,0.00,VWS V14.00,2013-03-20 01:51:00,
2013-03-19 21:52:00,67.8,55.2,29.97,NNW,342,4.0,5.0,64,0.00,,---,0.00,0.00,VWS V14.00,2013-03-20 01:52:00,
2013-03-19 21:53:00,67.8,54.8,29.97,NNW,345,5.0,5.0,63,0.00,,---,0.00,0.00,VWS V14.00,2013-03-20 01:53:00,
2013-03-19 21:54:00,67.9,54.8,29.97,NNW,345,3.0,5.0,63,0.00,,---,0.00,0.00,VWS V14.00,2013-03-20 01:54:00,
2013-03-19 21:55:00,67.9,55.3,29.97,NNW,345,1.0,5.0,64,0.00,,---,0.00,0.00,VWS V14.00,2013-03-20 01:55:00,
2013-03-19 21:56:00,67.9,55.3,29.97,NNW,345,2.0,5.0,64,0.00,,---,0.00,0.00,VWS V14.00,2013-03-20 01:56:00,
2013-03-19 21:57:00,68.0,55.4,29.97,NNW,345,3.0,5.0,64,0.00,,---,0.00,0.00,VWS V14.00,2013-03-20 01:57:00,
2013-03-19 21:58:00,68.0,55.0,29.97,NNW,345,3.0,5.0,63,0.00,,---,0.00,0.00,VWS V14.00,2013-03-20 01:58:00,
2013-03-19 21:59:00,68.0,55.0,29.97,NNW,345,2.0,5.0,63,0.00,,---,0.00,0.00,VWS V14.00,2013-03-20 01:59:00,
2013-03-19 22:00:00,68.0,55.4,29.97,NNW,345,4.0,5.0,64,0.00,,---,0.00,0.00,VWS V14.00,2013-03-20 02:00:00,
2013-03-19 22:01:00,68.0,55.8,29.97,NNW,345,2.0,4.0,65,0.00,,---,0.00,0.00,VWS V14.00,2013-03-20 02:01:00,
2013-03-19 22:02:00,67.9,55.7,29.97,NNW,345,2.0,4.0,65,0.00,,---,0.00,0.00,VWS V14.00,2013-03-20 02:02:00,
2013-03-19 22:03:00,67.9,55.7,29.97,NNW,345,3.0,4.0,65,0.00,,---,0.00,0.00,VWS V14.00,2013-03-20 02:03:00,
2013-03-19 22:04:00,67.8,56.0,29.97,NNW,345,4.0,5.0,66,0.00,,---,0.00,0.00,VWS V14.00,2013-03-20 02:04:00,
2013-03-19 22:05:00,67.8,56.0,29.97,NNW,345,3.0,5.0,66,0.00,,---,0.00,0.00,VWS V14.00,2013-03-20 02:05:00,
2013-03-19 22:06:00,67.8,56.0,29.97,NNW,345,5.0,5.0,66,0.00,,---,0.00,0.00,VWS V14.00,2013-03-20 02:06:00,
2013-03-19 22:07:00,67.7,55.5,29.97,NNW,347,4.0,6.0,65,0.00,,---,0.00,0.00,VWS V14.00,2013-03-20 02:07:00,
2013-03-19 22:08:00,67.7,55.1,29.97,North,353,4.0,6.0,64,0.00,,---,0.00,0.00,VWS V14.00,2013-03-20 02:08:00,
2013-03-19 22:09:00,67.7,54.2,29.97,North,353,4.0,6.0,62,0.00,,---,0.00,0.00,VWS V14.00,2013-03-20 02:09:00,
2013-03-19 22:10:00,67.7,54.2,29.97,North,353,4.0,6.0,62,0.00,,---,0.00,0.00,VWS V14.00,2013-03-20 02:10:00,
2013-03-19 22:11:00,67.7,54.2,29.97,North,353,6.0,6.0,62,0.00,,---,0.00,0.00,VWS V14.00,2013-03-20 02:11:00,
2013-03-19 22:12:00,67.7,54.2,29.97,North,353,4.0,6.0,62,0.00,,---,0.00,0.00,VWS V14.00,2013-03-20 02:12:00,
2013-03-19 22:13:00,67.7,54.2,29.97,North,353,4.0,6.0,62,0.00,,---,0.00,0.00,VWS V14.00,2013-03-20 02:13:00,
2013-03-19 22:14:00,67.7,54.7,29.97,North,353,6.0,6.0,63,0.00,,---,0.00,0.00,VWS V14.00,2013-03-20 02:14:00,
2013-03-19 22:15:00,67.7,54.2,29.97,North,358,5.0,7.0,62,0.00,,---,0.00,0.00,VWS V14.00,2013-03-20 02:15:00,
2013-03-19 22:16:00,67.7,54.2,29.97,North,358,5.0,7.0,62,0.00,,---,0.00,0.00,VWS V14.00,2013-03-20 02:16:00,
2013-03-19 22:17:00,67.7,54.2,29.97,North,359,5.0,7.0,62,0.00,,---,0.00,0.00,VWS V14.00,2013-03-20 02:17:00,
2013-03-19 22:18:00,67.7,53.8,29.97,North,359,5.0,7.0,61,0.00,,---,0.00,0.00,VWS V14.00,2013-03-20 02:18:00,
2013-03-19 22:19:00,67.7,53.8,29.97,North,359,4.0,7.0,61,0.00,,---,0.00,0.00,VWS V14.00,2013-03-20 02:19:00,
2013-03-19 22:20:00,67.7,53.3,29.98,North,360,5.0,7.0,60,0.00,,---,0.00,0.00,VWS V14.00,2013-03-20 02:20:00,
2013-03-19 22:21:00,67.7,53.3,29.97,North,360,5.0,7.0,60,0.00,,---,0.00,0.00,VWS V14.00,2013-03-20 02:21:00,
2013-03-19 22:22:00,67.7,53.3,29.98,NNE,15,5.0,8.0,60,0.00,,---,0.00,0.00,VWS V14.00,2013-03-20 02:22:00,
2013-03-19 22:23:00,67.7,53.8,29.98,NNE,15,6.0,8.0,61,0.00,,---,0.00,0.00,VWS V14.00,2013-03-20 02:23:00,
2013-03-19 22:24:00,67.7,53.3,29.98,NNE,15,6.0,8.0,60,0.00,,---,0.00,0.00,VWS V14.00,2013-03-20 02:24:00,
2013-03-19 22:25:00,67.7,52.9,29.98,NNE,15,5.0,8.0,59,0.00,,---,0.00,0.00,VWS V14.00,2013-03-20 02:25:00,
2013-03-19 22:26:00,67.7,53.8,29.98,NNE,15,5.0,8.0,61,0.00,,---,0.00,0.00,VWS V14.00,2013-03-20 02:26:00,
2013-03-19 22:27:00,67.7,53.8,29.98,NNE,15,6.0,8.0,61,0.00,,---,0.00,0.00,VWS V14.00,2013-03-20 02:27:00,
2013-03-19 22:28:00,67.7,53.3,29.98,NNE,15,6.0,8.0,60,0.00,,---,0.00,0.00,VWS V14.00,2013-03-20 02:28:00,
2013-03-19 22:29:00,67.6,53.2,29.98,NNE,13,4.0,8.0,60,0.00,,---,0.00,0.00,VWS V14.00,2013-03-20 02:29:00,
2013-03-19 22:30:00,67.6,53.7,29.98,NNE,13,6.0,8.0,61,0.00,,---,0.00,0.00,VWS V14.00,2013-03-20 02:30:00,
2013-03-19 22:31:00,67.6,53.2,29.98,NNE,13,4.0,6.0,60,0.00,,---,0.00,0.00,VWS V14.00,2013-03-20 02:31:00,
2013-03-19 22:32:00,67.6,53.7,29.98,NNE,13,5.0,6.0,61,0.00,,---,0.00,0.00,VWS V14.00,2013-03-20 02:32:00,
2013-03-19 22:33:00,67.5,53.6,29.98,NNE,13,3.0,6.0,61,0.00,,---,0.00,0.00,VWS V14.00,2013-03-20 02:33:00,
2013-03-19 22:34:00,67.5,53.1,29.98,NNE,14,3.0,7.0,60,0.00,,---,0.00,0.00,VWS V14.00,2013-03-20 02:34:00,
2013-03-19 22:35:00,67.4,53.0,29.98,NNE,14,4.0,7.0,60,0.00,,---,0.00,0.00,VWS V14.00,2013-03-20 02:35:00,
2013-03-19 22:36:00,67.4,53.0,29.98,NNE,14,7.0,7.0,60,0.00,,---,0.00,0.00,VWS V14.00,2013-03-20 02:36:00,
2013-03-19 22:37:00,67.4,53.0,29.99,NNE,21,5.0,7.0,60,0.00,,---,0.00,0.00,VWS V14.00,2013-03-20 02:37:00,
2013-03-19 22:38:00,67.3,52.5,29.99,NNE,20,7.0,8.0,59,0.00,,---,0.00,0.00,VWS V14.00,2013-03-20 02:38:00,
2013-03-19 22:39:00,67.4,53.5,29.99,NNE,16,7.0,8.0,61,0.00,,---,0.00,0.00,VWS V14.00,2013-03-20 02:39:00,
2013-03-19 22:40:00,67.3,53.0,29.99,NNE,14,7.0,8.0,60,0.00,,---,0.00,0.00,VWS V14.00,2013-03-20 02:40:00,
2013-03-19 22:41:00,67.3,53.4,29.99,North,7,7.0,8.0,61,0.00,,---,0.00,0.00,VWS V14.00,2013-03-20 02:41:00,
2013-03-19 22:42:00,67.3,53.4,29.99,North,8,6.0,8.0,61,0.00,,---,0.00,0.00,VWS V14.00,2013-03-20 02:42:00,
2013-03-19 22:43:00,67.3,53.0,29.99,North,10,6.0,8.0,60,0.00,,---,0.00,0.00,VWS V14.00,2013-03-20 02:43:00,
2013-03-19 22:44:00,67.3,53.0,29.99,North,11,7.0,8.0,60,0.00,,---,0.00,0.00,VWS V14.00,2013-03-20 02:44:00,
2013-03-19 22:45:00,67.3,53.0,29.99,North,10,5.0,8.0,60,0.00,,---,0.00,0.00,VWS V14.00,2013-03-20 02:45:00,
2013-03-19 22:46:00,67.3,53.4,29.99,NNE,14,6.0,8.0,61,0.00,,---,0.00,0.00,VWS V14.00,2013-03-20 02:46:00,
2013-03-19 22:47:00,67.3,53.0,29.99,NNE,18,7.0,8.0,60,0.00,,---,0.00,0.00,VWS V14.00,2013-03-20 02:47:00,
2013-03-19 22:48:00,67.2,52.9,29.99,NNE,15,5.0,8.0,60,0.00,,---,0.00,0.00,VWS V14.00,2013-03-20 02:48:00,
2013-03-19 22:49:00,67.3,53.0,29.99,NNE,25,7.0,8.0,60,0.00,,---,0.00,0.00,VWS V14.00,2013-03-20 02:49:00,
2013-03-19 22:50:00,67.2,52.4,29.99,NNE,25,4.0,8.0,59,0.00,,---,0.00,0.00,VWS V14.00,2013-03-20 02:50:00,
2013-03-19 22:51:00,67.2,52.4,29.99,NNE,25,5.0,8.0,59,0.00,,---,0.00,0.00,VWS V14.00,2013-03-20 02:51:00,
2013-03-19 22:52:00,67.2,52.4,29.99,NNE,25,4.0,8.0,59,0.00,,---,0.00,0.00,VWS V14.00,2013-03-20 02:52:00,
2013-03-19 22:53:00,67.2,51.9,29.99,NNE,25,5.0,8.0,58,0.00,,---,0.00,0.00,VWS V14.00,2013-03-20 02:53:00,
2013-03-19 22:54:00,67.2,52.4,29.99,NNE,25,5.0,8.0,59,0.00,,---,0.00,0.00,VWS V14.00,2013-03-20 02:54:00,
2013-03-19 22:55:00,67.2,52.4,29.99,NNE,25,3.0,8.0,59,0.00,,---,0.00,0.00,VWS V14.00,2013-03-20 02:55:00,
2013-03-19 22:56:00,67.2,52.9,29.99,NNE,20,6.0,8.0,60,0.00,,---,0.00,0.00,VWS V14.00,2013-03-20 02:56:00,
2013-03-19 22:57:00,67.1,52.3,29.99,NNE,20,6.0,8.0,59,0.00,,---,0.00,0.00,VWS V14.00,2013-03-20 02:57:00,
2013-03-19 22:58:00,67.1,52.3,29.99,NNE,20,3.0,8.0,59,0.00,,---,0.00,0.00,VWS V14.00,2013-03-20 02:58:00,
2013-03-19 22:59:00,67.1,52.8,29.99,NNE,20,5.0,8.0,60,0.00,,---,0.00,0.00,VWS V14.00,2013-03-20 02:59:00,
2013-03-19 23:00:00,67.1,52.3,29.99,NNE,20,4.0,8.0,59,0.00,,---,0.00,0.00,VWS V14.00,2013-03-20 03:00:00,
2013-03-19 23:01:00,67.0,52.2,29.99,NNE,20,4.0,5.0,59,0.00,,---,0.00,0.00,VWS V14.00,2013-03-20 03:01:00,
2013-03-19 23:02:00,67.0,52.7,29.99,NNE,20,4.0,6.0,60,0.00,,---,0.00,0.00,VWS V14.00,2013-03-20 03:02:00,
2013-03-19 23:03:00,67.0,52.2,29.99,NNE,20,5.0,6.0,59,0.00,,---,0.00,0.00,VWS V14.00,2013-03-20 03:03:00,
2013-03-19 23:04:00,67.0,52.2,29.99,NNE,20,6.0,6.0,59,0.00,,---,0.00,0.00,VWS V14.00,2013-03-20 03:04:00,
2013-03-19 23:05:00,67.0,52.2,29.99,NNE,20,5.0,6.0,59,0.00,,---,0.00,0.00,VWS V14.00,2013-03-20 03:05:00,
2013-03-19 23:06:00,67.0,52.2,29.99,NNE,19,5.0,6.0,59,0.00,,---,0.00,0.00,VWS V14.00,2013-03-20 03:06:00,
2013-03-19 23:07:00,66.9,52.6,29.99,NNE,19,4.0,6.0,60,0.00,,---,0.00,0.00,VWS V14.00,2013-03-20 03:07:00,
2013-03-19 23:08:00,66.9,52.6,29.99,NNE,19,5.0,6.0,60,0.00,,---,0.00,0.00,VWS V14.00,2013-03-20 03:08:00,
2013-03-19 23:09:00,66.9,53.5,29.99,NNE,17,5.0,7.0,62,0.00,,---,0.00,0.00,VWS V14.00,2013-03-20 03:09:00,
2013-03-19 23:10:00,66.9,53.5,29.99,NNE,16,5.0,7.0,62,0.00,,---,0.00,0.00,VWS V14.00,2013-03-20 03:10:00,
2013-03-19 23:11:00,66.9,53.0,29.99,NNE,16,4.0,7.0,61,0.00,,---,0.00,0.00,VWS V14.00,2013-03-20 03:11:00,
2013-03-19 23:12:00,66.8,52.9,29.99,NNE,16,5.0,7.0,61,0.00,,---,0.00,0.00,VWS V14.00,2013-03-20 03:12:00,
2013-03-19 23:13:00,66.8,52.9,29.99,NNE,15,5.0,7.0,61,0.00,,---,0.00,0.00,VWS V14.00,2013-03-20 03:13:00,
2013-03-19 23:14:00,66.8,53.4,29.99,NNE,15,5.0,7.0,62,0.00,,---,0.00,0.00,VWS V14.00,2013-03-20 03:14:00,
2013-03-19 23:15:00,66.8,53.4,29.99,North,355,7.0,7.0,62,0.00,,---,0.00,0.00,VWS V14.00,2013-03-20 03:15:00,
2013-03-19 23:16:00,66.7,52.8,30.00,North,355,6.0,7.0,61,0.00,,---,0.00,0.00,VWS V14.00,2013-03-20 03:16:00,
2013-03-19 23:17:00,66.7,53.3,30.00,North,352,5.0,7.0,62,0.00,,---,0.00,0.00,VWS V14.00,2013-03-20 03:17:00,
2013-03-19 23:18:00,66.7,52.8,29.99,NNW,347,6.0,7.0,61,0.00,,---,0.00,0.00,VWS V14.00,2013-03-20 03:18:00,
2013-03-19 23:19:00,66.7,53.3,30.00,NNW,346,8.0,8.0,62,0.00,,---,0.00,0.00,VWS V14.00,2013-03-20 03:19:00,
2013-03-19 23:20:00,66.7,52.8,30.00,North,355,6.0,8.0,61,0.00,,---,0.00,0.00,VWS V14.00,2013-03-20 03:20:00,
2013-03-19 23:21:00,66.7,53.3,30.00,NNW,335,6.0,8.0,62,0.00,,---,0.00,0.00,VWS V14.00,2013-03-20 03:21:00,
2013-03-19 23:22:00,66.7,53.7,30.00,NNW,339,7.0,8.0,63,0.00,,---,0.00,0.00,VWS V14.00,2013-03-20 03:22:00,
2013-03-19 23:23:00,66.7,53.7,30.00,NNW,339,6.0,8.0,63,0.00,,---,0.00,0.00,VWS V14.00,2013-03-20 03:23:00,
2013-03-19 23:24:00,66.7,53.7,30.00,NNW,337,7.0,8.0,63,0.00,,---,0.00,0.00,VWS V14.00,2013-03-20 03:24:00,
2013-03-19 23:25:00,66.6,53.2,30.00,NNW,337,6.0,8.0,62,0.00,,---,0.00,0.00,VWS V14.00,2013-03-20 03:25:00,
2013-03-19 23:26:00,66.6,53.2,30.00,NNW,341,6.0,8.0,62,0.00,,---,0.00,0.00,VWS V14.00,2013-03-20 03:26:00,
2013-03-19 23:27:00,66.6,52.8,30.00,NNW,341,5.0,8.0,61,0.00,,---,0.00,0.00,VWS V14.00,2013-03-20 03:27:00,
2013-03-19 23:28:00,66.5,53.1,30.00,NNW,341,5.0,8.0,62,0.00,,---,0.00,0.00,VWS V14.00,2013-03-20 03:28:00,
2013-03-19 23:29:00,66.5,53.5,30.00,NNW,341,4.0,8.0,63,0.00,,---,0.00,0.00,VWS V14.00,2013-03-20 03:29:00,
2013-03-19 23:30:00,66.5,53.5,30.00,NNW,341,3.0,8.0,63,0.00,,---,0.00,0.00,VWS V14.00,2013-03-20 03:30:00,
2013-03-19 23:31:00,66.4,53.0,30.00,NNW,341,2.0,5.0,62,0.00,,---,0.00,0.00,VWS V14.00,2013-03-20 03:31:00,
2013-03-19 23:32:00,66.4,53.9,30.00,NNW,341,3.0,5.0,64,0.00,,---,0.00,0.00,VWS V14.00,2013-03-20 03:32:00,
2013-03-19 23:33:00,66.3,53.3,30.00,NNW,341,4.0,5.0,63,0.00,,---,0.00,0.00,VWS V14.00,2013-03-20 03:33:00,
2013-03-19 23:34:00,66.3,53.3,30.00,NNW,341,3.0,5.0,63,0.00,,---,0.00,0.00,VWS V14.00,2013-03-20 03:34:00,
2013-03-19 23:35:00,66.3,53.3,30.00,NNW,341,2.0,5.0,63,0.00,,---,0.00,0.00,VWS V14.00,2013-03-20 03:35:00,
2013-03-19 23:36:00,66.3,53.3,30.00,NNW,341,1.0,5.0,63,0.00,,---,0.00,0.00,VWS V14.00,2013-03-20 03:36:00,
2013-03-19 23:37:00,66.2,53.2,30.00,NNW,341,2.0,5.0,63,0.00,,---,0.00,0.00,VWS V14.00,2013-03-20 03:37:00,
2013-03-19 23:38:00,66.2,52.8,30.00,NNW,341,3.0,5.0,62,0.00,,---,0.00,0.00,VWS V14.00,2013-03-20 03:38:00,
2013-03-19 23:39:00,66.2,53.2,30.00,NNW,341,4.0,5.0,63,0.00,,---,0.00,0.00,VWS V14.00,2013-03-20 03:39:00,
2013-03-19 23:40:00,66.1,52.3,30.00,NNW,341,2.0,5.0,61,0.00,,---,0.00,0.00,VWS V14.00,2013-03-20 03:40:00,
2013-03-19 23:41:00,66.1,52.3,30.00,NNW,341,0.0,5.0,61,0.00,,---,0.00,0.00,VWS V14.00,2013-03-20 03:41:00,
2013-03-19 23:42:00,66.1,53.2,30.00,NNW,341,1.0,5.0,63,0.00,,---,0.00,0.00,VWS V14.00,2013-03-20 03:42:00,
2013-03-19 23:43:00,66.1,52.7,30.00,NNW,341,1.0,5.0,62,0.00,,---,0.00,0.00,VWS V14.00,2013-03-20 03:43:00,
2013-03-19 23:44:00,66.1,52.3,30.00,NNW,341,0.0,5.0,61,0.00,,---,0.00,0.00,VWS V14.00,2013-03-20 03:44:00,
2013-03-19 23:45:00,66.1,53.2,30.00,NNW,341,0.0,5.0,63,0.00,,---,0.00,0.00,VWS V14.00,2013-03-20 03:45:00,
2013-03-19 23:46:00,66.1,53.2,30.00,NNW,341,0.0,5.0,63,0.00,,---,0.00,0.00,VWS V14.00,2013-03-20 03:46:00,
2013-03-19 23:47:00,66.0,53.1,30.00,NNW,341,0.0,5.0,63,0.00,,---,0.00,0.00,VWS V14.00,2013-03-20 03:47:00,
2013-03-19 23:48:00,66.0,53.1,30.00,NNW,341,0.0,5.0,63,0.00,,---,0.00,0.00,VWS V14.00,2013-03-20 03:48:00,
2013-03-19 23:49:00,66.0,53.1,30.00,NNW,341,0.0,5.0,63,0.00,,---,0.00,0.00,VWS V14.00,2013-03-20 03:49:00,
2013-03-19 23:50:00,66.0,53.5,30.00,NNW,341,0.0,5.0,64,0.00,,---,0.00,0.00,VWS V14.00,2013-03-20 03:50:00,
2013-03-19 23:51:00,65.9,53.4,30.00,NNW,341,0.0,5.0,64,0.00,,---,0.00,0.00,VWS V14.00,2013-03-20 03:51:00,
2013-03-19 23:52:00,65.9,53.4,30.00,NNW,341,0.0,5.0,64,0.00,,---,0.00,0.00,VWS V14.00,2013-03-20 03:52:00,
2013-03-19 23:53:00,65.8,52.9,30.00,NNW,341,0.0,5.0,63,0.00,,---,0.00,0.00,VWS V14.00,2013-03-20 03:53:00,
2013-03-19 23:54:00,65.7,53.2,30.00,NNW,341,0.0,5.0,64,0.00,,---,0.00,0.00,VWS V14.00,2013-03-20 03:54:00,
2013-03-19 23:55:00,65.6,52.7,30.00,NNW,341,0.0,5.0,63,0.00,,---,0.00,0.00,VWS V14.00,2013-03-20 03:55:00,
2013-03-19 23:56:00,65.6,52.7,30.00,NNW,341,0.0,5.0,63,0.00,,---,0.00,0.00,VWS V14.00,2013-03-20 03:56:00,
2013-03-19 23:57:00,65.5,52.6,30.00,NNW,341,0.0,5.0,63,0.00,,---,0.00,0.00,VWS V14.00,2013-03-20 03:57:00,
2013-03-19 23:58:00,65.4,52.5,30.00,NNW,341,0.0,5.0,63,0.00,,---,0.00,0.00,VWS V14.00,2013-03-20 03:58:00,
2013-03-19 23:59:00,65.3,52.8,30.00,NNW,341,0.0,5.0,64,0.00,,---,0.00,0.00,VWS V14.00,2013-03-20 03:59:00,